     2              OBSERVATION DATA    GPS                 RINEX VERSION / TYPE
teqc 2002Apr3 20051206 16:16:29UTC                          PGM / RUN BY / DATE
                                                            COMMENT
L1 & L2: 9 8 7 6 5 4 1                                      COMMENT
L1 & L2: 9 8 7 6 5 4 1                                      COMMENT
L1 & L2: 9 8 7 6 5 4 1                                      COMMENT
L1 & L2: 9 8 7 6 5 4 1                                      COMMENT
L1 & L2: 9 8 7 6 5 4 1                                      COMMENT
Original Marker Name: 6106                                  COMMENT
Campaign Name: CSUSB 2005                                   COMMENT
4-Character Station Name: 6106                              COMMENT
6-Character Antenna Code: DMRCHT                            COMMENT
Vertical Measurement Point: BCR                             COMMENT
Vertical Offset to Rinex Ref. Point: 0.0348                 COMMENT
Radial Measurement Point: ECF                               COMMENT
Radial Offset to Rinex Ref. Point: 0.1897                   COMMENT
Antenna Height from Field Measurement: 1.2410 m             COMMENT
Additional Antenna Identification Info.:                    COMMENT
Turborogue and Ashtech Choke Ring                           COMMENT
Original XYZ: -2444785.2622 -4693768.8878 3548231.5134      COMMENT
New XYZ position is based on association with SCEC monument COMMENT
E1D0R8B2+0011. Position of that monument is believed to be  COMMENT
valid to within 1 m horizontally; vertical accuracy         COMMENT
should be no worse than 3-times this value.                 COMMENT
                                                            COMMENT
Revised Rinex header created by UCSD GPS archive for        COMMENT
GSAC on 01-Apr-2006 (2006:091) 00:16:07 GMT                 COMMENT
For assistance contact dagnew@ucsd.edu                      COMMENT
or anderson@python.ucsd.edu                                 COMMENT
                                                            COMMENT
AH5238                                                      MARKER NAME
KTM HARVEY MUDD COLLEGE                                     OBSERVER / AGENCY
S/N UNKNOWN TURBOROGUE SNR-8000 98.12.27                    REC # / TYPE / VERS
-UNKNOWN- DORNE-MARGOL. TYPE T                              ANT # / TYPE
 -2434645.0000 -4697678.0000  3550112.0000                  APPROX POSITION XYZ
        1.1916        0.0000        0.0000                  ANTENNA: DELTA H/E/N
     1     1     0                                          WAVELENGTH FACT L1/2
     7    C1    L1    L2    P1    P2    S1    S2            # / TYPES OF OBSERV
     0                                                      INTERVAL
  2005     6    29    16    52    0.000000                  TIME OF FIRST OBS
  2005     6    29    23    45   30.000000                  TIME OF LAST OBS
                                                            END OF HEADER
 05  6 29 16 52  0.0000000  0  7G 1G14G22G15G 3G18G 9
  23536630.9154         -0.35158         0.90255                  23536636.3414
       272.0004          6.0004
  20973133.7054         -0.86359         0.27057                  20973136.1224
       648.0004         46.0004
  20771921.9534         -0.93259         0.36557                  20771922.1174
       850.0004         61.0004
  20066162.5914         -0.66259        -0.91257                  20066165.7634
       873.0004         74.0004
  21994886.5724         -0.19959         0.52356                  21994890.6104
       494.0004         21.0004
  21766423.9554         -0.37359        -0.78156                  21766425.6694
       631.0004         26.0004
  23131769.6604         -1.04858        -0.35655                  23131775.0634
       272.0004          8.0004
 05  6 29 16 52 30.0000000  0  8G 1G14G22G19G15G 3G18G 9
  23512298.1884    -127865.43748    -99634.11245                  23512304.7574
       258.0004          6.0004
  20956821.5364     -85722.94249    -66796.12447                  20956823.9054
       666.0004         46.0004
  20769333.1694     -13605.33549    -10600.45947                  20769333.1834
       850.0004         60.0004
  22930448.7154         -1.16359        -0.58656                  22930451.0064
       321.0004         12.0004
  20064177.9924     -10431.74649     -8129.03647                  20064180.9614
       897.0004         74.0004
  21992282.7424     -13683.30749    -10661.71146                  21992285.8754
       508.0004         18.0004
  21771379.8594      26042.38949     20292.25846                  21771381.4064
       631.0004         26.0004
  23126001.1574     -30314.55348    -23621.24145                  23126005.5884
       280.0004          8.0004
 05  6 29 16 53  0.0000000  0  8G 1G14G22G19G15G 3G18G 9
  23489182.2874    -249347.48048   -194295.34845                  23489188.8474
       288.0004          8.0004
  20941775.9614    -164788.60049   -128405.69647                  20941778.5314
       684.0004         47.0004
  20767957.7214     -20833.63549    -16232.88447                  20767957.8544
       873.0004         61.0004
  22916535.4094     -73117.77249    -56974.53846                  22916537.6594
       329.0004         12.0004
  20063453.1134     -14240.13249    -11096.60847                  20063456.0604
       897.0004         72.0004
  21990959.0234     -20642.03749    -16083.98346                  21990963.1204
       522.0004         23.0004
  21777535.0324      58386.66449     45495.57546                  21777536.4694
       631.0004         25.0004
  23121523.1124     -53848.80148    -41959.60745                  23121527.2274
       288.0004          8.0004
 05  6 29 16 53 30.0000000  0  8G 1G14G22G19G15G 3G18G 9
  23467018.3014    -365816.15348   -285050.05645                  23467024.7844
       272.0004          6.0004
  20927735.7934    -238568.17149   -185896.23947                  20927738.3704
       666.0004         48.0004
  20767534.2684     -23058.28149    -17966.36047                  20767534.3344
       850.0004         61.0004
  22903629.4984    -140937.14349   -109820.77546                  22903631.4084
       321.0004         12.0004
  20063727.7544     -12796.64749     -9971.81747                  20063730.9544
       873.0004         74.0004
  21990653.0784     -22248.93249    -17336.11446                  21990657.2684
       522.0004         23.0004
  21784627.5994      95660.01849     74539.73546                  21784629.3664
       614.0004         25.0004
  23118073.4504     -71974.61248    -56083.59945                  23118078.1254
       272.0004          8.0004
 05  6 29 16 54  0.0000000  0  8G 1G14G22G19G15G 3G18G 9
  23445560.8434    -478573.33148   -372912.69045                  23445566.5754
       272.0004          7.0004
  20914454.4524    -308364.29649   -240282.79647                  20914456.8464
       684.0004         48.0004
  20767814.7924     -21583.97849    -16817.53947                  20767814.8614
       850.0004         61.0004
  22891483.7394    -204761.32748   -159553.87146                  22891486.5844
       304.0004         12.0004
  20064753.8774      -7404.27849     -5769.97447                  20064757.0574
       897.0004         74.0004
  21991117.6194     -19808.81649    -15434.73246                  21991121.4114
       536.0004         23.0004
  21792410.4744     136557.97349    106408.24746                  21792412.1824
       614.0004         25.0004
  23115405.8144     -85994.80848    -67008.40045                  23115410.3834
       280.0004          8.0004
 05  6 29 16 54 30.0000000  0  8G 1G14G22G19G15G 3G18G 9
  23424622.1134    -588612.18949   -458657.17545                  23424626.8134
       321.0004          8.0004
  20901741.3084    -375171.27749   -292340.15947                  20901743.4394
       684.0004         48.0004
  20768609.8894     -17406.88149    -13562.64447                  20768610.0114
       873.0004         61.0004
  22879909.8234    -265584.05048   -206948.17246                  22879912.7924
       312.0004         13.0004
  20066342.2154        942.34249       733.88447                  20066345.2424
       897.0004         72.0004
  21992162.3674     -14318.17449    -11156.32046                  21992166.3394
       536.0004         23.0004
  21800693.0274     180084.30049    140324.84846                  21800694.7244
       598.0004         25.0004
  23113329.9054     -96903.62748    -75508.76745                  23113333.1444
       272.0004          7.0004
 05  6 29 16 55  0.0000000  0  8G 1G14G22G19G15G 3G18G 9
  23404329.4724    -695247.58348   -541749.62445                  23404334.6684
       296.0004          7.0004
  20889727.5094    -438304.57649   -341534.91347                  20889729.7414
       684.0004         49.0004
  20770048.7234      -9844.47649     -7669.85047                  20770048.9394
       850.0004         61.0004
  22869037.8124    -322720.52249   -251470.07146                  22869040.4764
       329.0004         13.0004
  20068622.6294      12927.00049     10072.57347                  20068625.8134
       873.0004         72.0004
  21993916.9774      -5094.83749     -3969.30246                  21993921.3484
       522.0004         23.0004
  21809606.1404     226922.02949    176821.76446                  21809607.7854
       614.0004         24.0004
  23111975.7214    -104017.25348    -81051.80345                  23111980.3474
       272.0004          7.0004
 05  6 29 16 55 30.0000000  0  8G 1G14G22G19G15G 3G18G 9
  23386450.6624    -789201.38748   -614960.29145                  23386456.4214
       288.0004          7.0004
  20880177.8784    -488487.09549   -380638.14947                  20880180.5374
       666.0004         49.0004
  20773897.1654      10378.33949      8088.19947                  20773897.1474
       873.0004         61.0004
  22860631.7544    -366893.07049   -285890.21746                  22860633.2494
       329.0004         13.0004
  20073360.7994      37826.36349     29474.66947                  20073363.9764
       873.0004         74.0004
  21998147.6454      17136.25749     13353.61946                  21998151.4684
       522.0004         23.0004
  21820914.1624     286346.31449    223126.39046                  21820915.3074
       598.0004         23.0004
  23113109.6434     -98058.70448    -76408.74645                  23113114.3054
       272.0004          7.0004
 05  6 29 16 56  0.0000000  0  8G 1G14G22G19G15G 3G18G 9
  23370420.7104    -873442.97648   -680602.98945                  23370426.2144
       304.0004          7.0004
  20872527.6304    -528688.93149   -411964.22047                  20872530.0684
       666.0004         49.0004
  20779589.1214      40289.42549     31395.55447                  20779589.2844
       873.0004         61.0004
  22854127.6764    -401071.34049   -312522.59746                  22854130.0564
       329.0004         14.0004
  20079991.6894      72669.88949     56625.46647                  20079994.7344
       922.0004         74.0004
  22004288.0834      49402.57449     38496.19246                  22004291.5894
       551.0004         24.0004
  21834051.5114     355385.16649    276922.87946                  21834053.0834
       566.0004         23.0004
  23116166.5864     -81998.34448    -63894.16745                  23116169.4424
       288.0004          8.0004
 05  6 29 16 56 30.0000000  0  8G 1G14G22G19G15G 3G18G 9
  23355198.2984    -953434.73748   -742934.16245                  23355203.0574
       288.0004          6.0004
  20865737.2474    -564373.58449   -439770.41547                  20865739.4594
       666.0004         49.0004
  20786084.4184      74423.70549     57993.70747                  20786084.6544
       850.0004         61.0004
  22848485.1694    -430718.14448   -335623.97146                  22848488.3384
       312.0004         15.0004
  20087474.5864     111993.96549     87267.60247                  20087477.6854
       897.0004         74.0004
  22011297.4444      86239.00649     67199.90146                  22011301.2834
       536.0004         24.0004
  21847979.2764     428573.74149    333952.93746                  21847980.2784
       582.0004         22.0004
  23120105.1164     -61299.79148    -47765.41245                  23120110.2514
       288.0004          8.0004
 05  6 29 16 57  0.0000000  0  8G 1G14G22G19G15G 3G18G 9
  23339459.4954   -1036140.62048   -807380.22245                  23339465.4144
       265.0004          6.0004
  20858480.9204    -602505.72949   -469483.75247                  20858483.2174
       666.0004         49.0004
  20792057.7914     105814.36849     82453.97947                  20792057.8324
       850.0004         61.0004
  22842381.7884    -462797.56549   -360620.89546                  22842383.7034
       338.0004         14.0004
  20094484.8944     148833.42549    115973.67347                  20094488.0214
       897.0004         74.0004
  22017850.9624     120678.24649     94035.66946                  22017855.0924
       522.0004         22.0004
  21861370.4134     498945.64949    388788.18146                  21861371.3694
       582.0004         23.0004
  23123601.4014     -42928.19748    -33449.85945                  23123604.5924
       304.0004          7.0004
 05  6 29 16 57 30.0000000  0  8G 1G14G22G19G15G 3G18G 9
  23322818.5864   -1123588.17848   -875521.08245                  23322825.0704
       251.0004          6.0004
  20850372.5924    -645114.22249   -502685.15447                  20850375.1534
       666.0004         51.0004
  20797122.9304     132431.18649    103194.37347                  20797123.3694
       850.0004         61.0004
  22835428.6584    -499337.65349   -389093.66546                  22835429.8284
       357.0004         15.0004
  20100636.1874     181159.55949    141162.86847                  20100639.4224
       873.0004         74.0004
  22023562.1254     150689.40949    117420.97946                  22023566.1404
       522.0004         23.0004
  21873839.8024     564470.50449    439846.50046                  21873841.1054
       598.0004         23.0004
  23126267.8074     -28912.35548    -22528.40545                  23126273.7614
       272.0004          7.0004
 05  6 29 16 58  0.0000000  0  8G 1G14G22G19G15G 3G18G 9
  23305515.8864   -1214511.12448   -946370.03445                  23305523.2074
       238.0004          6.0004
  20841653.6064    -690933.46149   -538388.42947                  20841655.9204
       666.0004         49.0004
  20801519.8194     155537.83749    121199.56947                  20801520.1894
       850.0004         61.0004
  22827867.0514    -539072.91749   -420056.18146                  22827868.8624
       357.0004         15.0004
  20106169.7064     210237.01949    163820.63147                  20106172.8624
       897.0004         74.0004
  22028670.9174     177536.03849    138340.42146                  22028674.6134
       536.0004         23.0004
  21885626.0074     626412.14049    488112.70046                  21885628.3204
       551.0004         21.0004
  23128346.6434     -17987.26748    -14015.30745                  23128350.6324
       280.0004          7.0004
 05  6 29 16 58 30.0000000  0  8G 1G14G22G19G15G 3G18G 9
  23287745.6384   -1307897.63148  -1019138.64645                  23287752.2294
       258.0004          6.0004
  20832515.8934    -738952.61849   -575805.92847                  20832518.3044
       666.0004         51.0004
  20805441.0154     176143.23849    137255.74247                  20805441.3414
       873.0004         61.0004
  22819889.7804    -580992.03349   -452720.40646                  22819892.5934
       357.0004         15.0004
  20111277.1994     237076.32449    184734.37447                  20111280.3274
       897.0004         72.0004
  22033369.2144     202226.81349    157579.97246                  22033373.5014
       508.0004         21.0004
  21896924.1134     685779.94949    534373.31946                  21896925.7994
       582.0004         22.0004
  23130031.0394      -9142.34748     -7123.13745                  23130033.4514
       312.0004          9.0004
 05  6 29 16 59  0.0000000  0  8G 1G14G22G19G15G 3G18G 9
  23269744.7634   -1402497.49048  -1092852.74645                  23269748.6744
       280.0004          6.0004
  20823197.0004    -787922.61049   -613964.34047                  20823199.2594
       666.0004         51.0004
  20809123.2664     195494.67349    152334.79947                  20809123.4334
       850.0004         61.0004
  22811735.6974    -623844.92449   -486112.24746                  22811738.0024
       377.0004         16.0004
  20116195.9844     262926.34549    204877.24547                  20116199.1444
       873.0004         72.0004
  22037894.8344     226008.63849    176111.25346                  22037898.7844
       508.0004         21.0004
  21907968.7524     743821.48049    579600.46746                  21907970.1474
       566.0004         22.0004
  23131554.6834      -1128.77948      -878.76545                  23131558.7334
       258.0004          7.0004
 05  6 29 16 59 30.0000000  0  8G 1G14G22G19G15G 3G18G 9
  23251354.2384   -1499138.68348  -1168157.49745                  23251360.3174
       265.0004          6.0004
  20813539.8884    -838672.27949   -653509.51247                  20813542.0584
       684.0004         52.0004
  20812409.2404     212761.71249    165789.64647                  20812409.2474
       850.0004         60.0004
  22803245.1884    -668460.35049   -520877.48046                  22803247.7734
       367.0004         16.0004
  20120769.2414     286957.72649    223602.99847                  20120772.3244
       897.0004         72.0004
  22042089.5994     248050.20049    193286.48246                  22042093.0164
       522.0004         21.0004
  21918603.2624     799705.84849    623146.72746                  21918604.9134
       566.0004         20.0004
  23132763.6714       5224.03048      4071.50745                  23132767.5974
       265.0004          7.0004
 05  6 29 17  0  0.0000000  0  8G 1G14G22G19G15G 3G18G 9
  23232725.8364   -1597030.38248  -1244436.65845                  23232731.8724
       272.0004          6.0004
  20803694.1014    -890411.67649   -693825.90347                  20803696.3674
       684.0004         52.0004
  20815448.2504     228732.36149    178234.32647                  20815448.3944
       850.0004         60.0004
  22794570.4274    -714047.87049   -556400.19846                  22794572.2544
       377.0004         16.0004
  20125146.4304     309960.05049    241526.88647                  20125149.5354
       873.0004         70.0004
  22046102.5434     269139.22649    209719.47846                  22046106.4474
       508.0004         21.0004
  21928977.1824     854221.75449    665626.63746                  21928978.0934
       566.0004         21.0004
  23133808.1594      10705.60248      8342.87645                  23133809.7184
       312.0004          7.0004
 05  6 29 17  0 30.0000000  0  8G 1G14G22G19G15G 3G18G 9
  23214126.4654   -1694769.71448  -1320597.08845                  23214132.8844
       280.0004          6.0004
  20793926.6994    -941739.31949   -733821.44347                  20793929.0834
       684.0004         54.0004
  20818507.1234     244806.77249    190759.85147                  20818507.2114
       850.0004         60.0004
  22785976.8284    -759205.10949   -591587.63746                  22785979.4024
       367.0004         17.0004
  20129594.4074     333334.43949    259740.69147                  20129597.5694
       873.0004         72.0004
  22050200.6514     290675.14449    226500.70346                  22050205.2954
       494.0004         20.0004
  21939357.6094     908769.17449    708131.11946                  21939358.8264
       566.0004         20.0004
  23134950.5024      16717.27248     13027.31145                  23134955.2384
       258.0004          6.0004
 05  6 29 17  1  0.0000000  0  8G 1G14G22G19G15G 3G18G 9
  23195458.5864   -1792865.73248  -1397035.46945                  23195464.5094
       272.0004          7.0004
  20784141.0424    -993164.90749   -773893.29947                  20784143.3404
       703.0004         54.0004
  20821488.2814     260473.40449    202967.63347                  20821488.2754
       850.0004         60.0004
  22777368.9364    -804441.40949   -626836.68046                  22777371.5884
       377.0004         17.0004
  20134016.0634     356570.74449    277846.89947                  20134019.2114
       873.0004         70.0004
  22054286.5524     312145.98149    243231.20546                  22054290.3374
       508.0004         20.0004
  21949645.9574     962837.03349    750261.90646                  21949647.6544
       551.0004         21.0004
  23136098.5264      22748.93848     17727.33245                  23136101.2354
       272.0004          6.0004
 05  6 29 17  1 30.0000000  0  8G 1G14G22G19G15G 3G18G 9
  23176745.9234   -1891204.74448  -1473663.19945                  23176751.1304
       296.0004          7.0004
  20774357.6754   -1044576.16349   -813953.99547                  20774359.7334
       703.0004         54.0004
  20824413.0984     275843.06149    214944.00247                  20824412.9114
       850.0004         60.0004
  22768766.8614    -849643.87949   -662059.36046                  22768768.9914
       377.0004         17.0004
  20138432.9954     379781.18649    295932.95447                  20138435.9394
       873.0004         68.0004
  22058381.0984     333662.05549    259996.96446                  22058384.6054
       522.0004         21.0004
  21959864.7484    1016536.29549    792105.46646                  21959866.4184
       551.0004         20.0004
  23137272.3394      28912.54048     22530.14745                  23137275.2844
       296.0004          7.0004
 05  6 29 17  2  0.0000000  0  8G 1G14G22G19G15G 3G18G 9
  23158016.8354   -1989627.50448  -1550356.20445                  23158023.0314
       296.0004          7.0004
  20764607.2754   -1095814.68449   -853880.09447                  20764609.3224
       684.0004         54.0004
  20827311.2084     291072.38349    226811.02047                  20827310.9514
       850.0004         60.0004
  22760201.8744    -894653.85749   -697132.04646                  22760204.1934
       387.0004         18.0004
  20142874.6444     403123.68049    314121.90747                  20142877.8054
       850.0004         68.0004
  22062513.6554     355379.42149    276919.58046                  22062517.0424
       508.0004         21.0004
  21970042.9124    1070023.60049    833783.87846                  21970044.4984
       551.0004         21.0004
  23138499.3514      35366.03648     27558.86845                  23138502.5864
       280.0004          7.0004
 05  6 29 17  2 30.0000000  0  8G 1G14G22G19G15G 3G18G 9
  23139285.7704   -2088058.84648  -1627055.89645                  23139290.9764
       296.0004          7.0004
  20754903.7374   -1146806.31149   -893613.80247                  20754905.9094
       684.0004         54.0004
  20830196.1914     306233.59049    238624.95547                  20830195.9634
       850.0004         60.0004
  22751688.1594    -939396.67249   -731996.54746                  22751689.7524
       409.0004         18.0004
  20147355.5474     426671.75849    332471.05747                  20147358.7634
       850.0004         70.0004
  22066698.2854     377370.07249    294055.14146                  22066702.5554
       508.0004         21.0004
  21980194.8714    1123372.10049    875354.13446                  21980196.1724
       566.0004         20.0004
  23139797.0544      42183.02148     32870.83645                  23139800.2604
       304.0004          7.0004
 05  6 29 17  3  0.0000000  0  8G 1G14G22G19G15G 3G18G 9
  23120562.4204   -2186445.09548  -1703720.43445                  23120567.4184
       288.0004          7.0004
  20745257.2434   -1197498.72549   -933114.36147                  20745259.6244
       684.0004         55.0004
  20833078.1194     321378.00049    250425.80147                  20833078.2154
       850.0004         60.0004
  22743234.0864    -983819.01749   -766611.34446                  22743236.3014
       387.0004         17.0004
  20151885.8094     450477.72149    351021.15247                  20151889.1344
       873.0004         70.0004
  22070943.9934     399684.06449    311442.64946                  22070948.1654
       494.0004         22.0004
  21990330.0014    1176632.94749    916856.07746                  21990331.5814
       551.0004         21.0004
  23141174.1524      49415.76249     38506.77145                  23141177.0024
       338.0004          8.0004
 05  6 29 17  3 30.0000000  0  8G 1G14G22G19G15G 3G18G 9
  23101858.5034   -2284736.74048  -1780311.28045                  23101863.8514
       296.0004          8.0004
  20735676.9454   -1247843.39749   -972343.95347                  20735679.1654
       666.0004         54.0004
  20835965.7814     336552.43949    262250.04547                  20835965.6864
       850.0004         60.0004
  22734851.4414   -1027871.83749   -800938.19046                  22734853.6944
       398.0004         18.0004
  20156474.4364     474589.93149    369809.88147                  20156477.4954
       873.0004         70.0004
  22075261.0064     422367.53049    329118.06546                  22075264.5194
       508.0004         22.0004
  22000457.7324    1229853.17449    958326.36346                  22000459.6944
       566.0004         21.0004
  23142637.8314      57112.17148     44504.01745                  23142641.2134
       304.0004          7.0004
 05  6 29 17  4  0.0000000  0  8G 1G14G22G19G15G 3G18G 9
  23083178.1404   -2382902.11648  -1856803.70845                  23083182.0834
       304.0004          8.0004
  20726168.7134   -1297809.45149  -1011278.51547                  20726170.8974
       666.0004         54.0004
  20838864.6074     351786.11449    274120.45147                  20838864.4994
       850.0004         58.0004
  22726544.5334   -1071524.40049   -834953.15046                  22726547.0304
       398.0004         19.0004
  20161126.9044     499038.59449    388860.77847                  20161129.9964
       897.0004         70.0004
  22079653.0914     445449.08849    347103.68146                  22079656.8094
       508.0004         22.0004
  22010582.8894    1283061.85049    999787.64946                  22010584.3684
       566.0004         21.0004
  23144195.8854      65302.50148     50886.12945                  23144200.1234
       296.0004          8.0004
 05  6 29 17  4 30.0000000  0  8G 1G14G22G19G15G 3G18G 9
  23064530.3164   -2480900.15349  -1933165.74345                  23064535.4944
       321.0004          9.0004
  20716739.9384   -1347357.34449  -1049887.24447                  20716742.0704
       666.0004         54.0004
  20841782.0434     367117.21749    286066.77047                  20841782.1444
       850.0004         60.0004
  22718321.9104   -1114736.46749   -868624.87546                  22718323.4224
       409.0004         18.0004
  20165850.8264     523863.20249    408204.61747                  20165854.0494
       897.0004         70.0004
  22084128.2994     468966.33049    365428.79046                  22084132.5284
       508.0004         22.0004
  22020713.5194    1336297.67349   1041270.10346                  22020714.6804
       566.0004         20.0004
  23145857.1364      74026.19049     57683.83545                  23145859.7664
       348.0004          9.0004
 05  6 29 17  5  0.0000000  0  8G 1G14G22G19G15G 3G18G 9
  23045917.9504   -2578706.17548  -2009378.16245                  23045924.5184
       304.0004          9.0004
  20707395.5754   -1396463.48949  -1088151.75047                  20707397.6424
       666.0004         55.0004
  20844722.0514     382568.26049    298106.54847                  20844722.1884
       827.0004         60.0004
  22710186.2874   -1157483.59549   -901934.30346                  22710189.3954
       377.0004         18.0004
  20170650.7384     549087.06849    427859.56947                  20170653.8754
       897.0004         70.0004
  22088690.5504     492940.55949    384109.99446                  22088694.8854
       522.0004         23.0004
  22030853.0924    1389582.91849   1082791.04646                  22030855.3254
       551.0004         21.0004
  23147622.5474      83306.17049     64915.00945                  23147625.7114
       321.0004          9.0004
 05  6 29 17  5 30.0000000  0  8G 1G14G22G19G15G 3G18G 9
  23027343.9904   -2676311.52448  -2085434.19846                  23027350.8264
       296.0004         10.0004
  20698136.3174   -1445120.21249  -1126066.05947                  20698138.4684
       666.0004         55.0004
  20847686.2914     398144.72349    310244.05847                  20847686.5044
       827.0004         58.0004
  22702142.5724   -1199758.06949   -934875.42846                  22702145.0234
       409.0004         17.0004
  20175528.1204     574717.16049    447831.06947                  20175531.2344
       897.0004         70.0004
  22093341.0574     517377.13349    403151.46446                  22093345.0684
       536.0004         23.0004
  22041004.1404    1442924.30749   1124355.74246                  22041005.3324
       582.0004         21.0004
  23149495.5194      93149.51348     72585.17145                  23149499.0544
       304.0004          8.0004
 05  6 29 17  6  0.0000000  0  8G 1G14G22G19G15G 3G18G 9
  23008811.7664   -2773701.01349  -2161322.03246                  23008818.3204
       321.0004         10.0004
  20688965.3094   -1493313.65549  -1163619.38247                  20688967.6844
       648.0004         55.0004
  20850676.6444     413859.38549    322489.25547                  20850676.5384
       827.0004         57.0004
  22694190.7664   -1241544.95049   -967436.61546                  22694192.3284
       398.0004         17.0004
  20180484.9084     600767.39249    468129.94547                  20180488.1304
       873.0004         70.0004
  22098081.1504     542287.74049    422562.30946                  22098084.5744
       522.0004         22.0004
  22051167.8484    1496334.10649   1165973.75446                  22051168.5344
       598.0004         22.0004
  23151478.3224     103569.74248     80704.86345                  23151481.7154
       296.0004          7.0004
 05  6 29 17  6 30.0000000  0  8G 1G14G22G19G15G 3G18G 9
  22990324.2684   -2870852.77849  -2237024.61846                  22990329.8074
       329.0004         10.0004
  20679886.6374   -1541023.12149  -1200795.56547                  20679888.8974
       666.0004         57.0004
  20853697.1914     429731.82949    334857.40147                  20853697.1394
       827.0004         58.0004
  22686335.2304   -1282823.18649   -999601.46046                  22686336.6934
       387.0004         17.0004
  20185526.2054     627258.18349    488772.11247                  20185529.2074
       897.0004         70.0004
  22102915.4924     567691.01949    442357.05146                  22102919.5754
       522.0004         23.0004
  22061347.4944    1549832.08149   1207660.47846                  22061349.3644
       551.0004         20.0004
  23153575.2404     114587.40248     89290.05845                  23153578.6604
       304.0004          7.0004
 05  6 29 17  7  0.0000000  0  8G 1G14G22G19G15G 3G18G 9
  22971881.8434   -2967771.68049  -2312545.77046                  22971886.5804
       348.0004         11.0004
  20670898.9194   -1588254.42049  -1237599.15147                  20670901.0774
       684.0004         57.0004
  20856746.0264     445754.47949    347342.58947                  20856745.9924
       827.0004         57.0004
  22678576.0274   -1323598.30849  -1031374.26646                  22678578.2404
       387.0004         18.0004
  20190650.0744     654183.26149    509752.68847                  20190652.9544
       897.0004         70.0004
  22107841.0974     593578.48749    462529.08346                  22107845.1904
       508.0004         22.0004
  22071543.4874    1603410.99649   1249410.25846                  22071544.4614
       551.0004         20.0004
  23155783.5034     126195.79648     98335.54545                  23155787.3684
       288.0004          7.0004
 05  6 29 17  7 30.0000000  0  8G 1G14G22G19G15G 3G18G 9
  22953484.2744   -3064449.61549  -2387879.13846                  22953489.3704
       338.0004         11.0004
  20662003.2904   -1635000.68949  -1274024.78847                  20662005.3724
       666.0004         57.0004
  20859824.8454     461933.15449    359949.35747                  20859824.8344
       827.0004         57.0004
  22670914.3634   -1363862.96249  -1062749.29646                  22670916.5064
       398.0004         18.0004
  20195857.5844     681549.15649    531076.75647                  20195860.7064
       897.0004         70.0004
  22112860.7474     619955.04649    483082.22346                  22112864.7364
       522.0004         22.0004
  22081755.7304    1657076.61149   1291227.60846                  22081757.2114
       551.0004         19.0004
  23158106.4724     138401.38348    107846.39945                  23158109.2854
       280.0004          8.0004
 05  6 29 17  8  0.0000000  0  8G 1G14G22G19G15G 3G18G 9
  22935126.7444   -3160921.60249  -2463052.03746                  22935131.4904
       357.0004         11.0004
  20653193.2994   -1681298.42049  -1310100.91847                  20653195.4894
       684.0004         57.0004
  20862926.1994     478230.58449    372648.66047                  20862926.1024
       827.0004         57.0004
  22663342.4094   -1403652.57549  -1093754.17746                  22663343.9104
       398.0004         18.0004
  20201141.9314     709319.39849    552715.89847                  20201145.0974
       873.0004         68.0004
  22117965.8304     646782.31049    503986.56546                  22117969.5494
       522.0004         22.0004
  22091977.8824    1710791.93949   1333083.69446                  22091979.5474
       566.0004         21.0004
  23160535.7144     151167.57148    117794.10345                  23160539.2614
       272.0004          8.0004
 05  6 29 17  8 30.0000000  0  8G 1G14G22G19G15G 3G18G 9
  22916828.5284   -3257077.48049  -2537978.62946                  22916833.3254
       357.0004         10.0004
  20644489.3074   -1727038.33449  -1345742.38747                  20644491.4184
       703.0004         58.0004
  20866070.2224     494753.69549    385523.81747                  20866070.4554
       827.0004         57.0004
  22655882.1644   -1442857.88349  -1124303.75246                  22655883.7264
       398.0004         18.0004
  20206524.0684     737602.74349    574754.85947                  20206527.1724
       873.0004         68.0004
  22123176.7464     674166.94649    525325.21346                  22123180.7944
       508.0004         21.0004
  22102228.4174    1764664.30449   1375062.14646                  22102230.7124
       508.0004         19.0004
  23163092.1204     164602.93148    128263.24545                  23163095.2124
       265.0004          8.0004
 05  6 29 17  9  0.0000000  0  8G 1G14G22G19G15G 3G18G 9
  22898588.3144   -3352929.68449  -2612668.57946                  22898591.4934
       357.0004         11.0004
  20635888.7344   -1772234.22449  -1380959.94347                  20635890.7164
       684.0004         57.0004
  20869254.4964     511487.74349    398563.33847                  20869254.8294
       805.0004         57.0004
  22648530.2844   -1481492.19149  -1154408.39746                  22648532.2034
       398.0004         17.0004
  20212001.2344     766385.03249    597182.61647                  20212004.2774
       873.0004         67.0004
  22128491.1574     702093.01449    547085.75946                  22128495.2254
       508.0004         21.0004
  22112508.0534    1818679.53049   1417151.91946                  22112509.6654
       536.0004         19.0004
  23165773.7564     178692.86148    139242.43145                  23165778.4064
       265.0004          8.0004
 05  6 29 17  9 30.0000000  0  8G 1G14G22G19G15G 3G18G 9
  22880388.4754   -3448569.37849  -2687192.94346                  22880392.8024
       348.0004         10.0004
  20627374.2244   -1816978.61249  -1415825.68047                  20627376.0424
       703.0004         58.0004
  20872461.1564     528339.15949    411694.31647                  20872461.4894
       805.0004         57.0004
  22641269.7014   -1519647.14549  -1184139.52046                  22641271.6134
       398.0004         17.0004
  20217555.6724     795573.73849    619927.06047                  20217558.7244
       873.0004         68.0004
  22133890.1144     730465.89749    569194.47746                  22133894.2944
       494.0004         20.0004
  22122795.6404    1872743.81549   1459279.92246                  22122797.7024
       522.0004         19.0004
  23168561.3064     193344.59748    150659.39745                  23168565.3474
       251.0004          6.0004
 05  6 29 17 10  0.0000000  0  8G 1G14G22G19G15G 3G18G 9
  22862236.3804   -3543955.86649  -2761520.00346                  22862240.6644
       329.0004         10.0004
  20618953.0344   -1861232.01849  -1450308.83247                  20618954.9534
       703.0004         60.0004
  20875697.7324     545346.26149    424946.61347                  20875697.6434
       805.0004         57.0004
  22634108.2294   -1557283.00549  -1213466.15246                  22634110.1344
       409.0004         18.0004
  20223194.6814     825208.12049    643018.78047                  20223197.8654
       850.0004         67.0004
  22139381.8904     759322.64049    591680.22646                  22139385.7244
       508.0004         20.0004
  22133100.6984    1926895.76449   1501476.22946                  22133102.2824
       508.0004         18.0004
  23171464.5414     208597.01948    162544.41245                  23171470.5814
       258.0004          5.0004
 05  6 29 17 10 30.0000000  0  8G 1G14G22G19G15G 3G18G 9
  22844126.4724   -3639125.20749  -2835677.85645                  22844131.4134
       338.0004          9.0004
  20610618.1864   -1905031.40349  -1484438.20247                  20610620.2454
       703.0004         60.0004
  20878956.2974     562470.83649    438290.44447                  20878956.5644
       805.0004         57.0004
  22627037.2524   -1594436.32849  -1242416.77746                  22627039.0834
       387.0004         17.0004
  20228911.5184     855250.64349    666428.53547                  20228914.7644
       850.0004         67.0004
  22144957.6564     788623.98449    614512.41146                  22144961.7394
       508.0004         20.0004
  22143414.7184    1981097.12949   1543711.04346                  22143415.9674
       508.0004         17.0004
  23174472.8714     224412.21148    174867.90945                  23174484.2894
       238.0004          4.0004
 05  6 29 17 11  0.0000000  0  8G 1G14G22G19G15G 3G18G 9
  22826072.3704   -3734001.65549  -2909607.50145                  22826077.0084
       348.0004          9.0004
  20602383.9364   -1948302.63649  -1518156.02547                  20602385.8274
       703.0004         60.0004
  20882251.4244     579785.83249    451782.65747                  20882251.3864
       827.0004         57.0004
  22620073.4334   -1631032.35349  -1270933.14946                  22620075.3184
       387.0004         17.0004
  20234720.6304     885775.29649    690213.97447                  20234723.7564
       873.0004         68.0004
  22150631.6204     818441.95749    637747.16546                  22150635.9644
       494.0004         19.0004
  22153752.4044    2035421.87949   1586042.00946                  22153753.9884
       508.0004         18.0004
  23177604.7334     240864.10648    187687.52745                  23177610.2074
       288.0004          5.0004
 05  6 29 17 11 30.0000000  0  8G 1G14G22G19G15G 3G18G 9
  22808076.4834   -3828567.84449  -2983295.38346                  22808082.4994
       338.0004         10.0004
  20594253.4254   -1991029.78749  -1551449.89147                  20594255.3074
       703.0004         60.0004
  20885585.4014     597305.94449    465434.70147                  20885585.2314
       827.0004         55.0004
  22613218.6394   -1667054.48749  -1299002.33746                  22613221.7534
       377.0004         17.0004
  20240623.8594     916797.99449    714387.50047                  20240626.9814
       873.0004         68.0004
  22156406.8954     848790.46249    661395.32146                  22156410.5204
       494.0004         19.0004
  22164116.5194    2089884.47249   1628480.37346                  22164117.6454
       508.0004         18.0004
  23180859.2834     257968.11648    201014.20246                  23180858.8054
       280.0004         14.0004
 05  6 29 17 12  0.0000000  0  8G 1G14G22G19G15G 3G18G 9
  22790120.8864   -3922921.27049  -3056817.46446                  22790126.8294
       321.0004         10.0004
  20586207.4554   -2033311.39749  -1584396.58147                  20586209.4234
       703.0004         60.0004
  20888939.7104     614931.71449    479169.07847                  20888939.5444
       827.0004         57.0004
  22606454.9104   -1702600.85749  -1326700.79646                  22606456.8434
       398.0004         17.0004
  20246603.0094     948219.68149    738871.92147                  20246606.3114
       873.0004         68.0004
  22162263.8894     879568.50649    685378.18746                  22162267.9694
       494.0004         19.0004
  22174487.4384    2144385.23349   1670948.48846                  22174489.1254
       508.0004         17.0004
  23184219.7244     275625.11148    214773.04546                  23184218.7504
       288.0004         10.0004
 05  6 29 17 12 30.0000000  0  8G 1G14G22G19G15G 3G18G 9
  22772217.4284   -4017008.78949  -3130132.35745                  22772222.6004
       338.0004          9.0004
  20578256.2284   -2075095.81849  -1616955.84847                  20578258.0844
       703.0004         61.0004
  20892323.3174     632713.86449    493025.30647                  20892323.1324
       805.0004         55.0004
  22599791.4204   -1737619.28249  -1353987.86146                  22599792.8364
       398.0004         16.0004
  20252668.4074     980091.89049    763707.40347                  20252671.5674
       897.0004         70.0004
  22168212.0594     910825.82849    709734.50946                  22168215.7434
       494.0004         20.0004
  22184875.9394    2198975.28349   1713486.16946                  22184877.4784
       494.0004         17.0004
  23187694.0994     293886.28848    229002.64445                  23187697.5124
       288.0004          6.0004
 05  6 29 17 13  0.0000000  0  8G 1G14G22G19G15G 3G18G 9
  22754368.0974   -4110811.37549  -3203225.22245                  22754372.6604
       348.0004          9.0004
  20570402.7174   -2116365.23049  -1649113.81347                  20570404.4504
       703.0004         61.0004
  20895740.0614     650668.95649    507016.29247                  20895739.8124
       805.0004         57.0004
  22593230.2064   -1772091.15649  -1380849.05946                  22593232.4604
       367.0004         16.0004
  20258822.7904    1012432.26949    788907.68947                  20258825.8454
       922.0004         70.0004
  22174254.4614     942577.71149    734476.20246                  22174257.9924
       494.0004         18.0004
  22195284.2194    2253671.75549   1756106.79146                  22195286.0504
       494.0004         17.0004
  23191288.0304     312768.76048    243716.21645                  23191291.5364
       296.0004          6.0004
 05  6 29 17 13 30.0000000  0  8G 1G14G22G19G15G 3G18G 9
  22736572.2284   -4204322.98249  -3276091.34545                  22736576.9804
       329.0004          9.0004
  20562647.9754   -2157114.90949  -1680866.79447                  20562649.9324
       684.0004         61.0004
  20899190.4244     668800.57249    521144.83347                  20899190.3054
       827.0004         57.0004
  22586775.8964   -1806011.58949  -1407280.55746                  22586778.7484
       377.0004         17.0004
  20265066.7394    1045245.34349    814476.30647                  20265069.7644
       897.0004         68.0004
  22180390.3814     974826.63349    759605.19846                  22180394.8214
       468.0004         19.0004
  22205713.0774    2308478.60849   1798813.39846                  22205715.0704
       468.0004         16.0004
  23194999.6334     332276.44648    258917.00345                  23195002.7444
       280.0004          6.0004
 05  6 29 17 14  0.0000000  0  8G 1G14G22G19G15G 3G18G 9
  22718832.5534   -4297546.79649  -3348733.23345                  22718836.9284
       348.0004          9.0004
  20554991.8324   -2197349.28349  -1712218.24147                  20554993.7424
       684.0004         61.0004
  20902673.2674     687103.54049    535406.89047                  20902673.2364
       805.0004         57.0004
  22580425.8684   -1839384.67349  -1433285.54946                  22580428.1364
       398.0004         18.0004
  20271400.0144    1078526.39449    840409.58447                  20271403.0394
       922.0004         70.0004
  22186620.9014    1007565.89749    785116.28546                  22186624.4764
       481.0004         19.0004
  22216163.0524    2363390.29049   1841601.70746                  22216164.6454
       508.0004         17.0004
  23198830.2934     352404.37748    274601.12345                  23198832.4934
       296.0004          7.0004
 05  6 29 17 14 30.0000000  0  8G 1G14G22G19G15G 3G18G 9
  22701146.8274   -4390485.90849  -3421153.26946                  22701152.2134
       357.0004         10.0004
  20547432.9104   -2237072.82749  -1743171.63347                  20547434.8644
       703.0004         63.0004
  20906187.7814     705572.21749    549798.07447                  20906187.9434
       805.0004         57.0004
  22574178.4154   -1872214.11949  -1458866.92946                  22574180.1044
       398.0004         17.0004
  20277821.1714    1112270.67349    866703.81647                  20277824.3264
       922.0004         70.0004
  22192943.1584    1040789.14149    811004.49746                  22192947.0974
       494.0004         19.0004
  22226631.2324    2418401.80849   1884467.81546                  22226632.3094
       494.0004         16.0004
  23202777.2674     373147.57748    290764.64445                  23202780.4884
       296.0004          7.0004
 05  6 29 17 15  0.0000000  0  8G 1G14G22G19G15G 3G18G 9
  22683515.9074   -4483138.52549  -3493350.06046                  22683519.9534
       377.0004         11.0004
  20539970.8154   -2276285.36149  -1773726.83447                  20539972.7074
       684.0004         65.0004
  20909733.5684     724205.97949    564317.89047                  20909733.6494
       805.0004         55.0004
  22568035.0284   -1904499.21949  -1484024.14346                  22568036.3534
       409.0004         18.0004
  20284330.6544    1146478.33249    893359.12247                  20284333.8344
       897.0004         68.0004
  22199357.1254    1074494.24449    837268.18246                  22199361.2454
       494.0004         19.0004
  22237118.5254    2473512.81049   1927411.43846                  22237119.8674
       494.0004         16.0004
  23206841.6644     394505.68748    307407.34845                  23206844.8754
       288.0004          8.0004
 05  6 29 17 15 30.0000000  0  8G 1G14G22G19G15G 3G18G 9
  22665936.9004   -4575513.40749  -3565330.42346                  22665941.3574
       367.0004         12.0004
  20532604.2674   -2314996.54249  -1803891.37647                  20532606.2004
       684.0004         65.0004
  20913308.9544     742994.44749    578958.26247                  20913308.7704
       805.0004         55.0004
  22561992.2974   -1936249.49849  -1508764.61246                  22561994.0654
       387.0004         18.0004
  20290926.4364    1181139.14149    920367.53547                  20290929.3454
       897.0004         68.0004
  22205860.0094    1108669.06549    863897.88346                  22205863.8204
       481.0004         19.0004
  22247622.6204    2528712.78349   1970424.40046                  22247623.8184
       508.0004         16.0004
  23211020.8114     416468.27848    324521.07145                  23211024.2664
       280.0004          7.0004
 05  6 29 17 16  0.0000000  0  8G 1G14G22G19G15G 3G18G 9
  22648412.8814   -4667606.16449  -3637090.95646                  22648417.2724
       398.0004         13.0004
  20525333.6854   -2353203.86349  -1833663.29947                  20525335.5094
       684.0004         65.0004
  20916914.0844     761939.20349    593720.41847                  20916913.9414
       805.0004         55.0004
  22556053.0754   -1967461.62449  -1533085.74546                  22556054.9624
       398.0004         17.0004
  20297608.8734    1216255.73449    947731.10747                  20297612.0764
       897.0004         67.0004
  22212452.6784    1143314.28349    890894.11746                  22212456.7894
       468.0004         19.0004
  22258144.4114    2584003.52249   2013508.08246                  22258146.4584
       522.0004         18.0004
  23215315.4074     439037.66848    342107.61345                  23215319.3964
       280.0004          7.0004
 05  6 29 17 16 30.0000000  0  8G 1G14G22G19G15G 3G18G 9
  22630944.4484   -4759403.40649  -3708621.21946                  22630949.0794
       409.0004         13.0004
  20518161.2884   -2390894.97349  -1863032.98147                  20518163.2174
       684.0004         63.0004
  20920550.9194     781051.09349    608612.80647                  20920551.0174
       805.0004         57.0004
  22550218.2834   -1998122.94849  -1556977.67946                  22550219.9494
       398.0004         18.0004
  20304380.1184    1251839.84149    975458.97347                  20304383.2794
       873.0004         67.0004
  22219137.1774    1178439.52749    918264.40446                  22219141.0274
       481.0004         19.0004
  22268685.5324    2639396.53149   2056671.44846                  22268687.0604
       522.0004         18.0004
  23219728.2224     462224.85548    360175.54145                  23219732.6394
       296.0004          7.0004
 05  6 29 17 17  0.0000000  0  7G 1G19G14G22G15G 3G18
  22613531.9594   -4850903.32649  -3779919.81246                  22613537.0194
       409.0004         14.0004
  22544488.4214   -2028232.47049  -1580439.64146                  22544490.9374
       398.0004         19.0004
  20511087.2194   -2428069.41549  -1892000.06447                  20511089.1514
       684.0004         63.0004
  20924219.4714     800330.05449    623635.37347                  20924219.5794
       784.0004         54.0004
  20311240.9884    1287891.78649   1003551.39147                  20311243.9464
       897.0004         67.0004
  22225912.3474    1214043.26249    946007.54446                  22225916.3194
       481.0004         20.0004
  22279245.3964    2694891.67849   2099914.40946                  22279247.0124
       494.0004         17.0004
 05  6 29 17 17 30.0000000  0  7G 1G19G 3G14G22G15G18
  22596174.9204   -4942116.40349  -3850994.88146                  22596179.6964
       420.0004         15.0004
  22538861.5684   -2057801.65249  -1603480.55646                  22538863.3034
       398.0004         19.0004
  22232776.0964    1250111.39149    974112.55646                  22232780.0714
       494.0004         19.0004
  20504109.1684   -2464739.35449  -1920574.02347                  20504111.0434
       684.0004         63.0004
  20927917.5514     819763.35649    638778.21047                  20927917.6684
       805.0004         55.0004
  20318187.9254    1324399.62849   1031999.05247                  20318190.9804
       850.0004         65.0004
  22289822.9924    2750476.30149   2143227.08646                  22289825.1294
       494.0004         17.0004
 05  6 29 17 18  0.0000000  0  7G 1G19G14G22G15G 3G18
  22578875.5064   -5033026.05249  -3921833.51246                  22578880.5714
       420.0004         15.0004
  22533341.4414   -2086814.75549  -1626088.16246                  22533343.1124
       420.0004         19.0004
  20497230.0854   -2500889.52249  -1948742.96847                  20497232.0074
       684.0004         63.0004
  20931647.5584     839365.37449    654052.51647                  20931647.6194
       784.0004         55.0004
  20325224.7544    1361378.50749   1060813.74947                  20325227.9094
       850.0004         63.0004
  22239730.4164    1286656.85849   1002589.51046                  22239734.5854
       494.0004         20.0004
  22300419.8354    2806165.42849   2186621.19046                  22300422.7114
       468.0004         16.0004
 05  6 29 17 18 30.0000000  0  7G 1G19G 3G14G22G15G18
  22561631.5914   -5123644.90049  -3992445.54746                  22561636.0934
       432.0004         15.0004
  22527923.3324   -2115285.57249  -1648273.20346                  22527925.4154
       420.0004         20.0004
  22246772.2684    1323663.23849   1031425.61346                  22246776.6024
       481.0004         20.0004
  20490447.2064   -2536534.04449  -1976517.90647                  20490449.0204
       684.0004         61.0004
  20935407.3134     859121.46149    669446.87747                  20935407.2474
       805.0004         55.0004
  20332348.3814    1398814.01149   1089984.26047                  20332351.7384
       850.0004         65.0004
  22311035.1934    2861944.29049   2230085.22146                  22311036.5074
       508.0004         16.0004
 05  6 29 17 19  0.0000000  0  7G 1G14G22G19G15G 3G18
  22544442.1384   -5213977.46649  -4062834.50846                  22544446.0324
       432.0004         15.0004
  20483759.3214   -2571678.76849  -2003903.38947                  20483761.1894
       684.0004         61.0004
  20939194.4894     879024.44349    684955.70047                  20939194.6054
       784.0004         54.0004
  22522608.1674   -2143219.45349  -1670039.86646                  22522609.9614
       444.0004         21.0004
  20339557.9194    1436699.94349   1119505.75947                  20339561.0824
       850.0004         63.0004
  22253900.5134    1361122.35449   1060614.49846                  22253904.7414
       481.0004         18.0004
  22321664.9244    2917806.35149   2273614.09046                  22321666.4544
       494.0004         15.0004
 05  6 29 17 19 30.0000000  0  7G 1G19G 3G14G22G15G18
  22527307.5054   -5304016.58249  -4132994.81546                  22527312.0464
       409.0004         14.0004
  22517395.8674   -2170610.32349  -1691383.40246                  22517397.2924
       444.0004         21.0004
  22261115.4134    1399037.77749   1090158.94946                  22261119.0934
       468.0004         18.0004
  20477167.7394   -2606318.24449  -2030895.17047                  20477169.5674
       684.0004         61.0004
  20943011.0584     899079.50349    700583.02547                  20943011.0094
       805.0004         55.0004
  20346854.3054    1475041.69849   1149382.44347                  20346857.4434
       850.0004         63.0004
  22332311.9914    2973756.71549   2317211.76546                  22332313.9284
       494.0004         16.0004
 05  6 29 17 20  0.0000000  0  7G 1G19G14G22G15G 3G18
  22510232.9614   -5393741.24349  -4202910.07946                  22510237.9264
       377.0004         14.0004
  22512289.5904   -2197438.40749  -1712288.40546                  22512291.4874
       420.0004         20.0004
  20470675.9724   -2640432.85849  -2057477.96647                  20470677.7854
       684.0004         61.0004
  20946860.3014     919305.44749    716343.50647                  20946859.9524
       827.0004         57.0004
  20354240.8074    1513858.48449   1179629.27447                  20354243.9544
       873.0004         65.0004
  22268421.0584    1437426.66249   1120072.33946                  22268424.7944
       494.0004         19.0004
  22342979.5774    3029814.44849   2360893.09446                  22342981.3904
       494.0004         16.0004
 05  6 29 17 20 30.0000000  0  7G 1G19G 3G14G22G15G18
  22493218.8394   -5483154.36049  -4272582.57646                  22493223.6624
       398.0004         14.0004
  22507291.2514   -2223707.40549  -1732757.75446                  22507293.0414
       432.0004         20.0004
  22275815.0254    1476282.55549   1150349.62646                  22275819.6524
       481.0004         19.0004
  20464283.1354   -2674026.95049  -2083655.16447                  20464284.8604
       666.0004         61.0004
  20950740.3054     939697.35049    732233.29947                  20950740.2984
       805.0004         54.0004
  20361717.0624    1553146.10749   1210242.99247                  20361720.1514
       873.0004         65.0004
  22353666.9004    3085974.80049   2404654.40146                  22353668.0494
       508.0004         16.0004
 05  6 29 17 21  0.0000000  0  7G 1G19G14G22G15G 3G18
  22476262.9274   -5572259.22849  -4342014.89246                  22476267.6244
       409.0004         14.0004
  22502398.2834   -2249421.62149  -1752794.80746                  22502399.8104
       444.0004         21.0004
  20457988.2654   -2707105.12349  -2109430.34847                  20457990.2854
       648.0004         60.0004
  20954651.2144     960249.83049    748248.21547                  20954651.1684
       805.0004         55.0004
  20369281.8394    1592899.28149   1241219.47947                  20369284.9364
       873.0004         63.0004
  22283296.2284    1515598.63049   1180985.49546                  22283300.9064
       468.0004         18.0004
  22364371.6574    3142232.60349   2448491.63246                  22364373.5704
       468.0004         16.0004
 05  6 29 17 21 30.0000000  0  7G 1G19G 3G14G22G15G18
  22459359.8944   -5661083.50849  -4411228.57146                  22459363.8574
       409.0004         15.0004
  22497604.7874   -2274609.65249  -1772421.84746                  22497606.0274
       432.0004         20.0004
  22290859.9674    1555343.48249   1211955.47946                  22290864.1794
       468.0004         17.0004
  20451786.4254   -2739696.86249  -2134826.48947                  20451788.2154
       666.0004         61.0004
  20958587.4424     980933.18849    764365.11947                  20958587.2064
       827.0004         57.0004
  20376929.6104    1633088.66649   1272535.87247                  20376932.6924
       873.0004         63.0004
  22375090.2914    3198558.04749   2492381.56446                  22375092.0224
       481.0004         16.0004
 05  6 29 17 22  0.0000000  0  7G 1G19G14G22G15G 3G18
  22442514.3694   -5749606.07049  -4480207.14146                  22442518.7564
       398.0004         14.0004
  22492915.0514   -2299251.63349  -1791623.38546                  22492916.8754
       409.0004         20.0004
  20445680.8394   -2771782.36949  -2159828.16147                  20445682.6254
       666.0004         61.0004
  20962551.4974    1001766.36749    780598.76347                  20962551.4344
       805.0004         55.0004
  20384664.0174    1673733.75549   1304207.34847                  20384667.2154
       873.0004         65.0004
  22298507.4844    1595534.45249   1243273.08946                  22298511.7534
       456.0004         18.0004
  22385825.2124    3254970.73249   2536339.49646                  22385826.4024
       481.0004         15.0004
 05  6 29 17 22 30.0000000  0  7G 1G19G 3G14G22G15G18
  22425730.0744   -5837809.30849  -4548936.89146                  22425734.2964
       409.0004         14.0004
  22488332.9764   -2323330.80149  -1810386.37846                  22488335.4714
       409.0004         20.0004
  22306243.3984    1636185.49249   1274949.19346                  22306247.9224
       468.0004         18.0004
  20439674.1764   -2803345.73749  -2184422.97747                  20439676.0624
       648.0004         61.0004
  20966547.5684    1022764.81649    796961.18647                  20966547.5704
       805.0004         55.0004
  20392488.4934    1714850.72249   1336246.52847                  20392491.6674
       873.0004         67.0004
  22396579.8354    3311486.24249   2580377.54146                  22396581.1394
       481.0004         15.0004
 05  6 29 17 23  0.0000000  0  7G 1G19G14G22G15G 3G18
  22409006.8604   -5925686.83449  -4617412.83446                  22409012.0884
       398.0004         14.0004
  22483859.7704   -2346841.98849  -1828706.78046                  22483861.7424
       432.0004         21.0004
  20433768.3224   -2834381.88849  -2208606.97647                  20433770.1064
       666.0004         63.0004
  20970575.7034    1043932.93549    813455.82447                  20970575.5904
       805.0004         54.0004
  20400403.3224    1756444.03049   1368656.88247                  20400406.4784
       873.0004         63.0004
  22314066.8434    1677299.14949   1306985.78546                  22314071.3744
       456.0004         17.0004
  22407355.3504    3368108.90549   2624499.07346                  22407356.7694
       508.0004         16.0004
 05  6 29 17 23 30.0000000  0  7G 1G19G 3G14G22G15G18
  22392343.3414   -6013254.14149  -4685647.04146                  22392348.6374
       398.0004         14.0004
  22479491.0884   -2369801.62249  -1846597.41046                  22479493.0664
       444.0004         21.0004
  22321975.5044    1718856.42649   1339368.04546                  22321979.9914
       468.0004         18.0004
  20427959.6404   -2864907.84549  -2232393.41847                  20427961.4834
       684.0004         65.0004
  20974632.8194    1065253.15749    830068.98147                  20974632.8894
       805.0004         54.0004
  20408405.7394    1798496.83849   1401425.29947                  20408408.9154
       873.0004         61.0004
  22418147.0344    3424822.14549   2668691.19546                  22418148.8224
       481.0004         16.0004
 05  6 29 17 24  0.0000000  0  7G 1G14G22G19G15G 3G18
  22375736.2444   -6100525.07349  -4753650.31446                  22375741.3884
       409.0004         15.0004
  20422244.6894   -2894938.89049  -2255794.21347                  20422246.5904
       666.0004         65.0004
  20978715.9814    1086709.85549    846788.48847                  20978715.9784
       827.0004         55.0004
  22475223.4824   -2392224.63849  -1864069.88446                  22475225.2914
       420.0004         20.0004
  20416492.5454    1840993.62749   1434539.66647                  20416495.6664
       850.0004         61.0004
  22329964.7314    1760839.72249   1372082.27446                  22329968.6564
       481.0004         17.0004
  22428953.1154    3481610.21049   2712941.62446                  22428954.8524
       456.0004         15.0004
 05  6 29 17 24 30.0000000  0  7G 1G19G 3G14G22G15G18
  22359185.8634   -6187502.38549  -4821424.78946                  22359190.2144
       444.0004         15.0004
  22471057.9524   -2414114.91349  -1881127.24046                  22471059.8864
       409.0004         20.0004
  22338033.4374    1803242.62549   1405123.46546                  22338037.6504
       456.0004         17.0004
  20416623.2024   -2924479.46949  -2278812.82747                  20416625.0274
       666.0004         65.0004
  20982824.2104    1108298.16949    863610.54947                  20982824.0624
       827.0004         55.0004
  20424663.1104    1883929.81949   1467996.42147                  20424666.1954
       850.0004         60.0004
  22439772.7084    3538468.35949   2757246.65046                  22439774.7714
       444.0004         15.0004
 05  6 29 17 25  0.0000000  0  7G22G 1G14G19G15G 3G18
  20986965.1664    1130059.32549    880567.29547                  20986964.9524
       827.0004         55.0004
  22342698.4924   -6274142.78249  -4888936.73346                  22342702.4504
       444.0004         15.0004
  20411103.1434   -2953488.11449  -2301416.95047                  20411104.9384
       666.0004         65.0004
  22467001.8864   -2435430.39849  -1897736.70446                  22467004.0674
       420.0004         20.0004
  20432925.0844    1927346.98549   1501827.96647                  20432928.3124
       827.0004         60.0004
  22346189.5624    1846104.66449   1438522.42246                  22346194.3174
       444.0004         16.0004
  22450613.7884    3595437.69649   2801638.32846                  22450616.1314
       456.0004         15.0004
 05  6 29 17 25 30.0000000  0  8G22G 1G14G19G15G 3G18G25
  20991137.2384    1151983.64849    897651.17947                  20991137.1194
       827.0004         54.0004
  22326273.7294   -6360453.95949  -4956192.14646                  22326278.1334
       444.0004         16.0004
  20405682.6424   -2981973.71249  -2323613.50547                  20405684.4474
       666.0004         67.0004
  22463053.9774   -2456179.94449  -1913905.17846                  22463055.8724
       432.0004         20.0004
  20441276.8164    1971235.62049   1536026.88947                  20441279.9944
       827.0004         58.0004
  22354431.9354    1889414.32249   1472270.17446                  22354436.3134
       468.0004         17.0004
  22461474.4254    3652509.43949   2846109.80646                  22461475.5474
       456.0004         14.0004
  24707940.7984         -0.98158
       131.0004          1.0004
 05  6 29 17 26  0.0000000  0  8G22G 1G14G19G15G 3G18G25
  20995334.6524    1174042.06549    914839.55347                  20995334.3254
       827.0004         54.0004
  22309906.5384   -6446463.29549  -5023212.36146                  22309911.2314
       456.0004         16.0004
  20400355.7504   -3009965.38249  -2345425.18147                  20400357.8484
       666.0004         67.0004
  22459206.6264   -2476392.12449  -1929654.92846                  22459209.2194
       398.0004         20.0004
  20449712.7884    2015566.71749   1570570.58847                  20449715.9964
       827.0004         57.0004
  22362752.7264    1933140.44549   1506342.44246                  22362756.7324
       468.0004         17.0004
  22472348.5154    3709654.19649   2890638.16646                  22472349.6284
       444.0004         14.0004
  24688837.9444    -100381.53748
       108.0004          1.0004
 05  6 29 17 26 30.0000000  0  8G22G 1G14G19G15G 3G18G25
  20999558.2234    1196237.48449    932134.68647                  20999557.9154
       827.0004         54.0004
  22293597.4424   -6532165.51349  -5089993.26346                  22293602.4364
       432.0004         17.0004
  20395123.9594   -3037459.57649  -2366849.21247                  20395125.7324
       666.0004         67.0004
  22455463.1104   -2496062.60249  -1944982.57546                  22455465.7304
       387.0004         19.0004
  20458233.5414    2060343.89249   1605461.88347                  20458236.9104
       805.0004         57.0004
  22371152.7684    1977284.81249   1540740.60646                  22371156.4574
       456.0004         17.0004
  22483237.6964    3766875.39849   2935226.10446                  22483239.5794
       456.0004         15.0004
  24669718.1794    -200862.53548
       100.0004          1.0004
 05  6 29 17 27  0.0000000  0  8G22G 1G14G19G15G 3G18G25
  21003813.5454    1218599.52349    949559.66247                  21003813.2724
       827.0004         54.0004
  22277353.6834   -6617529.41349  -5156510.53946                  22277358.0554
       444.0004         17.0004
  20389992.2544   -3064426.49349  -2387862.38147                  20389993.8214
       666.0004         67.0004
  22451829.3894   -2515161.39849  -1959864.76546                  22451831.4234
       398.0004         19.0004
  20466844.6094    2105596.50949   1640723.65047                  20466847.9434
       805.0004         57.0004
  22379637.8334    2021874.82349   1575486.02546                  22379641.7934
       456.0004         17.0004
  22494146.7374    3824202.66649   2979896.68746                  22494148.6424
       456.0004         13.0004
  24650582.5674    -301412.08448
       103.0004          1.0004
 05  6 29 17 27 30.0000000  0  8G22G 1G14G19G15G 3G18G25
  21008099.0734    1241118.31549    967106.77047                  21008098.7334
       850.0004         55.0004
  22261172.1514   -6702562.79849  -5222770.26146                  22261176.5254
       444.0004         17.0004
  20384959.2854   -3090875.81349  -2408472.22647                  20384961.1144
       666.0004         67.0004
  22448301.9974   -2533697.64949  -1974308.59546                  22448304.1544
       409.0004         19.0004
  20475544.8704    2151315.14349   1676348.54347                  20475548.0354
       827.0004         57.0004
  22388205.9734    2066898.76849   1610569.58746                  22388210.5644
       468.0004         18.0004
  22505074.1324    3881626.67549   3024642.65046                  22505076.0914
       444.0004         14.0004
  24631433.9564    -402036.65247
        92.0004          1.0004
 05  6 29 17 28  0.0000000  0  7G22G 1G19G 3G14G15G18
  21012413.3824    1263790.72849    984773.58647                  21012413.0854
       850.0004         54.0004
  22245053.8494   -6787266.89149  -5288773.40246                  22245057.8974
       456.0004         18.0004
  22444881.0594   -2551673.59749  -1988315.83346                  22444883.4864
       409.0004         20.0004
  22396855.4744    2112351.88349   1645987.55846                  22396859.4334
       456.0004         17.0004
  20380024.1524   -3116810.20949  -2428680.82447                  20380026.0944
       666.0004         67.0004
  20484332.8894    2197496.75749   1712334.20047                  20484336.1134
       827.0004         57.0004
  22516019.3694    3939144.17249   3069461.45246                  22516021.2414
       444.0004         13.0004
 05  6 29 17 28 30.0000000  0  7G22G 1G14G19G15G 3G18
  21016756.0184    1286611.76749   1002556.21147                  21016755.5834
       827.0004         54.0004
  22228996.9814   -6871645.04349  -5354522.56446                  22229001.5964
       456.0004         17.0004
  20375185.9134   -3142234.55249  -2448491.98747                  20375187.6804
       648.0004         65.0004
  22441566.3744   -2569094.05449  -2001890.21846                  22441568.6754
       409.0004         20.0004
  20493208.2974    2244136.15049   1748676.56847                  20493211.4644
       827.0004         57.0004
  22405584.8934    2158227.26249   1681734.57046                  22405589.7424
       444.0004         17.0004
  22526981.1994    3996750.27149   3114349.29946                  22526982.5124
       432.0004         13.0004
 05  6 29 17 29  0.0000000  0  8G22G 1G14G19G15G 3G18G25
  21021123.4144    1309563.09549   1020440.36447                  21021123.1414
       827.0004         54.0004
  22212998.9324   -6955713.60549  -5420030.48946                  22213003.1864
       444.0004         17.0004
  20370441.4724   -3167166.92649  -2467919.79647                  20370443.0564
       648.0004         63.0004
  22438353.5064   -2585976.51149  -2015045.38846                  22438355.4384
       409.0004         19.0004
  20502167.1994    2291215.22749   1785361.54347                  20502170.3194
       850.0004         57.0004
  22414391.5774    2204504.35149   1717794.60046                  22414395.1134
       468.0004         17.0004
  22537956.4434    4054427.05649   3159292.24346                  22537958.3794
       420.0004         12.0004
  24573900.3134         -0.43158         0.44454
       163.0004          1.0004
 05  6 29 17 29 30.0000000  0  8G22G 1G14G19G15G 3G18G25
  21025528.3544    1332711.11449   1038477.77747                  21025528.0404
       827.0004         52.0004
  22197073.1014   -7039404.32349  -5485243.97846                  22197077.1644
       444.0004         18.0004
  20365803.0854   -3191540.74449  -2486912.36647                  20365804.6714
       648.0004         63.0004
  22435255.8614   -2602254.00949  -2027729.15146                  22435257.4364
       420.0004         20.0004
  20511222.2464    2338800.64749   1822441.06747                  20511225.3344
       827.0004         57.0004
  22423286.5264    2251247.64549   1754217.91346                  22423290.4564
       456.0004         17.0004
  22548958.7534    4112241.17549   3204342.19146                  22548960.4014
       444.0004         12.0004
  24554698.5894    -100895.29648    -78618.78444                  24554704.7164
       167.0004          2.0004
 05  6 29 17 30  0.0000000  0  8G22G 1G14G19G15G 3G18G25
  21029965.2374    1356027.02449   1056646.02247                  21029965.1534
       827.0004         54.0004
  22181213.8034   -7122744.16349  -5550184.06146                  22181218.1954
       444.0004         19.0004
  20361265.6694   -3215384.77749  -2505492.11847                  20361267.4054
       631.0004         63.0004
  22432268.3884   -2617954.54649  -2039963.33846                  22432270.2284
       432.0004         21.0004
  20520368.4444    2386863.81149   1859892.86347                  20520371.5224
       850.0004         57.0004
  22432263.9314    2298426.71949   1790980.78546                  22432268.3854
       432.0004         16.0004
  22559980.4634    4170164.08449   3249476.90046                  22559982.5234
       420.0004         12.0004
  24535489.3414    -201839.61648   -157276.47244
       192.0004          1.0004
 05  6 29 17 30 30.0000000  0  8G22G 1G14G19G15G 3G18G25
  21034427.4284    1379476.96049   1074918.69747                  21034427.6084
       805.0004         52.0004
  22165416.2864   -7205765.32949  -5614875.82746                  22165420.5124
       494.0004         20.0004
  20356822.8384   -3238732.74649  -2523685.32647                  20356824.5374
       648.0004         65.0004
  22429384.3474   -2633111.76249  -2051774.15746                  22429386.4364
       444.0004         21.0004
  20529599.2464    2435370.63849   1897690.37347                  20529602.1354
       850.0004         57.0004
  22441317.9244    2346005.36049   1828055.00446                  22441322.8564
       432.0004         16.0004
  22571017.7784    4228161.87049   3294669.96046                  22571020.0054
       444.0004         12.0004
  24516265.9934    -302864.50348
       208.0004          1.0004
 05  6 29 17 31  0.0000000  0  8G22G 1G14G19G15G 3G18G25
  21038923.5334    1403103.38149   1093328.89447                  21038923.4424
       827.0004         54.0004
  22149686.6674   -7288423.61249  -5679284.83446                  22149690.8334
       481.0004         20.0004
  20352482.3444   -3261541.91049  -2541458.68647                  20352484.0174
       648.0004         63.0004
  22426610.9144   -2647682.66449  -2063128.11846                  22426613.1464
       420.0004         21.0004
  20538921.8484    2484363.49249   1935866.60047                  20538925.0164
       805.0004         54.0004
  22450456.4234    2394024.25449   1865472.28946                  22450460.5594
       456.0004         17.0004
  22582076.7024    4286277.24449   3339954.63246                  22582078.1374
       444.0004         12.0004
  24497034.1974    -403924.77848
       181.0004          1.0004
 05  6 29 17 31 30.0000000  0  8G22G 1G14G19G15G 3G18G25
  21043450.2244    1426890.03249   1111863.94547                  21043449.7094
       827.0004         52.0004
  22134023.2954   -7370733.48549  -5743422.34746                  22134027.8844
       468.0004         20.0004
  20348241.3784   -3283828.68449  -2558824.98947                  20348243.0444
       648.0004         63.0004
  22423947.3564   -2661683.29249  -2074037.70546                  22423949.6164
       444.0004         21.0004
  20548334.3804    2533826.36649   1974409.07747                  20548337.6984
       805.0004         55.0004
  22459674.3624    2442464.87249   1903218.19546                  22459678.4414
       456.0004         16.0004
  22593155.1194    4344494.22949   3385318.51446                  22593156.3364
       444.0004         12.0004
  24477794.0934    -505033.70048
       172.0004          1.0004
 05  6 29 17 32  0.0000000  0  8G 1G14G22G19G15G 3G18G25
  22118409.8254   -7452782.59349  -5807356.66946                  22118414.1144
       481.0004         19.0004
  20344082.8384   -3305682.33049  -2575853.79047                  20344084.1244
       666.0004         63.0004
  21047990.2464    1450747.73649   1130454.36647                  21047989.7444
       827.0004         52.0004
  22421374.4114   -2675201.85249  -2084571.65646                  22421376.2704
       444.0004         22.0004
  20557819.5174    2583669.90449   2013248.18047                  20557822.6584
       827.0004         55.0004
  22468953.9834    2491236.04849   1941221.67646                  22468958.5424
       409.0004         15.0004
  22604235.7854    4402724.45349   3430692.69546                  22604237.5864
       432.0004         12.0004
  24458527.4514    -606277.72148
       142.0004          1.0004
 05  6 29 17 32 30.0000000  0  8G 1G14G22G19G15G 3G18G25
  22102855.4024   -7534522.30949  -5871049.90846                  22102859.8234
       508.0004         20.0004
  20340015.7094   -3327055.62249  -2592508.28747                  20340017.3884
       666.0004         65.0004
  21052552.5184    1474723.25349   1149136.58947                  21052552.3504
       827.0004         52.0004
  22418903.0124   -2688191.49149  -2094693.45946                  22418904.5054
       456.0004         22.0004
  20567386.0084    2633940.82049   2052420.30647                  20567389.1244
       827.0004         54.0004
  22478306.3804    2540382.81549   1979517.82346                  22478311.1004
       409.0004         15.0004
  22615327.7344    4461014.33049   3476113.36946                  22615329.1424
       420.0004         12.0004
  24439243.6654    -707607.00848
       121.0004          1.0004
 05  6 29 17 33  0.0000000  0  8G 1G14G22G19G15G 3G18G25
  22087365.6484   -7615920.51749  -5934477.04046                  22087369.9004
       494.0004         21.0004
  20336045.6544   -3347918.30449  -2608764.90947                  20336047.1064
       666.0004         65.0004
  21057143.1504    1498847.00849   1167934.32147                  21057142.7734
       827.0004         54.0004
  22416537.6484   -2700621.52749  -2104379.20846                  22416539.3584
       456.0004         22.0004
  20577038.9524    2684669.38249   2091949.03047                  20577042.1734
       784.0004         54.0004
  22487736.0764    2589933.48949   2018128.71046                  22487740.1524
       420.0004         15.0004
  22626437.1524    4519394.14349   3521604.10546                  22626439.5354
       409.0004         13.0004
  24419952.2564    -808988.52348
       103.0004          1.0004
 05  6 29 17 33 30.0000000  0  8G 1G14G22G19G15G 3G18G25
  22071963.8104   -7696858.92349  -5997545.88446                  22071968.0284
       508.0004         21.0004
  20332195.2054   -3368153.91949  -2624532.90647                  20332196.5964
       684.0004         67.0004
  21061784.2184    1523235.58449   1186938.40047                  21061783.9934
       827.0004         52.0004
  22414301.2524   -2712374.87849  -2113537.67146                  22414302.7314
       468.0004         23.0004
  20586801.9544    2735971.89649   2131924.99147                  20586804.8574
       827.0004         54.0004
  22497264.3494    2640002.41749   2057143.42346                  22497268.3754
       432.0004         15.0004
  22637586.5514    4577980.97949   3567256.15946                  22637587.8964
       444.0004         14.0004
  24400674.8694    -910302.54348
       111.0004          1.0004
 05  6 29 17 34  0.0000000  0  8G 1G14G22G19G15G 3G18G25
  22056617.0434   -7777507.91549  -6060389.21146                  22056621.2404
       522.0004         21.0004
  20328430.4544   -3387934.61949  -2639946.42147                  20328432.1364
       648.0004         65.0004
  21066442.7494    1547716.96549   1206014.79847                  21066442.3224
       805.0004         49.0004
  22412160.8784   -2723623.34749  -2122302.72046                  22412162.5014
       468.0004         23.0004
  20596640.4014    2787676.17949   2172214.02447                  20596643.6754
       784.0004         52.0004
  22506857.6334    2690415.34749   2096426.19446                  22506862.3994
       420.0004         15.0004
  22648741.0304    4636603.29549   3612935.86946                  22648742.9024
       398.0004         11.0004
  24381375.5694   -1011718.14147
        90.0004          1.0004
 05  6 29 17 34 30.0000000  0  8G 1G14G22G19G15G 3G18G25
  22041335.7134   -7857809.66949  -6122961.96146                  22041339.7024
       508.0004         21.0004
  20324763.7554   -3407204.20249  -2654961.66447                  20324765.3134
       666.0004         67.0004
  21071129.6814    1572347.18449   1225207.17147                  21071129.3744
       805.0004         49.0004
  22410127.2244   -2734310.24649  -2130630.17946                  22410128.7804
       468.0004         23.0004
  20606566.8374    2839838.40849   2212859.89247                  20606570.0084
       784.0004         51.0004
  22516526.4464    2741226.56049   2136019.32146                  22516531.1194
       420.0004         15.0004
  22659914.1564    4695317.30649   3658687.02046                  22659915.6354
       409.0004         12.0004
  24362070.6704   -1113176.40247
        85.0004          1.0004
 05  6 29 17 35  0.0000000  0  8G 1G14G22G19G15G 3G18G25
  22026122.2644   -7937757.79949  -6185259.16246                  22026126.5614
       522.0004         21.0004
  20321195.1224   -3425958.12649  -2669575.09747                  20321196.6524
       666.0004         67.0004
  21075845.8444    1597131.21549   1244519.39747                  21075845.4814
       805.0004         49.0004
  22408201.1694   -2744430.83349  -2138516.36046                  22408202.4604
       468.0004         24.0004
  20616581.3284    2892463.33149   2253866.29947                  20616584.3034
       827.0004         54.0004
  22526271.5834    2792438.49149   2175924.69146                  22526276.1324
       409.0004         15.0004
  22671105.7144    4754128.04249   3704513.55546                  22671107.8994
       409.0004         11.0004
  24342756.8044   -1214669.62948
       106.0004          1.0004
 05  6 29 17 35 30.0000000  0  8G 1G14G22G19G15G 3G18G25
  22010974.6634   -8017355.77949  -6247283.52446                  22010979.2644
       494.0004         21.0004
  20317723.6574   -3444201.29749  -2683790.54047                  20317725.1064
       666.0004         67.0004
  21080590.6184    1622063.84149   1263947.41447                  21080590.3644
       805.0004         51.0004
  22406382.4364   -2753989.72849  -2145964.85146                  22406384.5394
       468.0004         23.0004
  20626682.2474    2945545.70349   2295229.16447                  20626685.4464
       805.0004         52.0004
  22536092.1974    2844044.10049   2216136.82646                  22536096.7704
       420.0004         15.0004
  22682314.7634    4813030.32149   3750411.41346                  22682316.2354
       409.0004         12.0004
  24323431.1194   -1316200.00747
        87.0004          1.0004
 05  6 29 17 36  0.0000000  0  8G 1G14G22G19G15G 3G18G25
  21995890.9584   -8096621.79149  -6309049.20646                  21995895.2084
       494.0004         21.0004
  20314345.2324   -3461954.01649  -2697623.81647                  20314346.7474
       648.0004         67.0004
  21085359.6934    1647125.31249   1283475.82747                  21085359.3984
       805.0004         49.0004
  22404666.2574   -2763006.55749  -2152990.96446                  22404668.3854
       456.0004         23.0004
  20636866.6054    2999065.49849   2336932.87647                  20636869.8114
       784.0004         51.0004
  22545983.0804    2896021.19049   2256638.41646                  22545987.7284
       420.0004         15.0004
  22693537.1084    4872004.52049   3796365.30646                  22693538.7204
       420.0004         13.0004
  24304100.0634   -1417784.36747
        97.0004          1.0004
 05  6 29 17 36 30.0000000  0  8G 1G14G22G19G15G 3G18G25
  21980873.3584   -8175541.82449  -6370545.29946                  21980877.2424
       508.0004         22.0004
  20311062.6084   -3479203.88149  -2711065.25947                  20311064.2264
       631.0004         65.0004
  21090155.4164    1672328.10749   1303114.36747                  21090155.7384
       784.0004         49.0004
  22403055.8734   -2771468.92849  -2159585.02946                  22403057.9024
       456.0004         24.0004
  20647137.0664    3053034.93249   2378986.95347                  20647140.1384
       827.0004         52.0004
  22555946.5094    2948380.13149   2297437.53746                  22555950.5864
       409.0004         16.0004
  22704775.0914    4931063.93749   3842385.62646                  22704777.7834
       398.0004         12.0004
  24284763.8334   -1519407.49748  -1183950.32644
       131.0004          1.0004
 05  6 29 17 37  0.0000000  0  8G 1G14G22G19G15G 3G18G25
  21965923.2124   -8254102.18949  -6431761.12946                  21965927.5174
       494.0004         22.0004
  20307877.9534   -3495938.97649  -2724105.57847                  20307879.5334
       631.0004         65.0004
  21094980.6124    1697684.48249   1322872.57647                  21094980.8554
       784.0004         49.0004
  22401553.0774   -2779364.80649  -2165737.67846                  22401555.1894
       444.0004         24.0004
  20657494.7634    3107465.82849   2421400.61047                  20657497.8884
       805.0004         51.0004
  22565984.6384    3001130.91549   2338542.00546                  22565988.8814
       409.0004         15.0004
  22716032.4314    4990220.03549   3888481.25346                  22716035.4624
       398.0004         12.0004
  24265420.4734   -1621054.24948  -1263155.40744
       142.0004          1.0004
 05  6 29 17 37 30.0000000  0  8G 1G14G22G19G15G 3G18G25
  21951040.1704   -8332313.45349  -6492704.93746                  21951044.5454
       508.0004         22.0004
  20304789.0814   -3512171.50349  -2736754.28747                  20304790.6354
       631.0004         65.0004
  21099832.5444    1723182.10449   1342740.84847                  21099832.5534
       763.0004         48.0004
  22400156.4794   -2786705.98249  -2171458.08846                  22400158.2934
       444.0004         23.0004
  20667938.1454    3162345.66549   2464164.08547                  20667941.2504
       805.0004         49.0004
  22576095.1494    3054259.19349   2379940.62846                  22576099.5474
       432.0004         16.0004
  22727306.1304    5049461.60949   3934643.49046                  22727308.6704
       420.0004         14.0004
  24246070.2264   -1722734.07648
       150.0004          1.0004
 05  6 29 17 38  0.0000000  0  8G 1G14G22G19G15G 3G18G25
  21936222.9354   -8410180.04549  -6553380.16646                  21936227.0744
       522.0004         23.0004
  20301794.6654   -3527907.78949  -2749016.31747                  20301796.2784
       631.0004         65.0004
  21104710.5004    1748815.28249   1362714.74647                  21104710.2094
       784.0004         49.0004
  22398864.2414   -2793498.01149  -2176750.58846                  22398866.3444
       444.0004         22.0004
  20678465.6224    3217668.41149   2507272.68847                  20678468.7374
       784.0004         49.0004
  22586275.7504    3107756.59649   2421626.88246                  22586280.4094
       444.0004         16.0004
  22738594.7884    5108782.67649   3980867.66746                  22738596.6794
       432.0004         13.0004
  24226716.2124   -1824449.79048  -1421645.16444                  24226723.8024
       202.0004          3.0004
 05  6 29 17 38 30.0000000  0  8G 1G14G22G19G15G 3G18G25
  21921473.1384   -8487689.98549  -6613777.47746                  21921477.0454
       536.0004         23.0004
  20298896.4714   -3543137.50749  -2760883.61747                  20298898.1774
       631.0004         65.0004
  21109616.1194    1774594.52249   1382802.45647                  21109615.8114
       784.0004         49.0004
  22397677.3164   -2799730.60749  -2181607.17246                  22397679.6094
       409.0004         21.0004
  20689079.4274    3273444.23149   2550734.33447                  20689082.5834
       784.0004         48.0004
  22596527.5694    3161631.44149   2463607.24746                  22596532.3524
       432.0004         16.0004
  22749900.2514    5168193.66549   4027161.92646                  22749902.7514
       420.0004         13.0004
  24207355.5464   -1926187.88148  -1500921.44544                  24207361.9474
       214.0004          3.0004
 05  6 29 17 39  0.0000000  0  8G 1G14G22G19G15G 3G18G25
  21906795.5664   -8564821.95949  -6673880.27446                  21906799.4654
       551.0004         24.0004
  20296098.1864   -3557841.14549  -2772340.98547                  20296099.9274
       614.0004         65.0004
  21114553.5234    1800539.44249   1403019.27147                  21114553.1174
       784.0004         49.0004
  22396602.1004   -2805383.82149  -2186012.28946                  22396603.5974
       420.0004         21.0004
  20699783.2184    3329692.46649   2594564.10147                  20699786.3594
       763.0004         47.0004
  22606854.4544    3215901.26949   2505895.37846                  22606858.6774
       432.0004         16.0004
  22761226.3784    5227714.94649   4073542.11246                  22761227.9244
       409.0004         12.0004
  24187994.6614   -2027925.58448  -1580197.44244                  24188002.4254
       232.0004          3.0004
 05  6 29 17 39 30.0000000  0  8G 1G14G22G19G15G 3G18G25
  21892186.8974   -8641588.50549  -6733698.31946                  21892191.1614
       536.0004         23.0004
  20293397.6664   -3572033.62549  -2783400.04947                  20293399.1784
       631.0004         65.0004
  21119519.4794    1826635.98649   1423354.23247                  21119518.9764
       784.0004         48.0004
  22395634.7024   -2810471.84849  -2189976.99946                  22395636.0414
       444.0004         21.0004
  20710573.6004    3386398.53249   2638750.62047                  20710577.0254
       742.0004         46.0004
  22617253.5294    3270549.60249   2548478.45246                  22617258.3554
       420.0004         15.0004
  22772571.2824    5287332.39549   4119997.24846                  22772573.5404
       409.0004         12.0004
  24168632.2664   -2129674.27048  -1659481.98244                  24168639.7004
       232.0004          3.0004
 05  6 29 17 40  0.0000000  0  7G 1G22G19G 3G14G15G25
  21877641.4124   -8718027.41049  -6793261.07046                  21877645.3814
       551.0004         24.0004
  21124506.8424    1852845.11449   1443776.92747                  21124506.6494
       784.0004         48.0004
  22394766.1824   -2815034.19449  -2193532.08746                  22394768.1464
       432.0004         22.0004
  22627716.9524    3325535.33149   2591324.42646                  22627720.9674
       409.0004         15.0004
  20290786.7434   -3585753.84949  -2794091.12347                  20290788.3944
       631.0004         65.0004
  20721444.4604    3443522.86549   2683263.06347                  20721447.6664
       763.0004         48.0004
  24149260.8574   -2231470.21048  -1738803.35944                  24149267.0534
       238.0004          3.0004
 05  6 29 17 40 30.0000000  0  7G 1G22G14G19G15G 3G25
  21863162.0624   -8794113.74049  -6852549.07746                  21863166.2934
       536.0004         25.0004
  21129519.9004    1879190.59049   1464305.86347                  21129519.9434
       763.0004         47.0004
  20288270.0094   -3598978.66949  -2804396.16247                  20288271.6514
       631.0004         65.0004
  22394001.7234   -2819047.06249  -2196659.01246                  22394003.9954
       409.0004         21.0004
  20732399.1414    3501088.75749   2728119.57247                  20732402.2214
       784.0004         47.0004
  22638248.8474    3380879.11449   2634449.41346                  22638253.5674
       420.0004         15.0004
  24129884.7504   -2333287.00448  -1818141.01445                  24129894.1824
       219.0004          4.0004
 05  6 29 17 41  0.0000000  0  7G 1G14G22G19G15G 3G25
  21848754.6684   -8869827.19049  -6911546.53346                  21848758.5664
       551.0004         25.0004
  20285851.4274   -3611689.69449  -2814300.84247                  20285852.9894
       631.0004         65.0004
  21134563.1184    1905690.73049   1484955.31347                  21134562.7294
       784.0004         48.0004
  22393346.9124   -2822491.59949  -2199343.07946                  22393348.7644
       432.0004         21.0004
  20743440.9884    3559114.67549   2773334.54147                  20743443.8584
       763.0004         46.0004
  22648851.3864    3436597.89849   2677866.59246                  22648855.5254
       398.0004         15.0004
  24110509.9474   -2435102.80348  -1897477.86644                  24110516.5374
       219.0004          3.0004
 05  6 29 17 41 30.0000000  0  7G 1G14G22G19G15G 3G25
  21834418.6724   -8945165.95449  -6970252.03146                  21834422.8984
       566.0004         25.0004
  20283530.5424   -3623886.60849  -2823804.92047                  20283531.9304
       648.0004         67.0004
  21139635.6474    1932346.36749   1505725.93547                  21139635.0944
       784.0004         48.0004
  22392799.4824   -2825367.80749  -2201584.29946                  22392800.9344
       432.0004         21.0004
  20754570.2434    3617600.49749   2818907.88147                  20754573.4734
       742.0004         44.0004
  22659526.1244    3492689.68249   2721574.42346                  22659530.3984
       420.0004         15.0004
  24091136.9704   -2536914.17448  -1976811.26744                  24091144.6274
       214.0004          2.0004
 05  6 29 17 42  0.0000000  0  7G 1G14G22G19G15G 3G25
  21820149.0714   -9020150.22149  -7028681.28246                  21820152.8304
       551.0004         25.0004
  20281302.8354   -3635592.22949  -2832926.17247                  20281304.3094
       648.0004         65.0004
  21144733.2174    1959135.70049   1526600.73647                  21144733.2434
       784.0004         48.0004
  22392356.2044   -2827697.38649  -2203399.57146                  22392357.9024
       432.0004         21.0004
  20765783.1884    3676524.01549   2864822.28247                  20765786.4414
       763.0004         47.0004
  22670266.4184    3549130.22249   2765554.02046                  22670270.7424
       420.0004         15.0004
  24071761.6874   -2638740.16748  -2056156.02044                  24071765.3204
       232.0004          2.0004
 05  6 29 17 42 30.0000000  0  8G 1G14G22G19G15G 3G11G25
  21805950.5084   -9094764.89949  -7086822.54446                  21805954.1954
       551.0004         25.0004
  20279171.4484   -3646792.96149  -2841654.00047                  20279173.0124
       648.0004         65.0004
  21149859.0464    1986072.63649   1547590.54847                  21149858.9984
       763.0004         48.0004
  22392019.4904   -2829466.69149  -2204778.25546                  22392021.7694
       444.0004         21.0004
  20777081.8684    3735898.74349   2911088.27747                  20777085.0244
       784.0004         47.0004
  22681074.4854    3605931.09549   2809814.38746                  22681079.0904
       398.0004         14.0004
  25137927.6804         -0.39858        -0.19054
       106.0004          1.0004
  24052384.8814   -2740563.97148  -2135499.11244                  24052388.0114
       238.0004          2.0004
 05  6 29 17 43  0.0000000  0  7G 1G22G19G14G15G 3G25
  21791823.0524   -9169007.44849  -7144673.84546                  21791826.5384
       566.0004         24.0004
  21155013.4224    2013158.77549   1568696.62147                  21155013.1644
       784.0004         49.0004
  22391789.4084   -2830674.70849  -2205719.58746                  22391791.4954
       444.0004         22.0004
  20277136.2484   -3657487.89749  -2849987.70447                  20277137.7694
       648.0004         65.0004
  20788466.6264    3795725.47449   2957706.48047                  20788469.7904
       784.0004         46.0004
  22691951.4334    3663091.56449   2854354.96646                  22691956.1274
       377.0004         14.0004
  24033008.3934   -2842381.02648  -2214836.92644                  24033014.3984
       225.0004          2.0004
 05  6 29 17 43 30.0000000  0  7G 1G14G22G19G15G 3G25
  21777764.1084   -9242885.30749  -7202240.97046                  21777767.9814
       551.0004         24.0004
  20275195.4984   -3667686.15049  -2857934.38147                  20275197.0864
       631.0004         65.0004
  21160194.7884    2040385.09849   1589911.93047                  21160194.4334
       805.0004         48.0004
  22391664.8144   -2831330.61449  -2206230.70046                  22391666.4894
       456.0004         22.0004
  20799935.5964    3855994.74949   3004669.52647                  20799938.7094
       784.0004         46.0004
  22702896.2574    3720599.83149   2899166.55346                  22702901.1574
       409.0004         15.0004
  24013632.6464   -2944197.36948  -2294174.16644                  24013636.9504
       232.0004          3.0004
 05  6 29 17 44  0.0000000  0  8G 1G14G22G19G15G 3G11G25
  21763786.1464   -9316336.94549  -7259475.96446                  21763790.3584
       536.0004         25.0004
  20273360.6944   -3677328.48349  -2865447.87647                  20273362.1274
       648.0004         65.0004
  21165413.7884    2067811.85449   1611283.42347                  21165413.6924
       805.0004         49.0004
  22391656.0814   -2831374.54449  -2206264.95446                  22391658.3724
       444.0004         21.0004
  20811499.7194    3916766.06349   3052023.76347                  20811502.9734
       763.0004         47.0004
  22713916.5784    3778513.87049   2944294.32146                  22713921.0114
       398.0004         15.0004
  25080354.3954         -0.30557
        92.0004          1.0004
  23994268.5634   -3045950.30048  -2373462.03744                  23994273.2084
       232.0004          3.0004
 05  6 29 17 44 30.0000000  0  8G 1G14G22G19G15G 3G11G25
  21749879.2464   -9389419.61149  -7316423.45846                  21749883.4804
       551.0004         26.0004
  20271620.5744   -3686473.68049  -2872573.99547                  20271621.8214
       648.0004         65.0004
  21170659.8414    2095380.30149   1632765.32147                  21170659.4084
       805.0004         49.0004
  22391753.4004   -2830864.84749  -2205867.80246                  22391755.5084
       456.0004         22.0004
  20823148.3544    3977980.39749   3099723.20847                  20823151.5534
       763.0004         46.0004
  22725002.6864    3836772.72549   2989690.77646                  22725007.5964
       398.0004         15.0004
  25061184.0754    -100727.99648
       111.0004          1.0004
  23974907.7724   -3147694.86548  -2452743.30744                  23974914.0304
       258.0004          3.0004
 05  6 29 17 45  0.0000000  0  8G 1G14G22G19G15G 3G11G25
  21736041.2934   -9462140.99549  -7373089.42846                  21736045.0494
       582.0004         28.0004
  20269972.9484   -3695131.09549  -2879320.02047                  20269974.3934
       631.0004         61.0004
  21175931.3654    2123081.81849   1654350.90947                  21175930.9394
       805.0004         49.0004
  22391954.0824   -2829811.09349  -2205046.72046                  22391955.9894
       468.0004         22.0004
  20834879.8804    4039628.35949   3147760.54747                  20834882.9714
       763.0004         44.0004
  22736152.9964    3895364.96049   3035347.00846                  22736157.5704
       409.0004         15.0004
  25042023.8944    -201413.87848
       142.0004          1.0004
  23955547.9814   -3249437.13948  -2532022.86045                  23955552.1564
       296.0004          4.0004
 05  6 29 17 45 30.0000000  0  8G 1G14G22G19G15G 3G11G25
  21722268.2914   -9534518.31949  -7429487.28746                  21722272.0214
       598.0004         28.0004
  20268414.4764   -3703320.10149  -2885701.05447                  20268415.9034
       614.0004         61.0004
  21181224.5234    2150897.99449   1676025.84547                  21181224.1874
       805.0004         49.0004
  22392254.8834   -2828232.11749  -2203816.37346                  22392256.7704
       468.0004         22.0004
  20846689.8374    4101690.87849   3196120.92247                  20846693.0344
       742.0004         42.0004
  22747361.9184    3954269.84849   3081246.87246                  22747366.7914
       409.0004         15.0004
  25022868.6794    -302074.15748
       181.0004          1.0004
  23936184.8364   -3351192.79049  -2611312.82245                  23936189.4204
       321.0004          5.0004
 05  6 29 17 46  0.0000000  0  8G 1G14G22G19G15G 3G11G25
  21708561.9594   -9606544.84549  -7485611.81246                  21708565.9534
       598.0004         28.0004
  20266946.4594   -3711035.65749  -2891713.16747                  20266947.9704
       614.0004         63.0004
  21186540.7454    2178834.46449   1697794.51747                  21186540.2834
       805.0004         48.0004
  22392656.0524   -2826122.76549  -2202172.74446                  22392658.0164
       468.0004         22.0004
  20858579.8424    4164172.94249   3244808.21347                  20858583.2414
       742.0004         43.0004
  22758630.7264    4013490.26149   3127392.60346                  22758635.9334
       387.0004         15.0004
  25003718.8604    -402701.54148
       214.0004          1.0004
  23916820.4144   -3452953.44149  -2690606.65945                  23916827.0414
       338.0004          5.0004
 05  6 29 17 46 30.0000000  0  8G 1G14G22G19G15G 3G11G25
  21694925.8664   -9678201.06949  -7541447.78346                  21694930.0624
       582.0004         28.0004
  20265571.7034   -3718259.94849  -2897342.47847                  20265573.0844
       614.0004         63.0004
  21191882.9164    2206909.23449   1719670.95047                  21191882.9144
       784.0004         48.0004
  22393161.6734   -2823465.24549  -2200101.96446                  22393163.5264
       456.0004         22.0004
  20870553.1234    4227092.06749   3293836.06647                  20870556.2584
       742.0004         42.0004
  22769963.3434    4073042.14249   3173796.61246                  22769967.8074
       387.0004         14.0004
  24984579.1704    -503275.92248   -392162.09044
       214.0004          1.0004
  23897458.5834   -3554698.07949  -2769888.03145                  23897462.1714
       329.0004          5.0004
 05  6 29 17 47  0.0000000  0  8G 1G14G22G19G15G 3G11G25
  21681362.9344   -9749476.44449  -7596986.99546                  21681366.7024
       614.0004         29.0004
  20264292.0094   -3724984.52449  -2902582.40247                  20264293.2934
       614.0004         61.0004
  21197253.7044    2235131.78949   1741662.54547                  21197253.3294
       805.0004         48.0004
  22393772.7184   -2820250.65449  -2197597.11146                  22393775.3534
       432.0004         21.0004
  20882610.8434    4290456.75349   3343211.11247                  20882614.1544
       722.0004         41.0004
  22781360.2974    4132931.98549   3220463.95846                  22781364.6734
       387.0004         14.0004
  24965452.8714    -603780.17548   -470476.96144                  24965454.5874
       214.0004          2.0004
  23878101.7734   -3656414.23348  -2849147.23245                  23878107.9874
       304.0004          5.0004
 05  6 29 17 47 30.0000000  0  8G 1G14G22G19G15G 3G11G25
  21667871.3534   -9820374.72649  -7652232.36746                  21667874.9104
       614.0004         30.0004
  20263106.3374   -3731214.90049  -2907437.23447                  20263107.8624
       598.0004         60.0004
  21202651.6644    2263497.19249   1763765.45347                  21202651.6884
       805.0004         48.0004
  22394490.1264   -2816484.55449  -2194662.50246                  22394492.0364
       456.0004         22.0004
  20894752.3204    4354261.26549   3392928.88347                  20894755.5114
       703.0004         38.0004
  22792820.5914    4193152.49949   3267388.97746                  22792825.1844
       409.0004         15.0004
  24946337.3424    -704228.47048   -548748.29344                  24946340.7874
       219.0004          2.0004
  23858750.1914   -3758104.14348  -2928385.96745                  23858756.1514
       272.0004          5.0004
 05  6 29 17 48  0.0000000  0  8G 1G14G22G19G15G 3G11G25
  21654453.2074   -9890888.87949  -7707178.41446                  21654457.1854
       631.0004         31.0004
  20262015.7214   -3736946.02949  -2911903.04147                  20262017.1564
       598.0004         61.0004
  21208077.4754    2292011.44049   1785984.33947                  21208077.5424
       805.0004         47.0004
  22395312.8454   -2812161.66349  -2191294.02746                  22395314.6804
       444.0004         21.0004
  20906978.5944    4418510.75149   3442993.38847                  20906981.8164
       703.0004         38.0004
  22804343.0994    4253706.80849   3314574.11346                  22804347.1854
       387.0004         13.0004
  24927235.8404    -804606.70548   -626964.99944                  24927236.6354
       208.0004          3.0004
  23839406.1564   -3859758.99848  -3007597.40845                  23839412.3444
       280.0004          4.0004
 05  6 29 17 48 30.0000000  0  8G 1G14G22G19G15G 3G11G25
  21641105.6344   -9961030.83449  -7761834.43947                  21641109.7604
       631.0004         32.0004
  20261017.6404   -3742191.91849  -2915990.74047                  20261019.1664
       614.0004         63.0004
  21213529.2824    2320661.55649   1808309.09747                  21213528.9564
       784.0004         46.0004
  22396238.5634   -2807295.63949  -2187502.34146                  22396240.5674
       432.0004         21.0004
  20919287.3864    4483191.76449   3493394.14247                  20919290.4904
       722.0004         40.0004
  22815925.4764    4314579.35249   3362007.21746                  22815931.2914
       338.0004         12.0004
  24908145.7634    -904925.72848   -705135.60644                  24908148.6824
       202.0004          3.0004
  23820066.0214   -3961388.71848  -3086789.25945                  23820071.7514
       265.0004          5.0004
 05  6 29 17 49  0.0000000  0  8G 1G14G22G19G15G 3G11G25
  21627830.1684  -10030792.17749  -7816193.88747                  21627834.2854
       631.0004         32.0004
  20260112.8594   -3746945.86249  -2919695.10447                  20260114.4784
       598.0004         61.0004
  21219008.5844    2349454.68849   1830745.29647                  21219008.2434
       805.0004         47.0004
  22397269.0784   -2801879.70749  -2183282.14546                  22397271.4014
       420.0004         21.0004
  20931679.1194    4548310.49949   3544135.98047                  20931682.2504
       722.0004         40.0004
  22827571.0294    4375775.16449   3409692.23046                  22827575.8634
       348.0004         15.0004
  24889068.6034   -1005176.53548   -783253.04344                  24889072.7144
       197.0004          3.0004
  23800733.3264   -4062983.36748  -3165953.83145                  23800739.6074
       258.0004          4.0004
 05  6 29 17 49 30.0000000  0  8G 1G14G22G19G15G 3G11G25
  21614625.4074  -10100181.53849  -7870263.48646                  21614629.5784
       614.0004         31.0004
  20259299.7664   -3751218.25749  -2923024.23347                  20259301.2744
       598.0004         61.0004
  21224513.2714    2378381.24549   1853285.46247                  21224512.7584
       805.0004         47.0004
  22398402.7544   -2795923.96849  -2178641.32946                  22398405.1284
       432.0004         21.0004
  20944151.8184    4613856.38149   3595210.65647                  20944155.1054
       703.0004         38.0004
  22839277.0604    4437281.58949   3457619.25946                  22839281.2224
       398.0004         13.0004
  24870003.8044   -1105366.74848   -861323.27244                  24870007.9534
       202.0004          3.0004
  23781405.2184   -4164549.80248  -3245096.40445                  23781411.3874
       238.0004          5.0004
 05  6 29 17 50  0.0000000  0  8G 1G14G22G19G15G 3G11G25
  21601492.5814  -10169195.41249  -7924040.50046                  21601496.7104
       614.0004         31.0004
  20258579.0114   -3755007.51849  -2925976.89847                  20258580.3054
       614.0004         61.0004
  21230043.6034    2407443.74149   1875931.55847                  21230043.4174
       784.0004         46.0004
  22399639.3554   -2789426.68749  -2173578.52746                  22399641.3304
       432.0004         20.0004
  20956706.5954    4679831.19949   3646619.56447                  20956709.8224
       703.0004         38.0004
  22851040.1294    4499098.92149   3505788.56746                  22851044.8234
       377.0004         13.0004
  24850951.3444   -1205491.52948   -939342.52044                  24850955.8204
       202.0004          3.0004
  23762084.6964   -4266082.15148  -3324212.39245                  23762091.0174
       244.0004          5.0004
 05  6 29 17 50 30.0000000  0  8G 1G14G22G19G15G 3G11G25
  21588430.5594  -10237839.34049  -7977529.23846                  21588434.2114
       631.0004         31.0004
  20257948.2384   -3758321.07649  -2928558.88647                  20257949.6164
       614.0004         63.0004
  21235598.3014    2436635.68249   1898678.51747                  21235598.6464
       763.0004         46.0004
  22400976.8354   -2782395.10449  -2168099.38046                  22400978.7954
       420.0004         21.0004
  20969341.6174    4746227.51649   3698356.91947                  20969344.8324
       722.0004         39.0004
  22862860.2984    4561217.78749   3554192.83146                  22862865.3884
       357.0004         12.0004
  24831910.0314   -1305555.20148  -1017314.14644                  24831915.2744
       177.0004          3.0004
  23742769.1224   -4367584.42848  -3403304.92145                  23742775.2574
       238.0004          6.0004
 05  6 29 17 51  0.0000000  0  7G 1G14G22G19G15G 3G25
  21575436.7244  -10306119.36749  -8030734.42047                  21575440.4924
       614.0004         32.0004
  20257406.5994   -3761166.93349  -2930776.43147                  20257408.0604
       614.0004         65.0004
  21241176.4274    2465949.85449   1921520.72447                  21241176.8474
       763.0004         44.0004
  22402415.9844   -2774837.12949  -2162210.06346                  22402417.5824
       444.0004         21.0004
  20982055.1784    4813037.50749   3750416.61447                  20982058.3854
       722.0004         39.0004
  22874736.4614    4623628.36849   3602824.40146                  22874741.3284
       348.0004         11.0004
  23723460.2954   -4469060.78848  -3482377.29045                  23723465.7794
       272.0004          6.0004
 05  6 29 17 51 30.0000000  0  8G 1G14G22G19G15G 3G11G25
  21562519.8044  -10373998.74649  -8083627.40146                  21562523.6764
       614.0004         31.0004
  20256960.8754   -3763510.03349  -2932602.21347                  20256962.4164
       631.0004         65.0004
  21246784.9304    2495422.11549   1944486.11147                  21246785.2044
       763.0004         44.0004
  22403960.5954   -2766717.71649  -2155883.26246                  22403962.6914
       432.0004         21.0004
  20994853.9314    4880295.93349   3802825.73947                  20994857.2234
       722.0004         39.0004
  22886674.5634    4686363.72649   3651709.04946                  22886678.8014
       348.0004         11.0004
  24793865.5644         -0.52958         0.39954
       103.0004          1.0004
  23704162.3224   -4570472.99048  -3561399.66045                  23704168.8074
       288.0004          6.0004
 05  6 29 17 52  0.0000000  0  8G 1G14G22G19G15G 3G11G25
  21549674.2264  -10441499.91649  -8136225.66946                  21549678.4814
       598.0004         30.0004
  20256605.9464   -3765374.56749  -2934055.08647                  20256607.4404
       614.0004         63.0004
  21252419.1994    2525029.24949   1967556.60147                  21252419.3824
       763.0004         44.0004
  22405607.1244   -2758061.03249  -2149137.80746                  22405609.9094
       409.0004         22.0004
  21007733.5634    4947978.59249   3855565.42647                  21007736.8704
       703.0004         39.0004
  22898669.3094    4749397.87949   3700826.51646                  22898674.4534
       348.0004         11.0004
  24774866.5654     -99842.06347    -77798.07644                  24774870.9784
        92.0004          2.0004
  23684872.3434   -4671841.14148  -3640387.70245                  23684877.7564
       296.0004          7.0004
 05  6 29 17 52 30.0000000  0  8G 1G14G22G19G15G 3G11G25
  21536906.6994  -10508595.30049  -8188507.75147                  21536910.8324
       614.0004         32.0004
  20256347.2124   -3766735.01549  -2935115.16547                  20256348.3864
       631.0004         63.0004
  21258084.0664    2554797.89349   1990752.94047                  21258084.1544
       763.0004         46.0004
  22407362.2794   -2748841.26849  -2141953.58846                  22407364.1364
       444.0004         21.0004
  21020698.8454    5016110.91749   3908655.50547                  21020702.0044
       722.0004         38.0004
  22910726.9414    4812754.85649   3750195.54046                  22910733.3894
       377.0004         12.0004
  24755885.1184    -199582.35447
        72.0004          1.0004
  23665595.5694   -4773135.73848  -3719318.43845                  23665600.6424
       280.0004          6.0004
 05  6 29 17 53  0.0000000  0  7G 1G14G22G19G15G 3G25
  21524214.8514  -10575295.01149  -8240481.51347                  21524218.3844
       666.0004         33.0004
  20256181.8984   -3767603.30149  -2935791.74247                  20256183.3984
       631.0004         65.0004
  21263777.2554    2584716.74649   2014066.32047                  21263777.2204
       763.0004         44.0004
  22409221.6734   -2739070.19049  -2134339.77446                  22409223.7464
       444.0004         22.0004
  21033747.1554    5084681.05649   3962086.74347                  21033750.4954
       703.0004         37.0004
  22922842.0934    4876420.87949   3799805.36646                  22922846.5224
       387.0004         11.0004
  23646332.0614   -4874365.04948  -3798198.28845                  23646338.0324
       272.0004          7.0004
 05  6 29 17 53 30.0000000  0  7G 1G14G22G19G15G 3G25
  21511601.1094  -10641579.43249  -8292131.66847                  21511604.6464
       648.0004         33.0004
  20256113.7034   -3767961.95049  -2936071.19647                  20256114.9244
       631.0004         63.0004
  21269502.7214    2614804.45649   2037511.28547                  21269502.8204
       742.0004         42.0004
  22411189.2864   -2728730.22749  -2126282.67446                  22411191.2444
       444.0004         22.0004
  21046882.2264    5153706.70749   4015872.92347                  21046885.6114
       684.0004         35.0004
  22935019.7364    4940411.81049   3849668.35746                  22935023.3784
       409.0004         12.0004
  23627085.1594   -4975507.31448  -3877010.33745                  23627090.7504
       288.0004          6.0004
 05  6 29 17 54  0.0000000  0  7G 1G14G22G19G15G 3G25
  21499071.9364  -10707418.80249  -8343435.02447                  21499075.7344
       648.0004         33.0004
  20256147.6844   -3767783.13649  -2935931.84847                  20256149.0274
       614.0004         63.0004
  21275265.9704    2645090.25949   2061110.60847                  21275265.8844
       742.0004         43.0004
  22413270.1264   -2717793.31949  -2117760.42846                  22413272.2054
       432.0004         21.0004
  21060109.6704    5223215.87649   4070035.86847                  21060112.9564
       684.0004         35.0004
  22947263.7684    5004753.75949   3899804.89046                  22947267.9064
       409.0004         11.0004
  23607860.5454   -5076530.68348  -3955729.72545                  23607867.0074
       288.0004          7.0004
 05  6 29 17 54 30.0000000  0  8G 1G14G22G19G15G 3G11G25
  21486606.9754  -10772921.06349  -8394475.69447                  21486610.9444
       631.0004         34.0004
  20256263.0814   -3767176.36049  -2935459.02647                  20256264.4344
       614.0004         61.0004
  21281046.2014    2675465.24649   2084779.42747                  21281045.8984
       742.0004         42.0004
  22415444.7624   -2706369.13949  -2108858.48546                  22415446.6944
       456.0004         22.0004
  21073408.0144    5293098.71649   4124489.98847                  21073411.2944
       684.0004         34.0004
  22959552.2724    5069335.38049   3950128.17046                  22959556.6664
       387.0004         12.0004
  24680160.0694         -0.23758         1.03254                  24680161.2164
       115.0004          2.0004
  23588639.2064   -5177541.55348  -4034439.37845                  23588643.9164
       304.0004          7.0004
 05  6 29 17 55  0.0000000  0  8G 1G14G22G19G15G 3G11G25
  21474213.9964  -10838048.96049  -8445224.65547                  21474217.2004
       684.0004         35.0004
  20256466.7054   -3766106.31049  -2934625.21147                  20256468.0124
       614.0004         61.0004
  21286850.4234    2705965.55449   2108545.89247                  21286850.4514
       763.0004         44.0004
  22417718.1904   -2694422.13249  -2099549.14246                  22417719.9154
       456.0004         21.0004
  21086783.8944    5363390.61549   4179262.85447                  21086787.3714
       666.0004         33.0004
  22971893.7974    5134190.44549   4000664.52346                  22971898.4854
       387.0004         12.0004
  24661267.6084     -99277.99948    -77358.19744                  24661269.9514
       128.0004          2.0004
  23569427.6244   -5278500.69649  -4113108.71745                  23569432.9894
       329.0004          8.0004
 05  6 29 17 55 30.0000000  0  8G 1G14G22G19G15G 3G11G25
  21461887.7764  -10902824.11249  -8495698.75747                  21461891.0834
       684.0004         35.0004
  20256754.0484   -3764596.80749  -2933448.96447                  20256755.4334
       614.0004         61.0004
  21292673.7834    2736569.00149   2132392.72147                  21292673.9524
       742.0004         44.0004
  22420086.1444   -2681976.04349  -2089850.90946                  22420088.4394
       444.0004         21.0004
  21100233.1664    5434067.81349   4234335.95447                  21100237.0104
       648.0004         34.0004
  22984282.8224    5199293.47849   4051394.09046                  22984287.5504
       387.0004         12.0004
  24642387.7714    -198500.34148   -154674.25844
       142.0004          1.0004
  23550221.5964   -5379427.81649  -4191753.11045                  23550226.2254
       338.0004          8.0004
 05  6 29 17 56  0.0000000  0  8G 1G14G22G19G15G 3G11G25
  21449638.3714  -10967192.45849  -8545855.86147                  21449642.0114
       666.0004         35.0004
  20257134.6564   -3762595.46949  -2931889.46947                  20257136.2314
       598.0004         61.0004
  21298527.6754    2767328.67449   2156361.28947                  21298527.2644
       784.0004         46.0004
  22422559.6074   -2668978.62049  -2079723.07046                  22422561.4004
       444.0004         20.0004
  21113766.0274    5505182.50649   4289749.96047                  21113769.2814
       648.0004         32.0004
  22996728.4214    5264694.91049   4102356.17846                  22996732.8234
       377.0004         12.0004
  24623528.8404    -297611.74248   -231903.83244                  24623531.2924
       177.0004          2.0004
  23531032.8534   -5480266.39549  -4270328.50045                  23531036.7724
       357.0004          9.0004
 05  6 29 17 56 30.0000000  0  8G 1G14G22G19G15G 3G11G25
  21437464.1774  -11031167.57749  -8595706.55547                  21437468.1174
       648.0004         35.0004
  20257606.3164   -3760117.74249  -2929958.76147                  20257607.8434
       598.0004         60.0004
  21304408.1084    2798230.54149   2180440.65947                  21304407.8004
       784.0004         44.0004
  22425134.9174   -2655445.05349  -2069177.45046                  22425136.8494
       432.0004         20.0004
  21127379.0604    5576719.27949   4345492.86347                  21127382.4254
       648.0004         32.0004
  23009228.3404    5330377.88849   4153537.65346                  23009232.2794
       387.0004         12.0004
  24604687.3734    -396624.44348   -309056.54744                  24604692.2534
       202.0004          2.0004
  23511858.4754   -5581027.88149  -4348843.80845                  23511863.3224
       357.0004          9.0004
 05  6 29 17 57  0.0000000  0  8G 1G14G22G19G15G 3G11G25
  21425363.1364  -11094761.69549  -8645260.36647                  21425366.6754
       684.0004         35.0004
  20258165.6944   -3757177.65449  -2927667.77147                  20258167.0034
       598.0004         60.0004
  21310312.9504    2829261.42749   2204620.56547                  21310312.1514
       784.0004         44.0004
  22427809.6514   -2641389.52749  -2058225.10846                  22427811.9044
       432.0004         20.0004
  21141069.7784    5648664.15349   4401553.75746                  21141072.9144
       648.0004         31.0004
  23021777.4634    5396326.48149   4204926.10746                  23021781.8584
       377.0004         11.0004
  24585861.7354    -495549.25248   -386140.78944
       197.0004          1.0004
  23492696.9254   -5681722.44449  -4427306.95045                  23492702.5114
       348.0004          9.0004
 05  6 29 17 57 30.0000000  0  8G 1G14G22G19G15G 3G11G25
  21413338.4474  -11157949.75149  -8694497.77447                  21413342.0134
       666.0004         35.0004
  20258817.4014   -3753752.28949  -2924998.64347                  20258818.8784
       582.0004         60.0004
  21316247.2294    2860445.75649   2228920.04347                  21316246.9814
       784.0004         46.0004
  22430587.9884   -2626789.07949  -2046848.16346                  22430590.1674
       432.0004         20.0004
  21154842.8124    5721040.00549   4457950.48447                  21154845.9024
       666.0004         32.0004
  23034381.2994    5462562.28649   4256538.36646                  23034386.9604
       357.0004         12.0004
  24567061.8804    -594359.91348
       177.0004          1.0004
  23473552.9124   -5782323.19649  -4505697.01745                  23473559.1034
       338.0004          9.0004
 05  6 29 17 58  0.0000000  0  8G 1G14G22G19G15G 3G11G25
  21401390.1584  -11220738.58449  -8743424.10247                  21401393.8254
       666.0004         35.0004
  20259560.1024   -3749850.16449  -2921958.01947                  20259561.6454
       598.0004         60.0004
  21322209.0914    2891775.96049   2253333.18047                  21322208.5764
       784.0004         46.0004
  22433468.7204   -2611652.02049  -2035053.08346                  22433470.6734
       432.0004         19.0004
  21168695.3064    5793838.35649   4514676.42647                  21168698.8264
       648.0004         33.0004
  23047038.3914    5529074.70949   4308366.17346                  23047044.6484
       348.0004         12.0004
  24548273.6274    -693618.55248
       142.0004          1.0004
  23454425.8624   -5882834.63849  -4584017.47245                  23454431.0574
       329.0004          9.0004
 05  6 29 17 58 30.0000000  0  8G 1G14G22G19G15G 3G11G25
  21389516.6214  -11283134.74149  -8792044.44647                  21389520.2864
       666.0004         36.0004
  20260391.7134   -3745479.65149  -2918552.41047                  20260393.2464
       582.0004         60.0004
  21328197.5384    2923244.80749   2277854.35447                  21328197.0554
       784.0004         46.0004
  22436449.4734   -2595986.83949  -2022846.46446                  22436451.7074
       420.0004         19.0004
  21182627.4924    5867050.74649   4571725.00847                  21182630.7144
       666.0004         33.0004
  23059746.2044    5595853.97549   4360401.88746                  23059751.4524
       348.0004         11.0004
  24529510.2874    -792966.66548
       131.0004          1.0004
  23435315.0024   -5983261.25249  -4662271.84345                  23435319.4434
       321.0004          9.0004
 05  6 29 17 59  0.0000000  0  7G 1G14G22G19G15G 3G25
  21377718.6204  -11345132.29749  -8840354.18847                  21377722.4094
       648.0004         36.0004
  20261313.1874   -3740636.90449  -2914778.83047                  20261314.4914
       582.0004         60.0004
  21334213.1464    2954857.46549   2302487.58747                  21334212.5564
       784.0004         46.0004
  22439532.0114   -2579789.60149  -2010225.26646                  22439534.2294
       420.0004         19.0004
  21196638.9394    5940681.01149   4629099.20347                  21196642.5304
       666.0004         32.0004
  23072505.4174    5662902.33749   4412647.29946                  23072510.2184
       348.0004         12.0004
  23416222.4884   -6083595.16449  -4740453.98345                  23416227.0444
       321.0004          8.0004
 05  6 29 17 59 30.0000000  0  8G 1G14G22G19G15G 3G11G25
  21365998.7054  -11406722.40249  -8888346.43547                  21366002.2224
       666.0004         36.0004
  20262326.0564   -3735314.95949  -2910631.85047                  20262327.1834
       598.0004         60.0004
  21340258.2544    2986622.20349   2327239.32647                  21340257.5304
       805.0004         46.0004
  22442716.6994   -2563053.17449  -1997183.91646                  22442719.3324
       409.0004         18.0004
  21210731.5964    6014736.37149   4686804.64646                  21210734.7954
       666.0004         31.0004
  23085316.0224    5730225.07449   4465106.51046                  23085321.4194
       338.0004         11.0004
  24492054.1464         -1.08958
       202.0004          1.0004
  23397149.8354   -6183824.97049  -4818554.98545                  23397153.8134
       321.0004          8.0004
 05  6 29 18  0  0.0000000  0  8G 1G14G22G19G15G 3G11G25
  21354353.0154  -11467918.56249  -8936031.71547                  21354356.7264
       666.0004         37.0004
  20263427.0434   -3729529.19049  -2906123.44947                  20263428.4014
       598.0004         61.0004
  21346328.5324    3018524.91249   2352098.57147                  21346328.1954
       784.0004         46.0004
  22446001.4594   -2545793.26749  -1983734.66146                  22446003.0854
       420.0004         18.0004
  21224901.6544    6089201.30549   4744829.22846                  21224904.9304
       666.0004         31.0004
  23098175.3914    5797805.35148   4517766.40646                  23098180.5964
       312.0004         11.0004
  24473356.0054     -98257.50848    -76563.61644
       192.0004          1.0004
  23378093.4704   -6283962.10748  -4896583.79145                  23378097.5134
       312.0004          8.0004
 05  6 29 18  0 30.0000000  0  8G 1G14G22G19G15G 3G11G25
  21342789.5894  -11528684.59849  -8983381.84047                  21342793.3604
       666.0004         38.0004
  20264622.9714   -3723245.17449  -2901226.80247                  20264624.4024
       614.0004         61.0004
  21352432.9944    3050601.16849   2377093.05047                  21352432.4794
       805.0004         46.0004
  22449391.6654   -2527975.15949  -1969850.44546                  22449393.5824
       409.0004         19.0004
  21239156.4984    6164110.23649   4803199.78546                  21239159.6564
       666.0004         31.0004
  23111091.0364    5865675.77949   4570652.39046                  23111096.5354
       321.0004         11.0004
  24454686.3164    -196366.89248   -153012.42844                  24454689.7574
       186.0004          2.0004
  23359062.7634   -6383967.99148  -4974510.33345                  23359067.6634
       312.0004          9.0004
 05  6 29 18  1  0.0000000  0  8G 1G14G22G19G15G 3G11G25
  21331302.7394  -11589049.88049  -9030419.68247                  21331306.5654
       684.0004         39.0004
  20265907.5604   -3716494.34249  -2895966.40147                  20265908.7764
       614.0004         61.0004
  21358563.9334    3082820.90849   2402199.33747                  21358563.3194
       784.0004         46.0004
  22452882.8054   -2509630.95049  -1955556.28046                  22452885.0304
       420.0004         19.0004
  21253489.4084    6239431.54549   4861891.67847                  21253492.9464
       648.0004         32.0004
  23124056.0174    5933803.57349   4623738.92546                  23124061.6994
       329.0004         11.0004
  24436040.0234    -294357.37548
       172.0004          1.0004
  23340050.8314   -6483870.43048  -5052356.28045                  23340054.8824
       280.0004          8.0004
 05  6 29 18  1 30.0000000  0  8G 1G14G22G19G15G 3G11G25
  21319886.8924  -11649040.77949  -9077165.79447                  21319890.3324
       703.0004         39.0004
  20267275.6364   -3709304.95449  -2890364.26847                  20267277.1094
       614.0004         61.0004
  21364717.3814    3115157.50349   2427396.67947                  21364716.8814
       784.0004         46.0004
  22456468.4634   -2490787.99949  -1940873.48746                  22456470.4404
       420.0004         20.0004
  21267895.4874    6315137.00749   4920882.90046                  21267898.8274
       631.0004         31.0004
  23137063.8024    6002158.73149   4677002.62246                  23137068.4484
       338.0004         11.0004
  24417411.3174    -392253.67048   -305651.30144                  24417415.5824
       163.0004          2.0004
  23321055.5494   -6583693.28248  -5130140.21045                  23321060.8464
       272.0004          7.0004
 05  6 29 18  2  0.0000000  0  8G 1G14G22G19G15G 3G11G25
  21308541.7084  -11708658.85249  -9123621.39547                  21308545.3614
       703.0004         39.0004
  20268726.5534   -3701680.20749  -2884422.89347                  20268728.0254
       631.0004         65.0004
  21370892.7064    3147608.66449   2452683.29347                  21370892.3614
       784.0004         43.0004
  22460148.1944   -2471450.18549  -1925805.08446                  22460150.7664
       432.0004         20.0004
  21282374.2394    6391223.38349   4980170.95046                  21282377.8624
       614.0004         29.0004
  23150113.4984    6070736.06549   4730439.44646                  23150118.4794
       338.0004         11.0004
  24398800.7524    -490055.61348   -381860.55544
       158.0004          1.0004
  23302076.3874   -6683435.53648  -5207861.33545                  23302079.5694
       288.0004          7.0004
 05  6 29 18  2 30.0000000  0  8G 1G14G22G19G15G 3G11G25
  21297273.2774  -11767875.06749  -9169763.86447                  21297276.6574
       722.0004         41.0004
  20270265.4734   -3693593.33949  -2878121.42347                  20270266.5644
       631.0004         63.0004
  21377094.6274    3180202.51449   2478081.09147                  21377094.1884
       763.0004         43.0004
  22463926.9464   -2451590.30449  -1910329.88446                  22463929.5884
       409.0004         20.0004
  21296931.1514    6467717.78349   5039776.93746                  21296934.4484
       631.0004         28.0004
  23163210.2714    6139561.40349   4784069.49946                  23163214.7774
       321.0004         10.0004
  24380211.8954    -587732.68148   -457972.41744
       138.0004          1.0004
  23283116.9194   -6783066.35048  -5285495.62645                  23283121.5984
       280.0004          7.0004
 05  6 29 18  3  0.0000000  0  8G 1G14G22G19G15G 3G11G25
  21286087.9084  -11826655.20749  -9215566.53247                  21286091.2854
       722.0004         41.0004
  20271898.3334   -3685012.08849  -2871434.72247                  20271899.5814
       631.0004         63.0004
  21383330.8914    3212972.80849   2503616.37947                  21383330.4294
       763.0004         43.0004
  22467812.1814   -2431176.34249  -1894422.91846                  22467813.8284
       432.0004         20.0004
  21311571.2084    6544652.49949   5099726.03746                  21311575.0094
       614.0004         28.0004
  23176360.3224    6208665.50249   4837916.77546                  23176365.1104
       329.0004         10.0004
  24361654.8814    -685249.09748   -533959.13544                  24361658.2564
       163.0004          2.0004
  23264186.0974   -6882548.97648  -5363014.45145                  23264189.5704
       288.0004          7.0004
 05  6 29 18  3 30.0000000  0  8G 1G14G22G19G15G 3G11G25
  21274976.6564  -11885044.85349  -9261064.91947                  21274980.0944
       722.0004         41.0004
  20273616.4514   -3675983.55549  -2864399.49047                  20273617.8164
       631.0004         65.0004
  21389591.8674    3245873.79249   2529253.50747                  21389591.4434
       763.0004         42.0004
  22471793.7884   -2410255.69149  -1878121.14246                  22471795.8294
       444.0004         21.0004
  21326286.1134    6621979.90349   5159981.11746                  21326289.6574
       631.0004         29.0004
  23189554.9364    6277999.40749   4891943.12646                  23189559.7094
       348.0004         10.0004
  24343119.9934    -782648.44548   -609854.65844                  24343123.1514
       167.0004          2.0004
  23245274.8304   -6981926.90248  -5440451.66645                  23245278.6604
       296.0004          8.0004
 05  6 29 18  4  0.0000000  0  8G 1G14G22G19G15G 3G11G25
  21263942.5754  -11943029.22249  -9306247.50347                  21263945.7794
       722.0004         41.0004
  20275422.1494   -3666494.80349  -2857005.64447                  20275423.5664
       631.0004         65.0004
  21395879.8394    3278919.76849   2555003.61347                  21395879.7104
       742.0004         42.0004
  22475872.8234   -2388815.51849  -1861414.54646                  22475875.0264
       420.0004         21.0004
  21341078.0944    6699713.03449   5220552.35646                  21341081.6234
       614.0004         28.0004
  23202794.9794    6347574.32649   4946157.27846                  23202799.8564
       357.0004         10.0004
  24324611.9434    -879914.98348   -685646.67444                  24324615.9954
       181.0004          3.0004
  23226387.1664   -7081182.73748  -5517793.77745                  23226390.4564
       304.0004          8.0004
 05  6 29 18  4 30.0000000  0  8G 1G14G22G19G15G 3G11G25
  21252983.6084  -12000618.41049  -9351122.15747                  21252987.0014
       722.0004         41.0004
  20277313.0964   -3656558.04749  -2849262.70547                  20277314.2684
       631.0004         65.0004
  21402193.9494    3312100.16949   2580858.46147                  21402194.1674
       742.0004         40.0004
  22480049.4474   -2366867.83349  -1844312.47646                  22480052.0364
       420.0004         21.0004
  21355945.1144    6777839.96649   5281430.44946                  21355948.8924
       582.0004         26.0004
  23216077.0694    6417376.99249   5000548.88846                  23216082.2134
       329.0004         10.0004
  24306126.4604    -977056.84248   -761341.52244                  24306129.0304
       202.0004          3.0004
  23207521.1294   -7180324.35748  -5595046.87445                  23207524.5744
       312.0004          7.0004
 05  6 29 18  5  0.0000000  0  8G 1G14G22G19G15G 3G11G25
  21242101.2564  -12057805.65949  -9395683.60647                  21242104.7274
       722.0004         42.0004
  20279290.1674   -3646168.37449  -2841166.84347                  20279291.2864
       631.0004         63.0004
  21408534.9484    3345421.23349   2606822.91747                  21408535.0454
       742.0004         40.0004
  22484323.6794   -2344407.96449  -1826811.30346                  22484325.8764
       432.0004         21.0004
  21370888.3984    6856365.46549   5342619.11146                  21370891.8064
       598.0004         26.0004
  23229404.3954    6487410.46549   5055120.36045                  23229410.2594
       338.0004          9.0004
  24287666.6214   -1074065.56148   -836932.64045                  24287669.1044
       225.0004          4.0004
  23188678.3894   -7279342.71048  -5672203.94245                  23188682.1124
       312.0004          8.0004
 05  6 29 18  5 30.0000000  0  8G 1G14G22G19G15G 3G11G25
  21231297.0454  -12114580.90649  -9439924.01847                  21231300.6784
       703.0004         41.0004
  20281354.8934   -3635317.56149  -2832711.65247                  20281356.1244
       631.0004         61.0004
  21414904.2184    3378892.85049   2632904.69747                  21414904.2994
       742.0004         40.0004
  22488697.2064   -2321427.78849  -1808904.69646                  22488699.6384
       444.0004         21.0004
  21385909.0324    6935297.87949   5404124.84646                  21385912.1294
       631.0004         26.0004
  23242776.5674    6557681.95449   5109877.30045                  23242781.4764
       329.0004          8.0004
  24269233.7824   -1170929.35848   -912410.85045                  24269235.2124
       238.0004          4.0004
  23169861.2804   -7378225.29348  -5749255.20945                  23169865.3864
       304.0004          8.0004
 05  6 29 18  6  0.0000000  0  8G 1G14G22G19G15G 3G11G25
  21220571.5294  -12170944.41349  -9483843.59247                  21220575.0194
       722.0004         41.0004
  20283506.7464   -3624007.84449  -2823898.87147                  20283508.4644
       614.0004         61.0004
  21421302.3544    3412514.07249   2659103.04347                  21421302.4084
       742.0004         40.0004
  22493168.1704   -2297929.50549  -1790594.37346                  22493170.5764
       420.0004         21.0004
  21401006.6234    7014634.86449   5465945.83346                  21401009.3634
       648.0004         26.0004
  23256193.6754    6628187.41449   5164816.55145                  23256198.1974
       338.0004          9.0004
  24250828.9984   -1267646.86948   -987775.08745                  24250832.1584
       251.0004          4.0004
  23151070.6134   -7476969.89048  -5826198.93645                  23151074.3434
       304.0004          8.0004
 05  6 29 18  6 30.0000000  0  8G 1G14G22G19G15G 3G11G25
  21209920.9464  -12226913.07049  -9527455.49447                  21209924.5234
       722.0004         42.0004
  20285742.9104   -3612257.91149  -2814743.06647                  20285744.3264
       614.0004         61.0004
  21427725.1104    3446267.68249   2685404.54847                  21427725.2444
       722.0004         39.0004
  22497734.9324   -2273932.19149  -1771895.19246                  22497737.1564
       420.0004         20.0004
  21416176.7774    7094357.58849   5528067.40146                  21416179.9624
       614.0004         26.0004
  23269650.8224    6698906.72149   5219922.43445                  23269655.7954
       321.0004          9.0004
  24232449.2524   -1364233.32048  -1063037.19545                  24232451.8574
       244.0004          5.0004
  23132303.5154   -7575591.37248  -5903046.74245                  23132308.1534
       312.0004          8.0004
 05  6 29 18  7  0.0000000  0  8G 1G14G22G19G15G 3G11G25
  21199345.4404  -12282488.62749  -9570761.08747                  21199348.8084
       722.0004         42.0004
  20288061.9674   -3600071.34149  -2805247.02747                  20288063.2374
       614.0004         61.0004
  21434173.2214    3480151.79949   2711807.74347                  21434173.2584
       722.0004         39.0004
  22502395.5994   -2249439.27249  -1752809.82746                  22502398.1964
       409.0004         20.0004
  21431420.0534    7174462.36749   5590486.66946                  21431423.8244
       598.0004         26.0004
  23283147.3334    6769834.77448   5275190.97445                  23283152.5634
       304.0004          8.0004
  24214094.6274   -1460688.51348  -1138197.00845                  24214098.1724
       258.0004          5.0004
  23113560.4344   -7674088.46849  -5979797.63145                  23113564.2774
       329.0004          8.0004
 05  6 29 18  7 30.0000000  0  8G 1G14G22G19G15G 3G11G25
  21188843.9454  -12337673.91349  -9613762.57447                  21188847.3314
       722.0004         41.0004
  20290462.9944   -3587452.79549  -2795414.38147                  20290464.3314
       598.0004         60.0004
  21440645.7134    3514163.08549   2738310.03847                  21440645.2894
       742.0004         39.0004
  22507150.3964   -2224456.02749  -1733342.38546                  22507152.1684
       420.0004         19.0004
  21446735.3294    7254944.66549   5653200.10546                  21446738.9094
       582.0004         25.0004
  23296683.5864    6840965.32648   5330617.31245                  23296688.7674
       312.0004          9.0004
  24195765.0504   -1557013.36448  -1213255.29745                  24195768.1384
       280.0004          5.0004
  23094840.3494   -7772461.76049  -6056452.05545                  23094844.5954
       329.0004          9.0004
 05  6 29 18  8  0.0000000  0  8G 1G14G22G19G15G 3G11G25
  21178416.8324  -12392467.69349  -9656458.98747                  21178420.1964
       722.0004         42.0004
  20292946.4494   -3574403.19349  -2785245.84947                  20292947.8284
       614.0004         60.0004
  21447141.7404    3548302.17749   2764911.92047                  21447141.7594
       722.0004         38.0004
  22511997.1364   -2198982.99149  -1713493.29046                  22511999.3214
       409.0004         20.0004
  21462122.4544    7335803.76049   5716207.14646                  21462126.2294
       598.0004         26.0004
  23310258.5024    6912296.27749   5386199.81045                  23310263.3264
       329.0004          8.0004
  24177459.9374   -1653205.30448  -1288210.01345                  24177463.0144
       238.0004          5.0004
  23076144.7714   -7870707.51749  -6133007.09145                  23076149.4584
       321.0004          9.0004
 05  6 29 18  8 30.0000000  0  8G 1G14G22G19G15G 3G11G25
  21168068.3294  -12446850.12849  -9698834.87147                  21168071.6854
       742.0004         44.0004
  20295515.1374   -3560904.39349  -2774727.29447                  20295516.5554
       598.0004         58.0004
  21453666.6834    3582588.89449   2791628.82747                  21453666.0674
       742.0004         38.0004
  22516940.9634   -2173002.15349  -1693248.51546                  22516943.5544
       398.0004         18.0004
  21477584.7184    7417057.70549   5779521.86846                  21477588.2164
       598.0004         26.0004
  23323872.9394    6983844.15648   5441951.34545                  23323878.7134
       312.0004          8.0004
  24159183.8904   -1749242.49648  -1363044.10545                  24159187.9954
       238.0004          5.0004
  23057478.0234   -7968804.21049  -6209445.97545                  23057483.0914
       321.0004          9.0004
 05  6 29 18  9  0.0000000  0  8G 1G14G22G19G15G 3G11G25
  21157800.5864  -12500807.10349  -9740879.23347                  21157803.8294
       742.0004         46.0004
  20298171.5794   -3546944.14849  -2763849.17247                  20298172.7464
       598.0004         58.0004
  21460221.6584    3617037.29849   2818471.73047                  21460221.8024
       722.0004         37.0004
  22521984.1644   -2146501.56749  -1672598.74046                  22521986.1834
       409.0004         18.0004
  21493124.8954    7498718.76249   5843153.81946                  21493128.2914
       631.0004         27.0004
  23337530.6344    7055620.14748   5497880.62445                  23337536.6384
       296.0004          8.0004
  24140940.5764   -1845108.83648  -1437745.10945                  24140944.5484
       214.0004          4.0004
  23038841.9714   -8066734.83748  -6285755.46545                  23038846.2404
       312.0004          9.0004
 05  6 29 18  9 30.0000000  0  8G 1G14G22G19G15G 3G11G25
  21147610.0724  -12554358.59749  -9782607.63547                  21147613.4004
       742.0004         44.0004
  20300911.9964   -3532544.08849  -2752628.34147                  20300913.0094
       598.0004         60.0004
  21466803.8484    3651626.72849   2845424.51947                  21466803.5644
       722.0004         37.0004
  22527122.6344   -2119503.36249  -1651561.20846                  22527124.5834
       444.0004         18.0004
  21508737.4604    7580764.95549   5907085.87446                  21508740.8364
       598.0004         26.0004
  23351228.6624    7127600.83448   5553969.40345                  23351233.9694
       312.0004          9.0004
  24122726.6404   -1940822.57348  -1512327.19745                  24122728.9594
       214.0004          4.0004
  23020234.6034   -8164516.69148  -6361949.01045                  23020239.5564
       304.0004          9.0004
 05  6 29 18 10  0.0000000  0  8G 1G14G22G19G15G 3G11G25
  21137496.2384  -12607505.54449  -9824020.80247                  21137499.7714
       722.0004         44.0004
  20303735.2864   -3517706.90149  -2741066.88747                  20303736.7004
       598.0004         58.0004
  21473412.8254    3686356.56649   2872486.71647                  21473413.0384
       722.0004         38.0004
  22532354.2644   -2092010.44049  -1630138.18146                  22532356.8944
       432.0004         19.0004
  21524423.1344    7663193.69049   5971316.01746                  21524426.6164
       582.0004         25.0004
  23364965.5144    7199781.93149   5610214.34845                  23364970.7474
       338.0004          9.0004
  24104542.2894   -2036382.76748  -1586789.64145                  24104544.7594
       214.0004          4.0004
  23001655.5044   -8262147.97048  -6438025.23445                  23001661.3664
       296.0004          9.0004
 05  6 29 18 10 30.0000000  0  8G 1G14G22G19G15G 3G11G25
  21127457.3904  -12660262.71749  -9865130.25247                  21127460.6654
       763.0004         46.0004
  20306638.5114   -3502449.86349  -2729178.27547                  20306639.8634
       598.0004         58.0004
  21480045.8114    3721211.31949   2899646.24947                  21480045.3174
       763.0004         38.0004
  22537676.6894   -2064039.46049  -1608342.64746                  22537679.2824
       432.0004         18.0004
  21540177.9534    7745988.17049   6035831.14446                  21540181.8554
       566.0004         24.0004
  23378735.0854    7272145.26649   5666601.29045                  23378740.3804
       321.0004          9.0004
  24086383.7884   -2131802.29248  -1661142.45445                  24086386.0824
       202.0004          4.0004
  22983102.8264   -8359641.52948  -6513994.16145                  22983107.7404
       296.0004          9.0004
 05  6 29 18 11  0.0000000  0  8G 1G14G22G19G15G 3G11G25
  21117497.4874  -12712601.72749  -9905913.86247                  21117500.7654
       763.0004         46.0004
  20309627.1974   -3486746.10749  -2716941.57347                  20309628.4254
       614.0004         60.0004
  21486707.3944    3756219.15449   2926925.07447                  21486706.8174
       742.0004         37.0004
  22543095.4954   -2035564.02049  -1586154.02046                  22543097.2824
       444.0004         19.0004
  21556008.1634    7829174.94849   6100651.96746                  21556011.9814
       566.0004         24.0004
  23392543.8194    7344716.09648   5723149.92145                  23392549.8764
       296.0004          9.0004
  24068259.3084   -2227050.72748  -1735361.98945                  24068262.2134
       214.0004          4.0004
  22964581.4464   -8456966.07348  -6589831.38645                  22964587.9584
       280.0004          8.0004
 05  6 29 18 11 30.0000000  0  8G 1G14G22G19G15G 3G11G25
  21107616.1714  -12764528.21349  -9946376.02747                  21107619.6754
       763.0004         47.0004
  20312699.1894   -3470603.03549  -2704362.54747                  20312700.3704
       614.0004         58.0004
  21493397.2194    3791374.50649   2954318.84447                  21493397.0424
       742.0004         38.0004
  22548608.4224   -2006592.29149  -1563578.67846                  22548610.6754
       432.0004         19.0004
  21571911.5684    7912746.32849   6165772.47946                  21571915.3554
       582.0004         25.0004
  23406392.9244    7417485.57449   5779853.33845                  23406399.1284
       329.0004          9.0004
  24050166.1404   -2322131.79048  -1809451.07045                  24050170.7644
       219.0004          4.0004
  22946093.5484   -8554124.63948  -6665539.27845                  22946098.4894
       296.0004          9.0004
 05  6 29 18 12  0.0000000  0  8G 1G14G22G19G15G 3G11G25
  21097811.7404  -12816050.66749  -9986523.35747                  21097814.9814
       763.0004         46.0004
  20315852.3134   -3454030.98349  -2691449.25247                  20315853.5394
       598.0004         57.0004
  21500113.5114    3826668.88449   2981820.95047                  21500113.4104
       742.0004         38.0004
  22554214.2494   -1977134.48749  -1540624.58146                  22554216.2264
       444.0004         19.0004
  21587885.6694    7996692.21249   6231184.80746                  21587889.4684
       551.0004         24.0004
  23420275.7054    7490442.16849   5836702.57945                  23420280.4924
       329.0004          9.0004
  24032103.4024   -2417052.36448  -1883415.10645                  24032107.9464
       232.0004          5.0004
  22927636.1394   -8651123.29048  -6741122.56045                  22927640.5224
       312.0004          9.0004
 05  6 29 18 12 30.0000000  0  8G 1G14G22G19G15G 3G11G25
  21088080.9224  -12867185.48949 -10026368.63847                  21088084.3074
       763.0004         47.0004
  20319084.0724   -3437048.33549  -2678216.01147                  20319085.4394
       614.0004         58.0004
  21506852.9554    3862085.58549   3009418.36847                  21506853.0144
       722.0004         38.0004
  22559908.0184   -1947209.12749  -1517306.14846                  22559910.5784
       420.0004         19.0004
  21603927.9484    8080994.45549   6296874.83046                  21603932.0854
       566.0004         24.0004
  23434191.0114    7563565.99249   5893682.11845                  23434197.0544
       321.0004          9.0004
  24014067.9874   -2511826.55248  -1957265.09145                  24014069.8714
       225.0004          4.0004
  22909205.7264   -8747975.85348  -6816591.99745                  22909210.4974
       312.0004          9.0004
 05  6 29 18 13  0.0000000  0  8G 1G14G22G19G15G 3G11G25
  21078432.8124  -12917887.19749 -10065876.43447                  21078436.1714
       763.0004         48.0004
  20322402.2534   -3419611.35549  -2664628.74847                  20322403.6474
       614.0004         60.0004
  21513624.7824    3897669.97249   3037146.44947                  21513624.5844
       742.0004         40.0004
  22565700.4544   -1916773.03349  -1493589.74846                  22565702.8084
       432.0004         19.0004
  21620046.1514    8165696.32249   6362876.23846                  21620049.9614
       551.0004         24.0004
  23448144.8644    7636899.55748   5950825.10645                  23448151.4084
       296.0004          8.0004
  23996069.8254   -2606407.10148  -2030964.17445                  23996072.5304
       225.0004          4.0004
  22890811.6804   -8844634.12848  -6891910.05245                  22890815.8454
       312.0004          9.0004
 05  6 29 18 13 30.0000000  0  8G 1G14G22G19G15G 3G11G25
  21068870.9934  -12968134.22549 -10105029.93047                  21068874.3984
       763.0004         48.0004
  20325810.7084   -3401700.01849  -2650671.85647                  20325812.0424
       614.0004         60.0004
  21520432.4454    3933443.39149   3065021.83047                  21520431.4664
       763.0004         39.0004
  22571593.1954   -1885806.38149  -1469459.92746                  22571594.8954
       432.0004         19.0004
  21636244.3944    8250817.43349   6429204.32846                  21636247.9324
       566.0004         23.0004
  23462144.1384    7710461.27548   6008145.85145                  23462149.6284
       304.0004          9.0004
  23978113.3434   -2700770.13648  -2104493.74745                  23978116.7094
       219.0004          5.0004
  22872459.8574   -8941074.17349  -6967058.05246                  22872464.1304
       329.0004         10.0004
 05  6 29 18 14  0.0000000  0  8G 1G14G22G19G15G 3G11G25
  21059380.7314  -13018005.15449 -10143890.36147                  21059384.1314
       763.0004         48.0004
  20329294.0444   -3383394.92049  -2636408.13847                  20329295.1904
       631.0004         58.0004
  21527260.6024    3969327.34049   3092983.34247                  21527260.2524
       742.0004         39.0004
  22577571.9104   -1854389.68649  -1444979.41846                  22577573.7764
       432.0004         19.0004
  21652506.5844    8336277.59449   6495796.61546                  21652510.7604
       536.0004         22.0004
  23476170.2114    7784169.55748   6065580.80245                  23476176.6384
       296.0004          8.0004
  23960182.9024   -2794992.38748  -2177913.64445                  23960185.5374
       214.0004          4.0004
  22854134.6684   -9037371.88849  -7042095.14746                  22854138.9204
       348.0004         10.0004
 05  6 29 18 14 30.0000000  0  8G 1G14G22G19G15G 3G11G25
  21049969.6064  -13067462.44749 -10182428.48347                  21049972.8304
       784.0004         49.0004
  20332859.1214   -3364660.26149  -2621809.69347                  20332860.2464
       631.0004         60.0004
  21534117.2494    4005359.25049   3121060.14547                  21534117.0024
       742.0004         38.0004
  22583642.5884   -1822487.75249  -1420120.79746                  22583644.7614
       420.0004         19.0004
  21668840.7344    8422112.60349   6562680.99246                  21668844.6374
       536.0004         21.0004
  23490230.6824    7858058.52248   6123156.53945                  23490236.2654
       296.0004          8.0004
  23942287.1254   -2889034.10448  -2251192.84745                  23942291.4664
       208.0004          5.0004
  22835845.1194   -9133486.92149  -7116989.90146                  22835848.3354
       377.0004         11.0004
 05  6 29 18 15  0.0000000  0  8G 1G14G22G19G15G 3G11G25
  21040637.0734  -13116504.03949 -10220642.67947                  21040640.4574
       784.0004         49.0004
  20336506.0254   -3345495.90949  -2606876.42547                  20336507.3644
       631.0004         60.0004
  21541002.4154    4041541.56349   3149254.14347                  21541002.6174
       722.0004         38.0004
  22589805.3914   -1790100.43249  -1394883.95246                  22589808.3334
       409.0004         19.0004
  21685245.9084    8508322.43149   6629857.42746                  21685249.6464
       522.0004         20.0004
  23504325.6254    7932127.21548   6180872.33045                  23504331.0764
       296.0004          8.0004
  23924426.9214   -2982891.41948  -2324328.36345                  23924430.7604
       197.0004          4.0004
  22817590.7554   -9229414.68549  -7191738.72346                  22817593.9604
       387.0004         10.0004
 05  6 29 18 15 30.0000000  0  8G 1G14G22G19G15G 3G11G25
  21031382.6064  -13165136.65349 -10258538.19147                  21031385.9004
       784.0004         49.0004
  20340233.0184   -3325910.24249  -2591614.86447                  20340234.0704
       631.0004         60.0004
  21547915.1284    4077866.99049   3177559.65747                  21547914.7114
       722.0004         38.0004
  22596059.0604   -1757236.43149  -1369275.67746                  22596061.5024
       387.0004         18.0004
  21701720.8294    8594898.74149   6697319.43846                  21701724.9644
       522.0004         20.0004
  23518452.8164    8006365.70948   6238720.43445                  23518457.6194
       288.0004          7.0004
  23906601.0634   -3076568.48348  -2397323.43045                  23906602.4644
       186.0004          4.0004
  22799371.1694   -9325159.05849  -7266344.66446                  22799374.5834
       398.0004         10.0004
 05  6 29 18 16  0.0000000  0  8G 1G14G22G19G15G 3G11G25
  21022203.9594  -13213372.10849 -10296124.22547                  21022207.1184
       805.0004         51.0004
  20344037.5944   -3305916.91849  -2576035.64147                  20344038.5604
       648.0004         60.0004
  21554852.4874    4114324.09849   3205967.78947                  21554851.9724
       722.0004         37.0004
  22602401.0604   -1723909.50049  -1343306.66546                  22602403.4754
       387.0004         19.0004
  21718262.4334    8681827.78149   6765056.30846                  21718267.3284
       508.0004         20.0004
  23532609.2824    8080759.18448   6296689.31645                  23532616.4334
       288.0004          6.0004
  23888806.4234   -3170075.07348  -2470185.64444                  23888810.1744
       167.0004          3.0004
  22781184.2164   -9420729.26449  -7340814.87246                  22781187.9644
       377.0004         10.0004
 05  6 29 18 16 30.0000000  0  8G 1G14G22G19G15G 3G11G25
  21013105.6084  -13261183.53449 -10333379.84947                  21013108.8294
       805.0004         49.0004
  20347924.5304   -3285491.04349  -2560119.36647                  20347925.5764
       648.0004         61.0004
  21561820.0604    4150939.37649   3234499.16747                  21561819.6864
       703.0004         36.0004
  22608836.2974   -1690095.26849  -1316957.93846                  22608838.3094
       398.0004         19.0004
  21734876.6404    8769134.49049   6833087.47046                  21734880.7124
       508.0004         19.0004
  23546800.1904    8155331.42848   6354797.48645                  23546805.0024
       280.0004          6.0004
  23871051.3964   -3263382.58648  -2542892.73644                  23871054.9544
       177.0004          3.0004
  22763036.6614   -9516095.81649  -7415126.39946                  22763041.2384
       377.0004         10.0004
 05  6 29 18 17  0.0000000  0  8G 1G14G22G19G15G 3G11G25
  21004084.9424  -13308586.08949 -10370316.87147                  21004088.3174
       784.0004         49.0004
  20351890.7534   -3264649.60249  -2543879.27047                  20351891.9164
       666.0004         61.0004
  21568815.0244    4187697.88049   3263142.15247                  21568814.8704
       703.0004         37.0004
  22615359.2864   -1655811.32249  -1290243.19946                  22615362.3684
       367.0004         18.0004
  21751559.4424    8856801.93749   6901399.71946                  21751562.7424
       522.0004         19.0004
  23561020.6554    8230063.96148   6413030.56845                  23561027.2684
       265.0004          7.0004
  23853330.3514   -3356504.39548  -2615455.16244                  23853334.5654
       146.0004          3.0004
  22744925.9084   -9611271.07849  -7489288.86646                  22744929.2244
       409.0004         11.0004
 05  6 29 18 17 30.0000000  0  8G 1G14G22G19G15G 3G11G25
  20995142.5094  -13355580.53649 -10406935.88647                  20995145.7224
       805.0004         51.0004
  20355934.9804   -3243395.06349  -2527317.28347                  20355936.3194
       648.0004         61.0004
  21575837.2674    4224598.66649   3291895.99747                  21575836.8814
       722.0004         36.0004
  22621971.9004   -1621060.48949  -1263164.65346                  22621974.7134
       357.0004         18.0004
  21768310.3414    8944827.64549   6969991.11946                  21768314.2254
       522.0004         20.0004
  23575272.1054    8304953.22448   6471385.75645                  23575279.2704
       265.0004          7.0004
  23835646.8394   -3449438.72048  -2687871.44844                  23835651.9314
       158.0004          3.0004
  22726851.0094   -9706253.29349  -7563300.90546                  22726854.5394
       409.0004         12.0004
 05  6 29 18 18  0.0000000  0  8G 1G14G22G19G15G 3G11G25
  20986280.0244  -13402153.13549 -10443226.18747                  20986283.2044
       805.0004         52.0004
  20360060.7564   -3221715.42349  -2510424.04847                  20360061.8544
       648.0004         60.0004
  21582888.8514    4261655.72349   3320771.62347                  21582888.1264
       703.0004         35.0004
  22628677.0624   -1585831.41149  -1235713.43146                  22628679.3084
       398.0004         17.0004
  21785131.3844    9033223.45749   7038870.91746                  21785134.9684
       522.0004         19.0004
  23589554.4054    8380009.86248   6529871.35745                  23589560.6284
       251.0004          7.0004
  23817999.8754   -3542169.69748  -2760129.31144                  23818003.1814
       163.0004          3.0004
  22708816.5474   -9801025.77249  -7637149.50846                  22708821.1094
       420.0004         12.0004
 05  6 29 18 18 30.0000000  0  8G 1G14G22G19G15G 3G11G25
  20977492.7614  -13448329.96949 -10479208.10447                  20977495.9424
       805.0004         52.0004
  20364261.5154   -3199638.75549  -2493221.44247                  20364262.6674
       648.0004         60.0004
  21589965.3474    4298842.89749   3349748.63747                  21589965.1014
       703.0004         36.0004
  22635466.2464   -1550151.23749  -1207910.73046                  22635469.1624
       377.0004         18.0004
  21802017.9074    9121961.37349   7108017.29746                  21802021.5584
       536.0004         19.0004
  23603864.4154    8455204.99948   6588464.90045                  23603870.1364
       272.0004          7.0004
  23800388.4874   -3634721.14648  -2832247.25845                  23800390.3154
       172.0004          4.0004
  22690817.5774   -9895611.95049  -7710852.94346                  22690821.1914
       420.0004         12.0004
 05  6 29 18 19  0.0000000  0  8G 1G14G22G19G15G 3G11G25
  20968783.4074  -13494097.50549 -10514871.08747                  20968786.6904
       805.0004         51.0004
  20368540.8904   -3177153.06749  -2475700.11847                  20368541.8824
       666.0004         63.0004
  21597068.8864    4336174.26849   3378838.00647                  21597069.1784
       684.0004         36.0004
  22642343.8154   -1514008.80949  -1179747.82446                  22642346.7394
       377.0004         16.0004
  21818970.8174    9211053.23449   7177439.47546                  21818975.3754
       494.0004         19.0004
  23618202.5234    8530549.05748   6647174.48945                  23618207.4694
       288.0004          7.0004
  23782813.7704   -3727077.41348  -2904213.12144                  23782816.9784
       172.0004          3.0004
  22672856.3244   -9989995.67249  -7784398.62146                  22672860.1534
       398.0004         12.0004
 05  6 29 18 19 30.0000000  0  8G 1G14G22G19G15G 3G11G25
  20960152.1604  -13539452.60549 -10550212.68847                  20960155.6324
       784.0004         51.0004
  20372897.6424   -3154256.85549  -2457858.91447                  20372898.7744
       666.0004         61.0004
  21604201.0104    4373653.07349   3408042.26347                  21604201.2854
       684.0004         35.0004
  22649310.2584   -1477402.95449  -1151223.82046                  22649312.7824
       398.0004         17.0004
  21835992.5674    9300500.41649   7247138.53146                  21835996.9984
       494.0004         18.0004
  23632568.4704    8606042.01348   6706000.09245                  23632573.5874
       280.0004          7.0004
  23765276.2794   -3819232.74648  -2976022.43945                  23765281.5264
       181.0004          4.0004
  22654935.1314  -10084170.76149  -7857781.72446                  22654938.6454
       387.0004         11.0004
 05  6 29 18 20  0.0000000  0  8G 1G14G22G19G15G 3G11G25
  20951602.3904  -13584383.96349 -10585224.10147                  20951605.7234
       805.0004         51.0004
  20377334.6634   -3130940.52449  -2439690.33747                  20377335.8224
       666.0004         61.0004
  21611363.4344    4411290.93449   3437370.46447                  21611363.0754
       703.0004         35.0004
  22656366.0774   -1440324.77749  -1122331.77446                  22656368.1184
       409.0004         17.0004
  21853083.1494    9390312.26349   7317121.73546                  21853087.2934
       494.0004         18.0004
  23646963.9604    8681692.20748   6764948.22145                  23646969.3864
       265.0004          7.0004
  23747781.3854   -3911173.61348  -3047664.59745                  23747784.0414
       208.0004          5.0004
  22637056.1684  -10178122.96149  -7930991.16146                  22637060.0164
       377.0004         11.0004
 05  6 29 18 20 30.0000000  0  8G 1G14G22G19G15G 3G11G25
  20943131.0384  -13628900.00349 -10619911.89247                  20943134.1944
       784.0004         52.0004
  20381849.3404   -3107214.34749  -2421202.40247                  20381850.7324
       648.0004         61.0004
  21618554.3264    4449079.32649   3466815.96547                  21618554.3894
       703.0004         33.0004
  22663509.7274   -1402784.99449  -1093080.08146                  22663510.8754
       409.0004         17.0004
  21870241.9074    9480478.52249   7387381.11146                  21870245.8234
       522.0004         19.0004
  23661388.0924    8757488.23048   6824009.97945                  23661393.3854
       272.0004          6.0004
  23730325.4834   -4002906.39748  -3119144.66145                  23730328.8464
       208.0004          4.0004
  22619218.9414  -10271858.24049  -8004031.55346                  22619222.9124
       377.0004         11.0004
 05  6 29 18 21  0.0000000  0  8G 1G14G22G19G15G 3G11G25
  20934736.3104  -13673015.06549 -10654287.23047                  20934739.5684
       784.0004         52.0004
  20386439.2004   -3083094.84749  -2402407.98347                  20386440.3884
       648.0004         61.0004
  21625771.1294    4487003.79749   3496367.48347                  21625770.9254
       703.0004         35.0004
  22670737.3494   -1364800.26249  -1063481.53646                  22670740.2294
       387.0004         16.0004
  21887463.9724    9570983.10649   7457904.11046                  21887468.4594
       508.0004         19.0004
  23675835.2244    8833412.79448   6883171.88145                  23675840.2944
       265.0004          7.0004
  23712906.2014   -4094443.45248  -3190472.17045                  23712909.2884
       232.0004          6.0004
  22601421.0304  -10365388.40949  -8076912.11946                  22601425.3504
       387.0004         12.0004
 05  6 29 18 21 30.0000000  0  8G 1G14G22G19G15G 3G11G25
  20926418.5204  -13716724.09049 -10688346.17547                  20926421.7234
       784.0004         52.0004
  20391104.5714   -3058578.23249  -2383304.12647                  20391105.7004
       648.0004         61.0004
  21633015.0394    4525069.77649   3526029.27147                  21633014.9624
       722.0004         35.0004
  22678051.5754   -1326367.32149  -1033533.85246                  22678054.3634
       409.0004         16.0004
  21904751.4904    9661829.19449   7528693.21946                  21904756.0784
       494.0004         18.0004
  23690307.8744    8909468.03948   6942435.63645                  23690313.2874
       265.0004          7.0004
  23695525.6744   -4185777.18948  -3261641.26145                  23695528.9674
       219.0004          5.0004
  22583663.5714  -10458705.24349  -8149626.44546                  22583667.1644
       398.0004         12.0004
 05  6 29 18 22  0.0000000  0  8G 1G14G22G19G15G 3G11G25
  20918180.9364  -13760014.40649 -10722078.85647                  20918184.1374
       805.0004         52.0004
  20395847.4664   -3033653.75649  -2363882.44947                  20395848.7404
       648.0004         60.0004
  21640288.0534    4563290.14849   3555811.37147                  21640287.4604
       722.0004         33.0004
  22685452.7124   -1287475.75349  -1003228.78846                  22685454.8214
       420.0004         16.0004
  21922105.7364    9753027.53549   7599756.80246                  21922109.7634
       481.0004         17.0004
  23704807.8904    8985663.76948   7001808.86745                  23704814.7054
       288.0004          8.0004
  23678187.2004   -4276892.62048  -3332640.25545                  23678189.4994
       244.0004          6.0004
  22565948.9044  -10551793.17549  -8222162.41346                  22565953.0544
       377.0004         13.0004
 05  6 29 18 22 30.0000000  0  8G 1G14G22G19G15G 3G11G25
  20910021.2494  -13802894.10349 -10755491.57747                  20910024.5294
       805.0004         54.0004
  20400666.1734   -3008331.01549  -2344150.43447                  20400667.4524
       648.0004         61.0004
  21647589.2524    4601657.04749   3585707.64947                  21647589.0384
       722.0004         35.0004
  22692937.9954   -1248135.75649   -972574.28746                  22692940.0584
       387.0004         15.0004
  21939525.7854    9844568.54949   7671087.41246                  21939529.7104
       494.0004         18.0004
  23719332.8894    9061989.18748   7061283.14545                  23719338.7064
       304.0004          8.0004
  23660887.9564   -4367795.43648  -3403473.58145                  23660891.0504
       219.0004          5.0004
  22548277.4034  -10644657.32449  -8294524.00246                  22548280.7924
       377.0004         13.0004
 05  6 29 18 23  0.0000000  0  8G 1G14G22G19G15G 3G11G25
  20901938.5914  -13845367.67849 -10788587.83647                  20901941.8044
       784.0004         54.0004
  20405559.9244   -2982616.28149  -2324112.97447                  20405561.2714
       666.0004         61.0004
  21654917.2694    4640166.35949   3615714.89647                  21654916.8624
       722.0004         34.0004
  22700508.6314   -1208353.97649   -941575.53546                  22700510.6994
       398.0004         16.0004
  21957008.9924    9936445.85949   7742680.07146                  21957013.2204
       481.0004         18.0004
  23733879.8754    9138436.87248   7120852.70345                  23733885.4834
       288.0004          7.0004
  23643630.7034   -4458488.08948  -3474143.10645                  23643633.8434
       232.0004          6.0004
  22530648.8294  -10737299.48549  -8366712.60646                  22530652.2464
       409.0004         13.0004
 05  6 29 18 23 30.0000000  0  8G 1G14G22G19G15G 3G11G25
  20893939.5204  -13887403.72349 -10821343.16447                  20893942.7044
       805.0004         54.0004
  20410533.4084   -2956480.06549  -2303747.08847                  20410534.6934
       648.0004         61.0004
  21662278.3764    4678849.91149   3645857.91747                  21662277.8164
       722.0004         33.0004
  22708168.4734   -1168101.12549   -910209.72546                  22708170.9094
       387.0004         15.0004
  21974562.8174   10028688.75649   7814557.59146                  21974566.3734
       494.0004         17.0004
  23748457.2094    9215035.00648   7180539.47745                  23748463.3884
       304.0004          9.0004
  23626419.0524   -4548936.55448  -3544622.35745                  23626420.9894
       232.0004          6.0004
  22513068.6654  -10829685.71249  -8438701.78946                  22513071.5084
       456.0004         14.0004
 05  6 29 18 24  0.0000000  0  8G 1G14G22G19G15G 3G11G25
  20886017.2624  -13929034.04849 -10853782.34847                  20886020.6174
       805.0004         54.0004
  20415580.7044   -2929955.58749  -2283078.65747                  20415581.7594
       648.0004         60.0004
  21669666.7744    4717675.60949   3676111.70947                  21669666.2344
       742.0004         34.0004
  22715911.0104   -1127411.06549   -878503.23146                  22715913.9864
       377.0004         15.0004
  21992179.8984   10121263.91949   7886694.02746                  21992183.0814
       508.0004         16.0004
  23763055.2414    9291749.34848   7240316.79045                  23763060.6844
       296.0004          7.0004
  23609247.9164   -4639170.53648  -3614934.51945                  23609250.7654
       219.0004          6.0004
  22495531.2474  -10921844.81849  -8510514.00046                  22495534.4814
       456.0004         14.0004
 05  6 29 18 24 30.0000000  0  8G 1G14G22G19G15G 3G11G25
  20878171.6944  -13970263.43149 -10885909.11247                  20878174.9054
       805.0004         54.0004
  20420700.8184   -2903049.62249  -2262112.96647                  20420701.8344
       648.0004         60.0004
  21677081.8574    4756639.72249   3706473.34747                  21677081.2214
       763.0004         36.0004
  22723736.2674   -1086290.54849   -846461.31446                  22723738.4654
       367.0004         15.0004
  22009857.9134   10214164.89049   7959084.34546                  22009861.9814
       481.0004         17.0004
  23777673.5254    9368572.14948   7300178.63345                  23777680.2844
       272.0004          7.0004
  23592116.4584   -4729191.98448  -3685081.02945                  23592119.2894
       202.0004          5.0004
  22478036.4484  -11013778.78249  -8582150.77146                  22478039.6514
       456.0004         15.0004
 05  6 29 18 25  0.0000000  0  8G 1G14G22G19G15G 3G11G25
  20870402.0544  -14011093.22449 -10917724.50547                  20870405.0894
       827.0004         55.0004
  20425892.7854   -2875765.00449  -2240852.22047                  20425893.7954
       648.0004         60.0004
  21684522.1754    4795740.85149   3736941.75147                  21684521.2914
       742.0004         35.0004
  22731642.6794   -1044743.35449   -814086.91746                  22731644.3784
       367.0004         15.0004
  22027597.4384   10307388.58449   8031726.11346                  22027602.3394
       444.0004         16.0004
  23792311.6294    9445499.26148   7360121.73645                  23792317.5254
       272.0004          7.0004
  23575025.8394   -4819000.02548  -3755061.25045                  23575029.4764
       177.0004          4.0004
  22460584.9614  -11105485.79349  -8653610.69446                  22460588.2524
       456.0004         15.0004
 05  6 29 18 25 30.0000000  0  8G 1G14G22G19G15G 3G11G25
  20862706.2704  -14051535.91349 -10949238.25747                  20862709.4114
       827.0004         57.0004
  20431154.3074   -2848115.96449  -2219307.50847                  20431155.4834
       648.0004         60.0004
  21691986.9494    4834967.01849   3767507.58947                  21691986.3154
       742.0004         36.0004
  22739627.1184   -1002784.24449   -781391.54846                  22739629.4994
       367.0004         15.0004
  22045396.0084   10400920.70749   8104608.21946                  22045400.4854
       432.0004         15.0004
  23806967.8334    9522515.41448   7420134.26845                  23806974.8244
       288.0004          7.0004
  23557976.3914   -4908604.77148  -3824883.08545                  23557980.0474
       202.0004          5.0004
  22443175.1924  -11196975.16849  -8724901.03746                  22443178.7774
       456.0004         15.0004
 05  6 29 18 26  0.0000000  0  8G 1G14G22G19G15G 3G11G25
  20855088.1094  -14091568.15149 -10980432.17947                  20855091.2974
       827.0004         57.0004
  20436489.1584   -2820080.56349  -2197461.73647                  20436490.2844
       648.0004         58.0004
  21699479.4104    4874341.85549   3798189.27247                  21699478.9584
       722.0004         34.0004
  22747694.7244    -960391.78949   -748358.48646                  22747697.4004
       377.0004         15.0004
  22063257.3714   10494782.60749   8177747.30546                  22063261.6694
       432.0004         14.0004
  23821644.7184    9599641.13948   7480232.16945                  23821650.5164
       304.0004          6.0004
  23540968.9314   -4997980.56348  -3894526.45645                  23540973.4474
       197.0004          4.0004
  22425810.7714  -11288221.18449  -8796001.74846                  22425814.9544
       420.0004         15.0004
 05  6 29 18 26 30.0000000  0  8G 1G14G22G19G15G 3G11G25
  20847549.6014  -14131182.75949 -11011300.67547                  20847552.7784
       827.0004         57.0004
  20441898.7254   -2791653.77449  -2175310.98847                  20441899.7784
       648.0004         60.0004
  21707002.0454    4913873.08849   3828992.82347                  21707001.3514
       722.0004         34.0004
  22755844.5454    -917561.09549   -714983.95046                  22755846.9984
       357.0004         15.0004
  22081182.5784   10588979.97649   8251147.78346                  22081186.7704
       456.0004         15.0004
  23836343.1744    9676880.84148   7540418.87945                  23836348.2084
       288.0004          6.0004
  23524004.6004   -5087117.33648  -3963983.63545                  23524008.5844
       172.0004          4.0004
  22408495.5374  -11379213.39649  -8866904.69746                  22408499.6174
       409.0004         16.0004
 05  6 29 18 27  0.0000000  0  8G 1G14G22G19G15G 3G11G25
  20840092.3164  -14170371.44249 -11041837.28247                  20840095.5034
       827.0004         57.0004
  20447383.8904   -2762828.52549  -2152849.75047                  20447385.0494
       648.0004         58.0004
  21714555.6584    4953569.09549   3859924.77047                  21714555.5064
       703.0004         34.0004
  22764079.9284    -874285.60249   -681262.82646                  22764082.8914
       357.0004         15.0004
  22099173.5684   10683519.32549   8324814.74346                  22099177.3874
       494.0004         16.0004
  23851064.2324    9754240.01148   7600698.69645                  23851070.9734
       280.0004          6.0004
  23507089.6724   -5176004.46948  -4033246.27145                  23507091.1814
       181.0004          4.0004
  22391231.5124  -11469940.59349  -8937601.12446                  22391235.3704
       420.0004         16.0004
 05  6 29 18 27 30.0000000  0  8G 1G14G22G19G15G 3G11G25
  20832714.2914  -14209143.53249 -11072049.27347                  20832717.5024
       827.0004         57.0004
  20452942.9944   -2733615.87449  -2130086.63947                  20452944.0984
       648.0004         58.0004
  21722139.3964    4993421.27049   3890978.40247                  21722139.3564
       722.0004         35.0004
  22772397.3874    -830577.07349   -647204.27246                  22772400.5644
       357.0004         16.0004
  22117226.3964   10778389.62849   8398739.58946                  22117230.5244
       468.0004         15.0004
  23865805.4654    9831706.65748   7661062.21345                  23865812.1774
       265.0004          6.0004
  23490222.1664   -5264648.89648  -4102319.79245                  23490225.3784
       197.0004          4.0004
  22374015.4394  -11560409.41949  -9008096.24546                  22374019.0564
       420.0004         15.0004
 05  6 29 18 28  0.0000000  0  8G 1G14G22G19G15G 3G11G25
  20825414.8264  -14247500.94949 -11101938.14247                  20825418.0174
       805.0004         57.0004
  20458574.7684   -2704019.51749  -2107024.54047                  20458576.1164
       648.0004         58.0004
  21729752.6674    5033428.25149   3922152.65947                  21729752.2284
       703.0004         34.0004
  22780797.1634    -786439.49449   -612811.38846                  22780799.2384
       387.0004         16.0004
  22135341.7714   10873587.11849   8472919.39746                  22135346.3394
       456.0004         14.0004
  23880567.0334    9909276.42948   7721506.09545                  23880572.7604
       258.0004          5.0004
  23473401.0454   -5353049.89048  -4171203.63445                  23473403.1474
       208.0004          4.0004
  22356849.0544  -11650618.22549  -9078388.74746                  22356853.6474
       409.0004         15.0004
 05  6 29 18 28 30.0000000  0  8G 1G14G22G19G15G 3G11G25
  20818193.5034  -14285449.40149 -11131508.34047                  20818196.7684
       805.0004         57.0004
  20464278.4324   -2674046.76349  -2083669.14747                  20464279.6874
       648.0004         58.0004
  21737394.1334    5073584.46449   3953443.20347                  21737393.7874
       703.0004         33.0004
  22789276.4734    -741880.74449   -578090.31546                  22789279.0364
       387.0004         16.0004
  22153517.8794   10969104.37649   8547348.37046                  22153523.0924
       432.0004         14.0004
  23895345.8114    9986940.70748   7782023.62445                  23895351.2674
       244.0004          5.0004
  23456624.2014   -5441210.74648  -4239900.34245                  23456625.2914
       214.0004          4.0004
  22339731.6294  -11740569.92549  -9148480.90746                  22339736.1554
       409.0004         15.0004
 05  6 29 18 29  0.0000000  0  8G 1G14G22G19G15G 3G11G25
  20811048.4764  -14322997.89749 -11160766.88547                  20811051.4854
       827.0004         58.0004
  20470051.6684   -2643708.16749  -2060028.67547                  20470052.9634
       648.0004         58.0004
  21745062.2824    5113881.37349   3984843.38547                  21745062.0474
       703.0004         33.0004
  22797832.4854    -696912.30349   -543050.00846                  22797835.5854
       357.0004         15.0004
  22171752.9164   11064930.55849   8622018.04946                  22171757.0814
       420.0004         13.0004
  23910141.3334   10064687.66448   7842605.55745                  23910147.2214
       251.0004          5.0004
  23439891.6274   -5529138.19148  -4308415.19445                  23439894.4454
       214.0004          4.0004
  22322661.4814  -11830270.83349  -9218377.65346                  22322665.8704
       387.0004         14.0004
 05  6 29 18 29 30.0000000  0  8G 1G14G22G19G15G 3G11G25
  20803980.9954  -14360137.27449 -11189706.63547                  20803984.1974
       827.0004         58.0004
  20475896.0184   -2612996.02449  -2036097.12847                  20475897.4504
       648.0004         57.0004
  21752758.8074    5154328.73649   4016360.79847                  21752759.1254
       666.0004         33.0004
  22806469.5524    -651526.77049   -507684.69946                  22806472.4884
       367.0004         15.0004
  22190048.5754   11161073.15249   8696934.30146                  22190052.9704
       420.0004         12.0004
  23924953.7834   10142523.78248   7903257.01445                  23924959.2364
       258.0004          4.0004
  23423205.6484   -5616820.13748  -4376738.73945                  23423208.8144
       208.0004          4.0004
  22305642.0464  -11919708.66449  -9288069.40446                  22305646.4794
       398.0004         14.0004
 05  6 29 18 30  0.0000000  0  8G 1G14G22G19G15G 3G11G25
  20796992.7044  -14396860.73649 -11218322.29547                  20796995.9084
       827.0004         60.0004
  20481812.1864   -2581905.28449  -2011870.57347                  20481813.6354
       648.0004         57.0004
  21760485.5564    5194933.93249   4048001.19847                  21760485.8994
       648.0004         32.0004
  22815186.5214    -605719.63949   -471990.88146                  22815188.9284
       387.0004         15.0004
  22208405.3664   11257537.28749   8772101.09546                  22208409.9384
       420.0004         13.0004
  23939781.7614   10220453.27648   7963981.17545                  23939788.4324
       238.0004          4.0004
  23406569.2174   -5704247.50848  -4444863.92445                  23406572.4184
       219.0004          5.0004
  22288674.6084  -12008873.65549  -9357548.56546                  22288678.9584
       398.0004         15.0004
 05  6 29 18 30 30.0000000  0  8G 1G14G22G19G15G 3G11G25
  20790081.3964  -14433179.77849 -11246622.82147                  20790084.5974
       827.0004         60.0004
  20487798.2534   -2550449.09549  -1987359.25247                  20487799.4794
       648.0004         57.0004
  21768240.8654    5235685.78049   4079755.88147                  21768240.6544
       666.0004         32.0004
  22823980.5604    -559504.73149   -435979.29946                  22823983.7304
       377.0004         15.0004
  22226820.1734   11354309.59449   8847508.00046                  22226825.1144
       398.0004         13.0004
  23954625.3294   10298462.14748   8024767.23344                  23954630.2544
       214.0004          3.0004
  23389979.5614   -5791428.98748  -4512797.47945                  23389980.8354
       238.0004          5.0004
  22271757.2884  -12097774.29549  -9426821.72546                  22271761.4474
       409.0004         16.0004
 05  6 29 18 31  0.0000000  0  8G 1G14G22G19G15G 3G11G25
  20783248.2634  -14469088.51749 -11274603.63247                  20783251.4214
       827.0004         60.0004
  20493854.2784   -2518623.26049  -1962559.89547                  20493855.6774
       648.0004         57.0004
  21776024.9434    5276590.85249   4111629.95047                  21776024.9704
       666.0004         32.0004
  22832853.7084    -512878.27049   -399647.03446                  22832856.2214
       387.0004         15.0004
  22245294.8384   11451394.30549   8923158.35046                  22245299.5424
       398.0004         13.0004
  23969485.7464   10376553.62548   8085617.70444                  23969490.8344
       202.0004          3.0004
  23373436.5024   -5878356.24148  -4580532.95645                  23373440.4044
       225.0004          5.0004
  22254891.8604  -12186401.82949  -9495882.07146                  22254896.0134
       409.0004         16.0004
 05  6 29 18 31 30.0000000  0  8G 1G14G22G19G15G 3G11G25
  20776490.6984  -14504598.29949 -11302273.57047                  20776493.8924
       827.0004         61.0004
  20499978.4904   -2486440.60849  -1937482.49947                  20499979.6904
       648.0004         55.0004
  21783835.7614    5317638.43749   4143615.06147                  21783835.6364
       666.0004         32.0004
  22841801.7734    -465853.52549   -363004.42046                  22841804.6964
       377.0004         14.0004
  22263826.5444   11548778.34749   8999041.95046                  22263832.3564
       409.0004         13.0004
  23984360.2134   10454713.80748   8146521.63845                  23984366.6784
       219.0004          4.0004
  23356942.3314   -5965037.78248  -4648076.95545                  23356944.3294
       251.0004          6.0004
  22238077.3054  -12274764.41749  -9564735.98046                  22238081.0424
       432.0004         15.0004
 05  6 29 18 32  0.0000000  0  8G 1G14G22G19G15G 3G11G25
  20769815.4304  -14539679.25149 -11329609.35347                  20769818.5814
       850.0004         61.0004
  20506176.2114   -2453872.80249  -1912104.98847                  20506176.8934
       666.0004         54.0004
  21791679.7714    5358858.92149   4175734.90846                  21791679.4464
       648.0004         30.0004
  22850830.6714    -418402.93249   -326029.98146                  22850833.9664
       357.0004         14.0004
  22282420.2784   11646489.81449   9075180.68746                  22282425.4064
       409.0004         13.0004
  23999251.5124   10532969.88248   8207500.29045                  23999257.9774
       214.0004          4.0004
  23340501.3294   -6051441.39548  -4715404.39745                  23340504.2334
       280.0004          7.0004
  22221319.1634  -12362829.20149  -9633357.82246                  22221322.6254
       444.0004         16.0004
 05  6 29 18 32 30.0000000  0  8G 1G14G22G19G15G 3G11G25
  20763218.4744  -14574345.19749 -11356621.75347                  20763221.6524
       850.0004         61.0004
  20512444.2094   -2420935.21549  -1886439.33247                  20512445.3064
       666.0004         55.0004
  21799553.9664    5400238.84449   4207978.99746                  21799553.7394
       648.0004         29.0004
  22859940.0364    -370542.59149   -288736.25646                  22859942.4614
       409.0004         14.0004
  22301074.0594   11744513.27649   9151562.53646                  22301079.1084
       420.0004         14.0004
  24014158.8454   10611305.45348   8268540.91645                  24014165.9754
       238.0004          6.0004
  23324110.8174   -6137578.26348  -4782523.98345                  23324113.1674
       296.0004          7.0004
  22204615.6454  -12450607.19949  -9701756.19846                  22204618.8834
       468.0004         16.0004
 05  6 29 18 33  0.0000000  0  8G 1G14G22G19G15G 3G11G25
  20756699.0654  -14608605.34249 -11383317.94547                  20756702.1684
       850.0004         61.0004
  20518780.0764   -2387638.53449  -1860493.86247                  20518781.4554
       666.0004         55.0004
  21807457.2774    5441769.88749   4240340.84146                  21807457.3324
       648.0004         29.0004
  22869123.6944    -322283.69149   -251131.96346                  22869125.9344
       398.0004         14.0004
  22319785.1284   11842837.83949   9228179.00746                  22319789.0374
       444.0004         14.0004
  24029077.9874   10689708.79048   8329634.30945                  24029084.0574
       225.0004          5.0004
  23307767.8954   -6223455.03648  -4849440.87745                  23307770.2704
       288.0004          7.0004
  22187965.6664  -12538104.13449  -9769935.56146                  22187968.8314
       481.0004         17.0004
 05  6 29 18 33 30.0000000  0  8G 1G14G22G19G15G 3G11G25
  20750254.3744  -14642471.64549 -11409707.25147                  20750257.5424
       850.0004         61.0004
  20525182.0334   -2353996.43349  -1834279.23747                  20525183.3114
       666.0004         57.0004
  21815386.8834    5483440.36949   4272811.33646                  21815386.7184
       648.0004         28.0004
  22878379.2124    -273640.44449   -213228.18346                  22878381.3244
       367.0004         13.0004
  22338550.8304   11941449.83249   9305019.45346                  22338554.5524
       456.0004         13.0004
  24044006.8514   10768165.46748   8390769.29845                  24044012.9904
       219.0004          5.0004
  23291472.7814   -6309080.74348  -4916162.14945                  23291475.4094
       272.0004          7.0004
  22171367.4534  -12625329.17749  -9837903.06846                  22171370.5064
       508.0004         17.0004
 05  6 29 18 34  0.0000000  0  8G 1G14G22G19G15G 3G11G25
  20743887.4064  -14675930.85449 -11435779.33847                  20743890.4794
       850.0004         61.0004
  20531651.9054   -2319997.12949  -1807786.27047                  20531652.9184
       666.0004         55.0004
  21823346.0764    5525264.50149   4305401.56046                  21823345.7184
       666.0004         29.0004
  22887711.2874    -224601.57949   -175016.12846                  22887713.2944
       367.0004         13.0004
  22357372.2884   12040360.88449   9382092.93046                  22357376.1584
       409.0004         12.0004
  24058950.2704   10846685.90848   8451953.94645                  24058957.7864
       258.0004          6.0004
  23275229.3324   -6394439.52348  -4982675.43745                  23275230.6004
       265.0004          7.0004
  22154824.2924  -12712265.92349  -9905645.92446                  22154827.2254
       508.0004         18.0004
 05  6 29 18 34 30.0000000  0  8G 1G14G22G19G15G 3G11G25
  20737598.6134  -14708977.20249 -11461529.71747                  20737601.7854
       850.0004         61.0004
  20538190.4394   -2285636.57449  -1781011.80247                  20538191.7214
       666.0004         55.0004
  21831335.2754    5567248.57949   4338116.40746                  21831335.1004
       666.0004         29.0004
  22897118.8354    -175163.78849   -136493.22046                  22897121.1004
       348.0004         13.0004
  22376252.0884   12139575.01349   9459402.55046                  22376256.3744
       398.0004         12.0004
  24073904.6294   10925273.49248   8513190.95445                  24073912.3184
       258.0004          6.0004
  23259039.2864   -6479523.19648  -5048974.36445                  23259040.7784
       288.0004          8.0004
  22138336.6634  -12798905.76949  -9973157.41846                  22138339.7044
       494.0004         18.0004
 05  6 29 18 35  0.0000000  0  8G 1G14G22G19G15G 3G11G25
  20731386.2134  -14741624.69349 -11486969.29947                  20731389.3274
       850.0004         61.0004
  20544794.9554   -2250929.92649  -1753967.66047                  20544796.1254
       684.0004         55.0004
  21839352.8214    5609379.18849   4370945.44446                  21839351.9354
       684.0004         29.0004
  22906599.5374    -125343.14449    -97671.98946                  22906602.7004
       348.0004         14.0004
  22395186.2944   12239076.35249   9536935.98246                  22395191.3904
       377.0004         12.0004
  24088870.3994   11003911.79948   8574467.48745                  24088876.2604
       280.0004          7.0004
  23242898.8734   -6564342.73748  -5115067.43945                  23242901.2324
       288.0004          8.0004
  22121903.8464  -12885259.36349 -10040445.86146                  22121907.1954
       481.0004         18.0004
 05  6 29 18 35 30.0000000  0  8G 1G14G22G19G15G 3G11G25
  20725249.4724  -14773874.34449 -11512098.87247                  20725252.6574
       850.0004         61.0004
  20551464.8094   -2215879.62749  -1726655.73147                  20551465.5634
       684.0004         54.0004
  21847397.6364    5651656.27749   4403888.62346                  21847397.0044
       666.0004         28.0004
  22916151.7864     -75142.70449    -58554.81546                  22916154.6284
       329.0004         14.0004
  22414175.3994   12338862.50149   9614691.34746                  22414179.3134
       377.0004         11.0004
  24103843.5604   11082597.49548   8635780.89945                  24103850.3164
       288.0004          6.0004
  23226808.8144   -6648896.56148  -5180953.47845                  23226810.5614
       288.0004          7.0004
  22105526.5024  -12971324.47949 -10107509.51746                  22105529.7244
       494.0004         18.0004
 05  6 29 18 36  0.0000000  0  8G 1G14G22G19G15G 3G11G25
  20719190.1724  -14805714.38749 -11536909.27447                  20719193.3294
       850.0004         61.0004
  20558202.2074   -2180475.77649  -1699068.31247                  20558203.1794
       703.0004         57.0004
  21855472.6474    5694092.22749   4436955.58446                  21855472.3194
       666.0004         28.0004
  22925779.4844     -24552.75949    -19134.13146                  22925781.8624
       348.0004         13.0004
  22433220.0534   12438943.58549   9692676.54746                  22433224.3714
       367.0004         10.0004
  24118827.6924   11161339.78648   8697138.44045                  24118832.7674
       296.0004          6.0004
  23210771.4944   -6733170.13848  -5246621.14345                  23210774.0744
       280.0004          8.0004
  22089206.6214  -13057086.45049 -10174336.95946                  22089209.6244
       494.0004         18.0004
 05  6 29 18 36 30.0000000  0  8G 1G14G22G19G15G 3G11G25
  20713207.9514  -14837151.26449 -11561405.51747                  20713210.9394
       850.0004         61.0004
  20565004.7604   -2144726.18749  -1671211.49047                  20565005.8094
       684.0004         55.0004
  21863577.2944    5736681.20949   4470141.79046                  21863577.2004
       666.0004         27.0004
  22935478.7744      26417.85349     20583.18446                  22935481.8344
       338.0004         13.0004
  22452320.0144   12539311.46349   9770885.20546                  22452325.0184
       398.0004         12.0004
  24133821.0014   11240130.07148   8758533.37945                  24133828.0344
       288.0004          6.0004
  23194787.2834   -6817167.16248  -5312073.31545                  23194789.4374
       288.0004          8.0004
  22072943.4544  -13142548.73249 -10240930.88346                  22072946.3604
       494.0004         18.0004
 05  6 29 18 37  0.0000000  0  8G 1G14G22G19G15G 3G11G25
  20707303.6284  -14868179.91649 -11585583.66747                  20707306.7314
       850.0004         61.0004
  20571874.2054   -2108627.19749  -1643082.40347                  20571875.3364
       684.0004         54.0004
  21871712.0334    5779429.13949   4503451.85446                  21871711.5154
       684.0004         29.0004
  22945251.2354      77772.27049     60599.57546                  22945254.4134
       338.0004         14.0004
  22471474.6624   12639969.42349   9849319.89846                  22471479.0464
       409.0004         12.0004
  24148823.7594   11318970.69448   8819967.53045                  24148829.6974
       280.0004          6.0004
  23178857.0674   -6900879.84248  -5377303.91245                  23178861.1674
       272.0004          7.0004
  22056739.0234  -13227703.22949 -10307284.97246                  22056742.0684
       494.0004         19.0004
 05  6 29 18 37 30.0000000  0  8G 1G14G22G19G15G 3G11G25
  20701474.0814  -14898813.41149 -11609453.89747                  20701477.3324
       850.0004         61.0004
  20578807.5574   -2072193.30649  -1614692.35647                  20578808.4244
       703.0004         54.0004
  21879874.5924    5822323.62549   4536876.11046                  21879874.0464
       684.0004         28.0004
  22955093.9434     129495.19349    100903.10746                  22955097.6194
       348.0004         15.0004
  22490681.0254   12740902.97249   9927969.34146                  22490685.9994
       387.0004         12.0004
  24163833.3474   11397846.34248   8881428.98145                  24163839.0344
       272.0004          7.0004
  23162979.0274   -6984318.41548  -5442320.93045                  23162982.5354
       280.0004          7.0004
  22040591.2624  -13312559.40449 -10373406.60946                  22040594.4244
       494.0004         19.0004
 05  6 29 18 38  0.0000000  0  8G 1G14G22G19G15G 3G11G25
  20695722.7504  -14929036.11849 -11633004.03147                  20695725.9434
       827.0004         61.0004
  20585806.9434   -2035410.29249  -1586030.26647                  20585808.0914
       684.0004         54.0004
  21888068.2784    5865381.10349   4570427.37546                  21888067.1854
       684.0004         29.0004
  22965009.1244     181600.29249    141504.43946                  22965012.2894
       348.0004         14.0004
  22509943.1864   12842126.12649  10006844.45146                  22509947.7604
       398.0004         11.0004
  24178852.2104   11476770.39248   8942928.13445                  24178857.7814
       258.0004          6.0004
  23147156.3784   -7067464.72948  -5507110.20645                  23147157.6004
       272.0004          7.0004
  22024503.4514  -13397098.91449 -10439281.50046                  22024506.9494
       481.0004         20.0004
 05  6 29 18 38 30.0000000  0  8G 1G14G22G19G15G 3G11G25
  20690049.4914  -14958847.54749 -11656233.69347                  20690052.6434
       827.0004         61.0004
  20592872.8154   -1998279.02449  -1557096.80847                  20592873.7194
       703.0004         54.0004
  21896292.7344    5908602.85449   4604106.64446                  21896292.3694
       666.0004         27.0004
  22974996.4464     234085.54949    182401.98846                  22974999.9304
       338.0004         15.0004
  22529260.5584   12943637.46549  10085944.12346                  22529264.7134
       387.0004         11.0004
  24193879.8044   11555740.90148   9004463.49145                  24193887.4064
       258.0004          8.0004
  23131390.4584   -7150315.28148  -5571669.01545                  23131393.1334
       280.0004          7.0004
  22008477.3254  -13481318.14649 -10504906.81846                  22008480.9464
       494.0004         21.0004
 05  6 29 18 39  0.0000000  0  8G 1G14G22G19G15G 3G11G25
  20684453.9634  -14988254.06449 -11679147.84447                  20684457.0374
       850.0004         61.0004
  20600003.4834   -1960807.50549  -1527898.21647                  20600004.3054
       703.0004         54.0004
  21904548.1534    5951983.13049   4637909.43446                  21904547.6084
       684.0004         28.0004
  22985055.2834     286942.44849    223589.13846                  22985058.4634
       348.0004         15.0004
  22548630.7834   13045428.83049  10165261.99245                  22548634.8284
       377.0004          9.0004
  24208914.9504   11634748.92448   9066028.07045                  24208921.3454
       238.0004          5.0004
  23115680.7904   -7232873.81448  -5636000.29745                  23115683.0294
       296.0004          7.0004
  21992511.3914  -13565220.47649 -10570285.21446                  21992514.5754
       508.0004         21.0004
 05  6 29 18 39 30.0000000  0  8G 1G14G22G19G15G 3G11G25
  20678937.1754  -15017245.17349 -11701738.29947                  20678940.3164
       850.0004         61.0004
  20607200.4944   -1922986.66549  -1498427.43447                  20607201.7854
       684.0004         54.0004
  21912835.5344    5995533.52349   4671844.78946                  21912834.8824
       684.0004         28.0004
  22995186.1714     340179.33449    265072.36746                  22995188.8704
       357.0004         14.0004
  22568056.2514   13147509.43849  10244805.25046                  22568060.7254
       387.0004         10.0004
  24223957.8104   11713802.69848   9127628.30245                  24223966.0014
       208.0004          5.0004
  23100028.7984   -7315126.61948  -5700093.33445                  23100030.7814
       312.0004          8.0004
  21976608.3764  -13648791.70449 -10635405.60246                  21976611.6164
       522.0004         22.0004
 05  6 29 18 40  0.0000000  0  8G 1G14G22G19G15G 3G11G25
  20673497.5184  -15045831.34449 -11724013.21247                  20673500.6544
       850.0004         61.0004
  20614461.6054   -1884828.10049  -1468693.48647                  20614462.9504
       684.0004         54.0004
  21921152.9044    6039244.04449   4705904.92346                  21921152.4974
       648.0004         28.0004
  23005386.9944     393783.90049    306842.11346                  23005389.8074
       367.0004         14.0004
  22587534.2084   13249867.09649  10324564.40245                  22587538.8874
       357.0004          9.0004
  24239006.5204   11792889.56548   9189254.30545                  24239013.9144
       186.0004          4.0004
  23084432.1214   -7397081.49348  -5763954.21945                  23084434.5904
       288.0004          8.0004
  21960766.5454  -13732039.45949 -10700273.92246                  21960770.3854
       522.0004         23.0004
 05  6 29 18 40 30.0000000  0  8G 1G14G22G19G15G 3G11G25
  20668133.4764  -15074017.09649 -11745976.10847                  20668136.6714
       827.0004         63.0004
  20621786.0674   -1846338.02549  -1438701.21947                  20621787.4844
       684.0004         54.0004
  21929500.6954    6083111.20149   4740087.10146                  21929500.6454
       648.0004         28.0004
  23015655.6814     447749.20049    348892.94646                  23015658.1154
       348.0004         13.0004
  22607063.9834   13352495.58349  10404534.57145                  22607067.8254
       357.0004          9.0004
  24254062.4304   11872002.71948   9250900.80645                  24254069.3504
       181.0004          4.0004
  23068893.2564   -7478740.41848  -5827584.48245                  23068894.9824
       304.0004          8.0004
  21944986.2054  -13814965.15049 -10764891.28446                  21944989.4284
       522.0004         23.0004
 05  6 29 18 41  0.0000000  0  8G 1G14G22G19G15G 3G11G25
  20662846.2664  -15101803.35349 -11767627.71447                  20662849.4364
       850.0004         65.0004
  20629173.2524   -1807519.05549  -1408452.66847                  20629174.4274
       703.0004         54.0004
  21937877.9754    6127134.82949   4774391.21146                  21937877.9914
       631.0004         28.0004
  23025993.3514     502072.58949    391222.80946                  23025996.3064
       348.0004         13.0004
  22626644.1494   13455392.42749  10484713.85945                  22626649.5454
       348.0004          9.0004
  24269121.2194   11951138.83348   9312565.18845                  24269129.4114
       192.0004          4.0004
  23053410.6404   -7560101.54248  -5890982.71545                  23053413.7984
       312.0004          8.0004
  21929267.6004  -13897566.56449 -10829255.97046                  21929270.7094
       536.0004         22.0004
 05  6 29 18 41 30.0000000  0  8G 1G14G22G19G15G 3G11G25
  20657631.8884  -15129206.55149 -11788980.83247                  20657634.9244
       873.0004         65.0004
  20636619.3384   -1768388.61649  -1377961.41247                  20636620.5164
       684.0004         52.0004
  21946282.6004    6171299.61149   4808805.31146                  21946282.1264
       648.0004         28.0004
  23036395.7374     556735.05749    433816.88846                  23036397.9964
       357.0004         12.0004
  22646272.6294   13558539.74949  10565088.31945                  22646278.0304
       338.0004          9.0004
  24284180.1874   12030279.58548   9374233.22444                  24284187.3124
       154.0004          3.0004
  23037982.2504   -7641178.24348  -5954159.30945                  23037984.6764
       312.0004          8.0004
  21913608.8714  -13979857.02649 -10893378.35246                  21913611.2314
       566.0004         23.0004
 05  6 29 18 42  0.0000000  0  8G 1G14G22G19G15G 3G11G25
  20652490.5364  -15156221.96649 -11810031.78047                  20652493.7214
       850.0004         65.0004
  20644125.5354   -1728943.17949  -1347224.70947                  20644126.8434
       684.0004         52.0004
  21954714.6474    6215611.05549   4843333.69046                  21954714.2274
       614.0004         27.0004
  23046862.7774     611739.46949    476677.42746                  23046864.7254
       357.0004         12.0004
  22665949.0204   13661940.55449  10645660.28446                  22665954.2734
       338.0004         10.0004
  24299242.4824   12109427.23348   9435906.60545                  24299249.0904
       202.0004          5.0004
  23022610.2374   -7721962.81049  -6017108.27145                  23022611.6834
       348.0004          9.0004
  21898009.9804  -14061828.59749 -10957252.25046                  21898013.1874
       551.0004         23.0004
 05  6 29 18 42 30.0000000  0  8G 1G14G22G19G15G 3G11G25
  20647427.1304  -15182829.15949 -11830764.63547                  20647430.3174
       827.0004         65.0004
  20651695.1404   -1689163.87749  -1316227.85347                  20651696.4494
       684.0004         54.0004
  21963178.6684    6260090.33049   4877992.85346                  21963178.8174
       614.0004         28.0004
  23057397.1334     667103.90549    519818.49146                  23057400.3844
       321.0004         12.0004
  22685677.2044   13765613.72249  10726444.48945                  22685682.5604
       329.0004          9.0004
  24314308.5614   12188599.76748   9497599.34344                  24314315.7174
       146.0004          2.0004
  23007297.4494   -7802431.74149  -6079811.27745                  23007298.8444
       357.0004          9.0004
  21882476.6044  -14143457.62549 -11020859.23346                  21882479.5724
       566.0004         23.0004
 05  6 29 18 43  0.0000000  0  8G 1G14G22G19G15G 3G11G25
  20642439.9494  -15209039.09049 -11851187.93247                  20642443.0134
       850.0004         65.0004
  20659326.3424   -1649063.16449  -1284980.54447                  20659327.5344
       684.0004         54.0004
  21971672.7644    6304727.32449   4912774.91046                  21971672.7354
       614.0004         27.0004
  23067999.6524     722815.09649    563229.75446                  23068002.9484
       329.0004         12.0004
  22705455.5634   13869546.54449  10807431.03245                  22705460.9174
       329.0004          8.0004
  24329376.3934   12267784.30348   9559301.45544                  24329383.9124
       135.0004          2.0004
  22992042.8454   -7882593.64749  -6142275.05645                  22992044.5604
       357.0004          9.0004
  21867006.7564  -14224752.07849 -11084205.50946                  21867009.8224
       566.0004         23.0004
 05  6 29 18 43 30.0000000  0  8G 1G14G22G19G15G 3G11G25
  20637526.8284  -15234858.04149 -11871306.57047                  20637529.9314
       873.0004         67.0004
  20667016.9964   -1608648.36749  -1253488.49847                  20667018.1934
       684.0004         52.0004
  21980195.8614    6349516.75449   4947675.74946                  21980195.9694
       614.0004         27.0004
  23078665.5774     778864.98449    606904.93546                  23078668.4874
       338.0004         11.0004
  22725281.2324   13973731.25949  10888613.86145                  22725286.3704
       321.0004          9.0004
  24344446.7344   12346972.31648   9621006.28444                  24344454.0454
       172.0004          2.0004
  22976846.2514   -7962451.62349  -6204502.00345                  22976847.7774
       357.0004          9.0004
  21851599.7144  -14305714.89349 -11147293.36146                  21851602.7914
       566.0004         25.0004
 05  6 29 18 44  0.0000000  0  8G 1G14G22G19G15G 3G11G25
  20632688.3564  -15260281.84349 -11891117.30347                  20632691.4664
       850.0004         67.0004
  20674768.0364   -1567916.53049  -1221749.40647                  20674769.2294
       703.0004         52.0004
  21988749.1094    6394463.88449   4982699.47646                  21988749.1204
       614.0004         26.0004
  23089396.9324     835255.63349    650845.65046                  23089399.9824
       348.0004         12.0004
  22745154.9704   14078170.72048  10969995.17245                  22745161.4124
       296.0004          9.0004
  24359517.1414   12426166.06848   9682715.57744                  24359523.8064
       186.0004          3.0004
  22961708.8824   -8041998.78449  -6266486.77145                  22961710.4124
       367.0004          9.0004
  21836257.6164  -14386338.94849 -11210117.24546                  21836260.7054
       582.0004         25.0004
 05  6 29 18 44 30.0000000  0  8G 1G14G22G19G15G 3G11G25
  20627926.0434  -15285309.20749 -11910619.12047                  20627929.1174
       850.0004         67.0004
  20682579.4314   -1526868.35749  -1189763.81847                  20682580.5174
       703.0004         52.0004
  21997332.5814    6439570.60349   5017847.55246                  21997332.8544
       614.0004         26.0004
  23100191.0034     891985.85948    695050.96546                  23100194.1604
       312.0004         12.0004
  22765078.0444   14182864.39948  11051574.56545                  22765082.8934
       304.0004          9.0004
  24374586.3214   12505364.46148   9744428.49144                  24374594.5124
       177.0004          3.0004
  22946632.0394   -8121230.89549  -6328226.03346                  22946633.6374
       387.0004         10.0004
  21820980.9254  -14466619.84549 -11272673.73146                  21820983.7734
       582.0004         24.0004
 05  6 29 18 45  0.0000000  0  8G 1G14G22G19G15G 3G11G25
  20623239.8304  -15309935.62649 -11929808.51247                  20623242.9344
       850.0004         67.0004
  20690451.2414   -1485499.90949  -1157528.66247                  20690452.6034
       684.0004         51.0004
  22005947.9364    6484842.84549   5053124.61846                  22005947.6494
       631.0004         27.0004
  23111051.7004     949058.49148    739523.09846                  23111054.8814
       312.0004         12.0004
  22785050.2274   14287815.49049  11133354.54145                  22785055.4524
       321.0004          9.0004
  24389659.5154   12584569.98348   9806146.97044                  24389666.0284
       192.0004          3.0004
  22931616.0904   -8200140.39149  -6389713.91746                  22931617.9904
       387.0004         10.0004
  21805770.1594  -14546549.41149 -11334956.44946                  21805773.1864
       551.0004         25.0004
 05  6 29 18 45 30.0000000  0  8G 1G14G22G19G15G 3G11G25
  20618626.4454  -15334179.03749 -11948699.45947                  20618629.5364
       850.0004         67.0004
  20698381.0354   -1443830.53749  -1125059.02347                  20698381.9704
       703.0004         52.0004
  22014591.4544    6530263.67349   5088517.45946                  22014591.1084
       648.0004         27.0004
  23121973.8644    1006453.44349    784246.38846                  23121976.9314
       321.0004         12.0004
  22805067.0924   14393004.49649  11215319.90645                  22805071.8064
       321.0004          9.0004
  24404730.4574   12663762.40248   9867855.22944                  24404733.8604
       225.0004          2.0004
  22916658.6994   -8278742.49349  -6450962.26446                  22916660.9154
       398.0004         10.0004
  21790623.6654  -14626142.63049 -11396977.08846                  21790626.8594
       536.0004         23.0004
 05  6 29 18 46  0.0000000  0  8G 1G14G22G19G15G 3G11G25
  20614094.2454  -15357996.02049 -11967258.12647                  20614097.2524
       873.0004         67.0004
  20706375.5224   -1401818.55749  -1092322.41747                  20706376.8654
       703.0004         52.0004
  22023271.3954    6575877.20349   5124060.45046                  22023270.9294
       631.0004         27.0004
  23132965.5774    1064211.82849    829252.87846                  23132968.6634
       329.0004         11.0004
  22825137.0144   14498473.14749  11297503.17445                  22825142.1014
       338.0004          9.0004
  24419805.8274   12742983.13948   9929585.55844                  24419816.0044
       219.0004          3.0004
  22901768.0444   -8356990.63949  -6511934.81246                  22901770.4934
       377.0004         10.0004
  21775550.3874  -14705353.07749 -11458699.45646                  21775553.7894
       536.0004         24.0004
 05  6 29 18 46 30.0000000  0  8G 1G14G22G19G15G 3G11G25
  20609639.6994  -15381405.01449 -11985498.87847                  20609642.7624
       873.0004         67.0004
  20714431.5164   -1359483.32749  -1059333.92447                  20714432.7994
       703.0004         52.0004
  22031984.5804    6621666.15849   5159740.13746                  22031984.0584
       648.0004         27.0004
  23144021.1584    1122313.04948    874526.48946                  23144024.3604
       312.0004         11.0004
  22845256.2384   14604201.32149  11379888.69745                  22845260.7004
       338.0004          9.0004
  24434883.4444   12822211.90648   9991322.13445                  24434891.6354
       258.0004          4.0004
  22886942.0174   -8434900.36149  -6572643.63446                  22886945.0794
       377.0004         10.0004
  21760547.3954  -14784195.93349 -11520135.39546                  21760550.4604
       551.0004         25.0004
 05  6 29 18 47  0.0000000  0  8G 1G14G22G19G15G 3G11G25
  20605256.6284  -15404436.68649 -12003445.61147                  20605259.7894
       850.0004         67.0004
  20722543.0094   -1316856.65549  -1026118.33747                  20722544.5864
       684.0004         51.0004
  22040725.6864    6667600.84349   5195533.38046                  22040725.2114
       648.0004         27.0004
  23155137.1554    1180724.51349    920041.87046                  23155139.2154
       321.0004         12.0004
  22865419.0364   14710157.02449  11462451.50345                  22865425.1374
       338.0004          8.0004
  24449955.2584   12901415.92248  10053039.44245                  24449961.5344
       265.0004          4.0004
  22872175.9704   -8512499.23949  -6633110.25946                  22872177.4704
       387.0004         10.0004
  21745608.8224  -14862698.48849 -11581306.16146                  21745611.6854
       566.0004         25.0004
 05  6 29 18 47 30.0000000  0  8G 1G14G22G19G15G 3G11G25
  20600948.0294  -15427079.06249 -12021088.99647                  20600951.1744
       850.0004         67.0004
  20730712.1584   -1273927.89249   -992667.35747                  20730713.2784
       684.0004         49.0004
  22049497.0414    6713694.18949   5231450.25946                  22049497.0634
       648.0004         26.0004
  23166313.7754    1239456.08949    965806.67746                  23166316.7144
       329.0004         12.0004
  22885627.1144   14816350.45849  11545199.55145                  22885632.0364
       338.0004          8.0004
  24465024.1914   12980604.95848  10114745.04645                  24465030.4044
       251.0004          4.0004
  22857471.2734   -8589772.45649  -6693323.11846                  22857473.6514
       387.0004         10.0004
  21730737.9284  -14940845.67849 -11642200.01646                  21730740.9984
       566.0004         26.0004
 05  6 29 18 48  0.0000000  0  8G 1G14G22G19G15G 3G11G25
  20596714.1274  -15449328.99749 -12038426.58247                  20596717.1874
       873.0004         67.0004
  20738938.8694   -1230695.33549   -958979.65347                  20738940.0234
       684.0004         49.0004
  22058299.3864    6759950.29549   5267493.95846                  22058299.1484
       666.0004         27.0004
  23177551.2194    1298508.31549   1011821.35946                  23177553.5714
       329.0004         12.0004
  22905880.6684   14922783.21149  11628134.07945                  22905885.6214
       348.0004          8.0004
  24480090.8564   13059780.03348  10176439.76045                  24480096.9534
       265.0004          4.0004
  22842829.7364   -8666714.22649  -6753277.69246                  22842832.9054
       387.0004         10.0004
  21715935.7654  -15018631.30549 -11702812.12946                  21715938.9234
       582.0004         28.0004
 05  6 29 18 48 30.0000000  0  8G 1G14G22G19G15G 3G11G25
  20592555.3584  -15471182.89449 -12055455.56847                  20592558.4424
       850.0004         67.0004
  20747224.1814   -1187156.70549   -925053.45347                  20747225.4724
       703.0004         51.0004
  22067133.3274    6806373.68749   5303668.00446                  22067132.9604
       648.0004         25.0004
  23188848.5044    1357882.93548   1058087.24146                  23188851.7094
       304.0004         12.0004
  22926180.7864   15029457.34249  11711256.69645                  22926185.0974
       338.0004          8.0004
  24495154.6304   13138942.74448  10238124.86545                  24495162.4914
       272.0004          5.0004
  22828252.1104   -8743317.74049  -6812968.70746                  22828254.0044
       377.0004         10.0004
  21701203.9634  -15096048.67249 -11763137.29646                  21701207.0654
       614.0004         30.0004
 05  6 29 18 49  0.0000000  0  8G 1G14G22G19G15G 3G11G25
  20588471.1134  -15492645.97549 -12072180.02147                  20588474.1214
       850.0004         67.0004
  20755566.3774   -1143317.99249   -890893.42147                  20755567.1934
       703.0004         49.0004
  22075998.5964    6852960.42849   5339969.33846                  22075998.0414
       648.0004         25.0004
  23200208.0824    1417572.70849   1104598.70046                  23200210.9064
       329.0004         12.0004
  22946524.0524   15136366.30848  11794562.28145                  22946529.3254
       296.0004          7.0004
  24510215.3104   13218085.97948  10299794.76845                  24510221.9684
       258.0004          5.0004
  22813739.3684   -8819585.14549  -6872397.81146                  22813740.9784
       398.0004         11.0004
  21686541.9334  -15173099.22849 -11823176.63946                  21686544.5264
       631.0004         30.0004
 05  6 29 18 49 30.0000000  0  8G 1G14G22G19G15G 3G11G25
  20584461.8184  -15513714.73649 -12088597.21147                  20584464.8534
       873.0004         67.0004
  20763966.0714   -1099177.55649   -856498.27747                  20763967.0074
       703.0004         49.0004
  22084895.6874    6899715.07149   5376401.50546                  22084895.3534
       631.0004         25.0004
  23211626.9984    1477579.09249   1151356.86246                  23211629.9934
       338.0004         12.0004
  22966912.5464   15243512.11848  11878052.43945                  22966918.5324
       280.0004          7.0004
  24525272.0854   13297211.18848  10361450.65145                  24525279.7224
       238.0004          5.0004
  22799291.2454   -8895509.89549  -6931559.91246                  22799292.2854
       398.0004         11.0004
  21671950.2224  -15249776.82049 -11882925.35746                  21671953.1154
       631.0004         30.0004
 05  6 29 18 50  0.0000000  0  8G 1G14G22G19G15G 3G11G25
  20580529.1034  -15534381.89749 -12104701.46847                  20580531.7704
       873.0004         67.0004
  20772424.4794   -1054728.58249   -821862.71847                  20772425.9974
       703.0004         49.0004
  22093826.4244    6946646.06749   5412971.07946                  22093826.3914
       631.0004         25.0004
  23223106.5354    1537907.43049   1198365.89846                  23223109.5834
       321.0004         12.0004
  22987348.1904   15350900.68648  11961731.74045                  22987354.0424
       272.0004          7.0004
  24540326.8534   13376323.70548  10423096.62245                  24540333.2784
       225.0004          5.0004
  22784910.1704   -8971082.17049  -6990447.35646                  22784912.7264
       398.0004         11.0004
  21657431.9204  -15326070.94049 -11942375.26146                  21657434.8964
       614.0004         29.0004
 05  6 29 18 50 30.0000000  0  8G 1G14G22G19G15G 3G11G25
  20576672.4364  -15554646.44749 -12120492.00047                  20576675.5544
       850.0004         67.0004
  20780941.5034   -1009971.59349   -786987.14647                  20780942.7094
       703.0004         49.0004
  22102790.8854    6993755.48749   5449679.69746                  22102790.8394
       614.0004         24.0004
  23234647.8534    1598556.40049   1245624.77546                  23234650.6184
       329.0004         12.0004
  23007830.0774   15458531.38848  12045599.73745                  23007836.7914
       258.0004          7.0004
  24555379.3204   13455422.62648  10484731.97645                  24555385.7984
       225.0004          5.0004
  22770596.2744   -9046297.58149  -7049056.72846                  22770598.4594
       377.0004         10.0004
  21642987.2344  -15401977.27649 -12001522.99446                  21642990.1164
       631.0004         29.0004
 05  6 29 18 51  0.0000000  0  8G 1G14G22G19G15G 3G11G25
  20572888.2064  -15574533.44249 -12135988.33347                  20572891.2994
       850.0004         67.0004
  20789512.0734    -964932.85149   -751892.02147                  20789513.2054
       703.0004         49.0004
  22111785.0724    7041019.37749   5486508.68546                  22111784.7504
       614.0004         24.0004
  23246244.5704    1659498.75249   1293112.26746                  23246247.3424
       329.0004         11.0004
  23028353.2084   15566377.92648  12129635.89145                  23028359.0974
       265.0004          6.0004
  24570424.0344   13534481.03248  10546335.79345                  24570430.5434
       214.0004          4.0004
  22756347.6804   -9121177.89649  -7107404.98346                  22756349.6724
       398.0004         11.0004
  21628612.4794  -15477517.72049 -12060385.62846                  21628614.8714
       648.0004         29.0004
 05  6 29 18 51 30.0000000  0  8G 1G14G22G19G15G 3G11G25
  20569175.3754  -15594045.34249 -12151192.38347                  20569178.3444
       873.0004         68.0004
  20798135.6274    -919615.91949   -716580.12647                  20798136.8904
       703.0004         49.0004
  22120807.9164    7088436.39749   5523456.97946                  22120807.9974
       582.0004         23.0004
  23257896.9844    1720730.28749   1340825.09346                  23257899.8264
       338.0004         11.0004
  23048915.8754   15674436.08048  12213836.95545                  23048921.1804
       258.0004          6.0004
  24585458.4984   13613494.63448  10607904.71744                  24585466.6894
       186.0004          3.0004
  22742162.9824   -9195723.17849  -7165492.17846                  22742164.5004
       420.0004         11.0004
  21614307.5494  -15552691.39149 -12118962.46246                  21614309.8094
       648.0004         29.0004
 05  6 29 18 52  0.0000000  0  8G 1G14G22G19G15G 3G11G25
  20565532.4934  -15613188.06649 -12166108.77047                  20565535.5524
       873.0004         67.0004
  20806810.7294    -874027.64649   -681056.80447                  20806811.8554
       703.0004         49.0004
  22129859.7194    7136001.81949   5560520.91246                  22129859.6224
       598.0004         24.0004
  23269602.3104    1782242.94649   1388756.97746                  23269605.3404
       329.0004         10.0004
  23069516.9544   15782698.49548  12298197.17845                  23069523.0554
       238.0004          6.0004
  24600484.9894   13692455.61848  10669432.62044                  24600492.3724
       186.0004          3.0004
  22728039.9054   -9269935.96649  -7223320.27946                  22728042.2504
       409.0004         11.0004
  21600071.3064  -15627501.15249 -12177255.72746                  21600074.2314
       598.0004         28.0004
 05  6 29 18 52 30.0000000  0  8G 1G14G22G19G15G 3G11G25
  20561964.6584  -15631937.52949 -12180718.71847                  20561967.6344
       873.0004         67.0004
  20815541.7904    -828145.10649   -645304.17647                  20815543.0964
       703.0004         49.0004
  22138944.1024    7183740.83949   5597720.13146                  22138943.6004
       598.0004         23.0004
  23281365.4234    1844058.78249   1436925.09046                  23281369.0654
       321.0004         10.0004
  23090161.4444   15891187.84748  12382734.23045                  23090167.5504
       232.0004          6.0004
  24615505.6164   13771386.26848  10730936.86244                  24615516.7854
       167.0004          3.0004
  22713985.9564   -9343789.16049  -7280868.17946                  22713988.8844
       409.0004         12.0004
  21585909.6104  -15701919.59549 -12235244.06246                  21585912.7524
       582.0004         28.0004
 05  6 29 18 53  0.0000000  0  8G 1G14G22G19G15G 3G11G25
  20558464.8254  -15650329.93749 -12195050.44347                  20558467.5894
       873.0004         68.0004
  20824321.9924    -782005.83149   -609351.49747                  20824323.2994
       722.0004         51.0004
  22148054.9174    7231618.18649   5635027.13346                  22148054.5474
       598.0004         22.0004
  23293178.9894    1906139.15548   1485299.32846                  23293182.1404
       312.0004         10.0004
  23110843.6244   15999866.30748  12467418.63345                  23110848.8454
       265.0004          5.0004
  24630511.9094   13850248.52948  10792387.88044                  24630522.5824
       128.0004          3.0004
  22699994.1574   -9417316.03249  -7338161.81546                  22699996.0364
       409.0004         12.0004
  21571816.1174  -15775979.85649 -12292953.29346                  21571819.3284
       566.0004         30.0004
 05  6 29 18 53 30.0000000  0  8G 1G14G22G19G15G 3G11G25
  20555036.0284  -15668348.07849 -12209090.52847                  20555038.8484
       873.0004         68.0004
  20833154.0334    -735593.66849   -573186.18047                  20833155.0724
       722.0004         49.0004
  22157195.5984    7279652.33049   5672456.31946                  22157195.3014
       598.0004         22.0004
  23305046.8574    1968499.34449   1533891.62046                  23305049.3274
       338.0004         10.0004
  23131563.8304   16108749.66648  12552262.72445                  23131570.2494
       296.0004          6.0004
  24645509.3144   13929057.62848  10853797.37144                  24645518.9944
       142.0004          3.0004
  22686069.0204   -9490496.44149  -7395185.47446                  22686069.8264
       432.0004         12.0004
  21557795.4104  -15849661.76449 -12350367.71446                  21557798.4524
       598.0004         29.0004
 05  6 29 18 54  0.0000000  0  8G 1G14G22G19G15G 3G11G25
  20551678.8234  -15685988.46549 -12222836.25947                  20551681.8714
       850.0004         68.0004
  20842038.3404    -688906.31049   -536806.42047                  20842039.1924
       722.0004         48.0004
  22166366.4074    7327848.08249   5710011.42446                  22166365.9064
       566.0004         22.0004
  23316966.7544    2031140.90749   1582703.14845                  23316968.8524
       321.0004          9.0004
  23152322.8794   16217840.05248  12637268.14745                  23152329.4374
       272.0004          5.0004
  24660493.5184   14007815.44048
       100.0004          1.0004
  22672209.8944   -9563323.73249  -7451933.97946                  22672211.7274
       420.0004         12.0004
  21543847.5634  -15922958.37349 -12407481.90546                  21543850.5924
       614.0004         30.0004
 05  6 29 18 54 30.0000000  0  7G 1G14G22G19G15G11G25
  20548394.3564  -15703249.11549 -12236286.09547                  20548397.4674
       873.0004         68.0004
  20850975.1074    -641942.57649   -500211.30247                  20850976.3134
       722.0004         49.0004
  22175569.1144    7376208.59749   5747694.90846                  22175569.1434
       551.0004         22.0004
  23328940.4874    2094063.73248   1631733.85345                  23328942.3724
       304.0004          8.0004
  23173122.0714   16327138.05448  12722435.34345                  23173126.6984
       288.0004          5.0004
  22658419.2414   -9635792.70949  -7508403.26946                  22658421.1944
       432.0004         12.0004
  21529973.8404  -15995864.60049 -12464291.89846                  21529976.5644
       614.0004         29.0004
 05  6 29 18 55  0.0000000  0  8G 1G14G22G19G15G18G11G25
  20545186.7044  -15720106.06749 -12249421.35947                  20545189.6414
       873.0004         68.0004
  20859968.7974    -594680.02449   -463383.33947                  20859970.2264
       703.0004         49.0004
  22184808.2744    7424758.88049   5785526.27946                  22184807.9554
       582.0004         23.0004
  23340971.8214    2157289.81448   1681000.85845                  23340974.6324
       288.0004          7.0004
  23193964.3764   16436666.06048  12807781.76045                  23193970.5164
       272.0004          5.0004
  24689537.5094         -0.74358
       163.0004          1.0004
  22644702.4774   -9707876.81349  -7564572.66546                  22644704.1894
       444.0004         13.0004
  21516179.5164  -16068353.21249 -12520776.47846                  21516182.5924
       614.0004         29.0004
 05  6 29 18 55 30.0000000  0  8G 1G14G22G19G15G18G11G25
  20542054.9404  -15736563.40349 -12262245.23447                  20542057.9894
       873.0004         70.0004
  20869018.5134    -547123.51649   -426326.32447                  20869019.7814
       703.0004         48.0004
  22194083.0554    7473496.35549   5823503.50946                  22194083.1254
       598.0004         23.0004
  23353059.1734    2220812.76848   1730499.17745                  23353062.3314
       258.0004          8.0004
  23214849.5464   16546418.53748  12893303.09845                  23214855.6364
       251.0004          4.0004
  24703689.5584      74367.52748     57948.17044                  24703694.6674
       167.0004          2.0004
  22631058.5314   -9779576.67549  -7620442.64846                  22631060.0744
       444.0004         12.0004
  21502464.5204  -16140425.11949 -12576936.35546                  21502467.6064
       598.0004         29.0004
 05  6 29 18 56  0.0000000  0  8G 1G14G22G19G15G18G11G25
  20538993.8044  -15752649.70749 -12274779.98947                  20538996.8104
       873.0004         68.0004
  20878118.5084    -499302.58049   -389063.25947                  20878119.5544
       703.0004         47.0004
  22203387.5734    7522393.33849   5861605.02946                  22203387.2864
       582.0004         23.0004
  23365197.9594    2284602.03448   1780205.04045                  23365201.3964
       258.0004          8.0004
  23235771.9164   16656365.46948  12978975.95245                  23235778.0574
       244.0004          4.0004
  24717860.7994     148834.38548    115974.18544                  24717863.0374
       186.0004          2.0004
  22617482.6384   -9850918.02149  -7676033.26546                  22617484.2664
       456.0004         13.0004
  21488824.5004  -16212105.94749 -12632791.49946                  21488826.6484
       648.0004         30.0004
 05  6 29 18 56 30.0000000  0  8G 1G14G22G19G15G18G11G25
  20536006.2774  -15768349.07349 -12287013.23847                  20536009.2844
       873.0004         70.0004
  20887271.5484    -451202.45549   -351582.64747                  20887272.7564
       703.0004         47.0004
  22212725.7394    7571466.97849   5899844.20046                  22212725.8224
       582.0004         23.0004
  23377390.9424    2348671.67948   1830129.35045                  23377394.4234
       280.0004          9.0004
  23256733.7444   16766521.57548  13064811.79445                  23256741.1094
       232.0004          4.0004
  24732053.1984     223416.77848    174090.29044                  24732055.6824
       177.0004          3.0004
  22603978.4074   -9921881.85349  -7731329.72546                  22603980.1894
       456.0004         13.0004
  21475262.0754  -16283376.32449 -12688326.79847                  21475264.6104
       666.0004         33.0004
 05  6 29 18 57  0.0000000  0  8G 1G14G22G19G15G18G11G25
  20533091.5794  -15783665.47849 -12298948.07947                  20533094.5634
       873.0004         70.0004
  20896477.0274    -402828.18049   -313888.41347                  20896478.2094
       703.0004         47.0004
  22222097.7574    7620714.72449   5938219.04646                  22222097.3714
       598.0004         23.0004
  23389635.2664    2413015.62448   1880267.41245                  23389638.8394
       265.0004          8.0004
  23277735.3204   16876881.51048  13150806.45945                  23277741.3734
       238.0004          4.0004
  24746266.7584     298111.91048    232294.17444                  24746271.5084
       138.0004          2.0004
  22590546.1484   -9992469.04749  -7786332.69546                  22590548.0224
       468.0004         13.0004
  21461777.9924  -16354237.40249 -12743543.17047                  21461780.3634
       703.0004         37.0004
 05  6 29 18 57 30.0000000  0  8G 1G14G22G19G15G18G11G25
  20530250.8074  -15798593.87449 -12310580.57047                  20530253.8614
       873.0004         70.0004
  20905735.1904    -354175.63949   -275977.34947                  20905736.6264
       703.0004         48.0004
  22231503.4774    7670142.72949   5976734.35346                  22231503.2434
       598.0004         23.0004
  23401931.3644    2477636.82648   1930621.51345                  23401935.5814
       244.0004          8.0004
  23298774.8204   16987448.72748  13236962.67144                  23298780.2834
       219.0004          3.0004
  24760503.4654     372925.49048    290590.37444                  24760508.8194
       124.0004          2.0004
  22577187.1204  -10062671.47449  -7841035.84346                  22577188.9224
       468.0004         14.0004
  21448372.8424  -16424680.90949 -12798434.15847                  21448375.6464
       703.0004         38.0004
 05  6 29 18 58  0.0000000  0  8G 1G14G22G19G15G18G11G25
  20527482.1594  -15813142.41549 -12321917.07247                  20527485.1954
       873.0004         70.0004
  20915044.7644    -305254.07749   -237856.65447                  20915045.7894
       703.0004         47.0004
  22240941.8534    7719744.32949   6015384.92046                  22240941.8854
       566.0004         22.0004
  23414280.0234    2542525.17748   1981183.78145                  23414283.2444
       258.0004          8.0004
  23319852.7474   17098213.52948  13323272.82044                  23319858.2014
       197.0004          3.0004
  24774760.6544     447850.54947
        92.0004          1.0004
  22563899.9414  -10132494.18149  -7895443.10646                  22563901.9634
       468.0004         14.0004
  21435046.2534  -16494711.60949 -12853003.48247                  21435048.8414
       684.0004         36.0004
 05  6 29 18 58 30.0000000  0  7G22G19G 1G14G15G11G25
  22250415.3224    7769526.37849   6054176.10346                  22250415.5524
       566.0004         22.0004
  23426679.4624    2607684.46848   2031957.17545                  23426683.8144
       272.0004          9.0004
  20524787.0864  -15827305.02949 -12332952.85147                  20524789.9614
       873.0004         70.0004
  20924406.3954    -256058.55649   -199522.48847                  20924407.4124
       722.0004         47.0004
  23340968.7104   17209180.66048  13409740.62944                  23340975.5944
       172.0004          3.0004
  22550687.5454  -10201928.27949  -7949547.56346                  22550689.2724
       481.0004         14.0004
  21421800.1124  -16564320.48349 -12907244.10847                  21421802.6164
       684.0004         35.0004
 05  6 29 18 59  0.0000000  0  7G22G19G15G 1G14G11G25
  22259916.8454    7819456.30249   6093082.49946                  22259916.8554
       566.0004         21.0004
  23439123.2634    2673078.58448   2082913.53946                  23439126.4294
       265.0004         10.0004
  23362116.4524   17320314.71548  13496338.46844                  23362123.3434
       158.0004          2.0004
  20522159.0384  -15841115.74149 -12343714.41947                  20522161.8934
       873.0004         70.0004
  20933813.3614    -206623.83849   -161001.93347                  20933814.8404
       703.0004         47.0004
  22537542.6364  -10271004.83249  -8003373.39346                  22537544.4424
       481.0004         14.0004
  21408628.6594  -16633538.01249 -12961179.78947                  21408630.9764
       703.0004         36.0004
 05  6 29 18 59 30.0000000  0  7G 1G14G22G19G15G11G25
  20519601.7074  -15854554.57649 -12354186.21947                  20519604.5204
       873.0004         70.0004
  20943269.6544    -156930.71349   -122280.02547                  20943271.0974
       703.0004         46.0004
  22269450.6424    7869555.87649   6132121.10846                  22269449.8274
       582.0004         21.0004
  23451615.8474    2738726.17948   2134067.41946                  23451618.9604
       280.0004         10.0004
  23383301.2574   17431634.26048  13583080.83544                  23383307.7694
       163.0004          3.0004
  22524469.9304  -10339700.15949  -8056902.17546                  22524471.9754
       468.0004         13.0004
  21395535.7234  -16702341.53349 -13014792.86947                  21395538.1794
       703.0004         37.0004
 05  6 29 19  0  0.0000000  0  8G 1G14G22G19G15G 3G11G25
  20517116.6834  -15867613.99849 -12364362.37147                  20517119.6214
       873.0004         72.0004
  20952776.4054    -106973.15449    -83352.06647                  20952777.5734
       703.0004         46.0004
  22279018.2994    7919833.38449   6171298.36846                  22279017.8144
       582.0004         21.0004
  23464157.3814    2804632.18448   2185422.66846                  23464161.4804
       280.0004         10.0004
  23404522.2934   17543145.62748  13669972.70144                  23404530.9814
       181.0004          2.0004
  24839573.0974         -0.32558        -0.69754                  24839577.5504
       225.0004          2.0004
  22511472.6604  -10408004.06249  -8110125.93546                  22511473.5094
       481.0004         12.0004
  21382523.1584  -16770720.17149 -13068074.88147                  21382526.3284
       684.0004         38.0004
 05  6 29 19  0 30.0000000  0  8G 1G14G22G19G15G 3G11G25
  20514698.5994  -15880320.21449 -12374263.29347                  20514701.5984
       873.0004         70.0004
  20962328.3494     -56778.05049    -44239.00447                  20962329.6314
       722.0004         46.0004
  22288614.9524    7970264.00349   6210594.92946                  22288614.4274
       566.0004         21.0004
  23476743.0274    2870768.45448   2236957.33646                  23476746.4294
       288.0004         11.0004
  23425772.9514   17654821.01248  13756992.37544                  23425777.9174
       177.0004          2.0004
  24854406.9344      77955.12348     60743.64844                  24854418.6014
       232.0004          3.0004
  22498544.8124  -10475939.70549  -8163062.48846                  22498547.5504
       468.0004         16.0004
  21369587.9444  -16838697.00949 -13121043.79447                  21369590.4794
       703.0004         40.0004
 05  6 29 19  1  0.0000000  0  8G 1G14G22G19G15G 3G11G25
  20512348.1184  -15892671.99849 -12383888.03647                  20512351.0204
       873.0004         70.0004
  20971925.2944      -6345.11249     -4940.61647                  20971926.5574
       703.0004         46.0004
  22298241.1924    8020850.44549   6250012.92446                  22298240.9164
       551.0004         19.0004
  23489372.5754    2937134.46348   2288671.02446                  23489375.6024
       304.0004         11.0004
  23447053.8914   17766660.28648  13844139.73944                  23447058.3754
       138.0004          2.0004
  24869223.4114     155812.15648    121411.32444                  24869229.3914
       244.0004          2.0004
  22485687.9914  -10543502.77649  -8215708.55146                  22485690.5324
       468.0004         25.0004
  21356729.3814  -16906267.75449 -13173696.30247                  21356732.1634
       666.0004         39.0004
 05  6 29 19  1 30.0000000  0  8G 1G14G22G19G15G 3G11G25
  20510068.2204  -15904653.56449 -12393224.30147                  20510070.9344
       873.0004         70.0004
  20981570.4364      44340.57249     34554.72347                  20981571.5774
       703.0004         49.0004
  22307900.0234    8071609.58249   6289565.50746                  22307900.8084
       536.0004         21.0004
  23502047.8294    3003743.70148   2340574.23046                  23502051.1754
       296.0004         11.0004
  23468369.4944   17878677.98648  13931426.12044
       138.0004          1.0004
  24884023.1734     233584.86048    182013.29344
       208.0004          1.0004
  22472905.5534  -10610674.36049  -8268050.91146                  22472907.1594
       468.0004         13.0004
  21343952.0024  -16973413.46649 -13226017.55947                  21343954.8384
       648.0004         36.0004
 05  6 29 19  2  0.0000000  0  8G 1G14G22G19G15G 3G11G25
  20507859.0474  -15916263.09149 -12402270.66547                  20507861.6384
       873.0004         70.0004
  20991263.7904      95279.75149     74247.59347                  20991264.8894
       703.0004         46.0004
  22317592.6164    8122544.57949   6329254.90046                  22317593.0034
       536.0004         18.0004
  23514769.2484    3070596.19748   2392666.99746                  23514773.3384
       296.0004         11.0004
  23489721.4864   17990874.71348  14018852.07744                  23489728.0574
       158.0004          2.0004
  24898806.6334     311273.75948    242549.95544                  24898813.3254
       186.0004          2.0004
  22460198.0334  -10677449.42749  -8320083.34746                  22460200.1104
       444.0004         12.0004
  21331256.1234  -17040129.03349 -13278003.66747                  21331259.0004
       648.0004         35.0004
 05  6 29 19  2 30.0000000  0  8G 1G14G22G19G15G 3G11G25
  20505719.5144  -15927506.26049 -12411031.55147                  20505722.3574
       873.0004         70.0004
  21001004.3874     146466.29949    114133.20447                  21001005.5304
       703.0004         46.0004
  22327318.0044    8173651.40949   6369078.47346                  22327317.3824
       536.0004         18.0004
  23527535.2844    3137684.40048   2444943.43846                  23527538.6274
       296.0004         11.0004
  23511103.1334   18103243.46348  14106412.02144
       138.0004          1.0004
  24913574.0214     388871.67048    303015.73144                  24913578.7714
       232.0004          2.0004
  22447566.6404  -10743830.68349  -8371808.96546                  22447568.2144
       468.0004         12.0004
  21318641.7724  -17106416.91949 -13329656.51747                  21318644.7134
       648.0004         36.0004
 05  6 29 19  3  0.0000000  0  8G 1G14G22G19G15G 3G11G25
  20503651.6134  -15938372.32749 -12419498.59447                  20503654.5684
       873.0004         70.0004
  21010793.6074     197909.68449    154218.95247                  21010794.7894
       703.0004         46.0004
  22337078.4244    8224941.84249   6409045.02946                  22337077.9014
       551.0004         19.0004
  23540348.4634    3205016.61348   2497410.00845                  23540351.5784
       296.0004          9.0004
  23532521.3484   18215793.56648  14194113.26144
       146.0004          1.0004
  24928323.2254     466387.73648    363417.68944                  24928331.9124
       208.0004          2.0004
  22435012.5844  -10809804.36249  -8423216.98346                  22435014.2244
       481.0004         14.0004
  21306111.6274  -17172263.39949 -13380965.42647                  21306114.4044
       666.0004         35.0004
 05  6 29 19  3 30.0000000  0  8G 1G14G22G19G15G 3G11G25
  20501654.6424  -15948867.15149 -12427676.35647                  20501657.3324
       873.0004         70.0004
  21020630.6064     249603.29949    194499.68947                  21020631.6264
       703.0004         44.0004
  22346872.7904    8276411.32949   6449151.10946                  22346872.3714
       551.0004         19.0004
  23553206.4144    3272585.37748   2550060.91246                  23553210.6024
       288.0004         10.0004
  23553972.0934   18328517.83348
       150.0004          1.0004
  24943057.3114     543814.63548    423750.26844                  24943067.2394
       214.0004          2.0004
  22422535.1424  -10875373.14949  -8474309.51746                  22422535.8144
       481.0004         13.0004
  21293665.2514  -17237671.37649 -13431932.63547                  21293668.2064
       684.0004         37.0004
 05  6 29 19  4  0.0000000  0  7G 1G14G22G19G15G11G25
  20499727.0894  -15958995.11749 -12435568.25747                  20499730.0444
       850.0004         70.0004
  21030514.1494     301542.22249    234971.57347                  21030515.4634
       703.0004         44.0004
  22356700.6664    8328057.23249   6489394.64846                  22356700.1494
       551.0004         19.0004
  23566108.7564    3340384.18248   2602891.06645                  23566112.1104
       296.0004          9.0004
  23575456.8474   18441410.65548
       163.0004          1.0004
  22410134.4674  -10940538.44949  -8525087.63846                  22410135.6104
       481.0004         14.0004
  21281301.9074  -17302641.90249 -13482558.97247                  21281304.2564
       703.0004         39.0004
 05  6 29 19  4 30.0000000  0  7G 1G14G22G19G15G11G25
  20497866.9324  -15968770.30449 -12443185.26147                  20497869.7934
       850.0004         68.0004
  21040441.9074     353711.05349    275622.61347                  21040442.6984
       722.0004         43.0004
  22366559.6504    8379866.48549   6529765.46746                  22366559.1664
       551.0004         19.0004
  23579051.6094    3408396.74248   2655887.77646                  23579054.8474
       304.0004         10.0004
  23596968.8564   18554456.51148
       167.0004          1.0004
  22397808.0964  -11005310.98049  -8575559.71946                  22397809.6224
       456.0004         14.0004
  21269019.3994  -17367186.09349 -13532853.09047                  21269021.8214
       703.0004         39.0004
 05  6 29 19  5  0.0000000  0  7G 1G14G22G19G15G11G25
  20496075.7404  -15978182.78049 -12450519.63347                  20496078.5844
       850.0004         68.0004
  21050414.7774     406119.16949    316460.10347                  21050415.8884
       703.0004         43.0004
  22376451.9914    8431850.57249   6570272.53646                  22376451.2994
       566.0004         20.0004
  23592035.9604    3476631.82648   2709057.86645                  23592039.2104
       288.0004          8.0004
  23618510.8024   18667663.91148
       146.0004          1.0004
  22385559.2474  -11069678.10349  -8625715.87846                  22385561.5634
       456.0004         13.0004
  21256820.3644  -17431291.13449 -13582805.01647                  21256822.9304
       703.0004         40.0004
 05  6 29 19  5 30.0000000  0  7G 1G14G22G19G15G11G25
  20494358.0064  -15987210.03749 -12457553.83547                  20494360.8074
       850.0004         68.0004
  21060437.3044     458788.09449    357500.81947                  21060438.3744
       703.0004         43.0004
  22386382.1454    8484033.38449   6610934.46146                  22386381.5534
       566.0004         20.0004
  23605066.6024    3545109.64648   2762417.11945                  23605070.3354
       280.0004          8.0004
  23640087.7214   18781054.13048
       124.0004          1.0004
  22373393.3334  -11133613.95049  -8675535.98446                  22373395.5974
       481.0004         14.0004
  21244710.2684  -17494931.23849 -13632394.65847                  21244712.2654
       742.0004         40.0004
 05  6 29 19  6  0.0000000  0  7G 1G14G22G19G15G11G25
  20492708.8074  -15995877.07649 -12464307.35147                  20492711.6344
       873.0004         70.0004
  21070504.5084     511691.82949    398724.50547                  21070505.7324
       703.0004         43.0004
  22396345.1914    8536390.94049   6651732.52346                  22396345.4644
       536.0004         20.0004
  23618138.2424    3613803.06548   2815944.36345                  23618141.2744
       280.0004          7.0004
  23661692.4054   18894600.92647
        83.0004          1.0004
  22361304.7504  -11197140.65949  -8725037.28546                  22361306.1194
       494.0004         15.0004
  21232684.2824  -17558128.39249 -13681639.14547                  21232686.3304
       742.0004         40.0004
 05  6 29 19  6 30.0000000  0  6G14G22G19G11G 1G25
  21080614.3024     564817.65649    440121.24947                  21080615.0374
       722.0004         43.0004
  22406340.0264    8588912.88149   6692658.68046                  22406339.8804
       551.0004         20.0004
  23631248.1694    3682698.16548   2869628.77345                  23631251.0824
       272.0004          7.0004
  22349291.6664  -11260267.17249  -8774226.74146                  22349293.1194
       481.0004         15.0004
  20491125.8474  -16004195.99849 -12470789.60547                  20491128.5934
       873.0004         70.0004
  21220741.1204  -17620891.21249 -13730545.18747                  21220743.1194
       763.0004         41.0004
 05  6 29 19  7  0.0000000  0  6G 1G14G22G19G11G25
  20489612.2704  -16012149.66949 -12476987.24647                  20489615.0324
       873.0004         70.0004
  21090768.9474     618182.17849    481703.99147                  21090770.2134
       703.0004         42.0004
  22416369.1714    8641617.53649   6733727.21746                  22416369.4184
       522.0004         19.0004
  23644400.4494    3751809.84448   2923481.95745                  23644402.7524
       272.0004          6.0004
  22337359.0764  -11322973.69149  -8823088.92646                  22337360.6374
       481.0004         15.0004
  21208883.8894  -17683199.79849 -13779097.28447                  21208886.4464
       742.0004         42.0004
 05  6 29 19  7 30.0000000  0  7G 1G14G22G19G15G11G25
  20488166.8444  -16019745.17049 -12482905.79947                  20488169.4014
       873.0004         70.0004
  21100967.5024     671777.04149    523466.21847                  21100969.0294
       684.0004         41.0004
  22426432.4114    8694499.31749   6774933.77746                  22426432.7914
       536.0004         20.0004
  23657591.5414    3821129.09348   2977496.85645                  23657594.6854
       265.0004          6.0004
  23726689.5614          0.08458
       135.0004          1.0004
  22325505.6684  -11385263.70349  -8871626.56646                  22325506.3694
       481.0004         14.0004
  21197112.2094  -17745058.57449 -13827298.87847                  21197114.8534
       722.0004         42.0004
 05  6 29 19  8  0.0000000  0  7G 1G14G22G19G15G11G25
  20486789.0514  -16026986.24149 -12488548.17247                  20486791.5204
       873.0004         70.0004
  21111209.5014     725598.00149    565404.62247                  21111210.7104
       703.0004         41.0004
  22436528.6824    8747556.09649   6816276.69846                  22436529.1404
       522.0004         19.0004
  23670820.4864    3890650.41048   3031669.22345                  23670824.5934
       244.0004          6.0004
  23748411.4384     114145.08048
       124.0004          1.0004
  22313731.1664  -11447137.90149  -8919840.19246                  22313732.2964
       481.0004         14.0004
  21185426.3904  -17806468.11149 -13875150.41547                  21185429.0034
       742.0004         43.0004
 05  6 29 19  8 30.0000000  0  7G 1G14G22G19G15G11G25
  20485478.9704  -16033870.15549 -12493912.24147                  20485481.7314
       873.0004         70.0004
  21121494.9064     779646.98749    607520.70947                  21121495.5884
       703.0004         41.0004
  22446659.0114    8800791.69549   6857758.95946                  22446659.2454
       508.0004         18.0004
  23684088.9324    3960374.73948   3085999.76445                  23684094.3324
       244.0004          6.0004
  23770161.4634     228437.33348
       108.0004          1.0004
  22302037.2404  -11508590.73449  -8967725.48646                  22302039.6944
       481.0004         15.0004
  21173827.4034  -17867422.63849 -13922647.40147                  21173829.6984
       742.0004         44.0004
 05  6 29 19  9  0.0000000  0  6G14G22G19G11G25G 1
  21131818.7544     833900.87149    649796.46247                  21131820.0874
       684.0004         41.0004
  22456819.4134    8854185.17549   6899364.25546                  22456819.3614
       508.0004         17.0004
  23697391.8554    4030277.47148   3140469.31745                  23697395.6944
       251.0004          6.0004
  22290419.9274  -11569641.57849  -9015297.53646                  22290421.2504
       508.0004         16.0004
  21162310.6544  -17927941.40449 -13969804.83747                  21162313.2224
       722.0004         44.0004
  20484232.6774  -16040419.24249 -12499015.40447                  20484235.2734
       873.0004         70.0004
 05  6 29 19  9 30.0000000  0  6G14G22G19G 1G11G25
  21142184.6054     888374.45949    692243.40747                  21142185.9624
       666.0004         40.0004
  22467013.0354    8907753.35249   6941105.66346                  22467013.4314
       494.0004         18.0004
  23710729.9984    4100372.33148   3195088.58945                  23710734.6044
       258.0004          6.0004
  20483053.1364  -16046618.26149 -12503845.78947                  20483055.9104
       873.0004         72.0004
  22278882.2804  -11630271.86149  -9062541.88946                  22278883.8024
       508.0004         17.0004
  21150880.7514  -17988006.18449 -14016608.51947                  21150883.2404
       722.0004         44.0004
 05  6 29 19 10  0.0000000  0  6G14G22G 1G19G11G25
  21152591.3154     943060.50349    734855.90347                  21152592.7264
       684.0004         40.0004
  22477239.1424    8961491.23649   6982979.31846                  22477239.6934
       494.0004         19.0004
  20481938.8194  -16052473.70549 -12508408.45447                  20481941.4954
       873.0004         72.0004
  23724104.1134    4170650.84448   3249850.98645                  23724107.1654
       244.0004          5.0004
  22267423.4164  -11690484.99949  -9109461.18146                  22267425.0694
       481.0004         16.0004
  21139536.7494  -18047620.06749 -14063060.85747                  21139539.2864
       742.0004         46.0004
 05  6 29 19 10 30.0000000  0  6G 1G14G22G19G11G25
  20480892.4984  -16057971.61549 -12512692.51947                  20480895.1644
       873.0004         70.0004
  21163040.6434     997971.99749    777644.07547                  21163041.8704
       684.0004         40.0004
  22487500.4434    9015413.99149   7024997.01946                  22487500.8064
       508.0004         19.0004
  23737514.2524    4241125.09448   3304765.88545                  23737518.2364
       219.0004          4.0004
  22256048.1634  -11750264.11949  -9156042.27346                  22256050.0314
       494.0004         16.0004
  21128281.8134  -18106766.50249 -14109148.95147                  21128283.8764
       763.0004         46.0004
 05  6 29 19 11  0.0000000  0  7G 1G14G22G19G15G11G25
  20479913.0524  -16063118.13849 -12516702.77647                  20479915.8604
       873.0004         70.0004
  21173531.5044    1053102.30749    820602.75247                  21173532.6844
       684.0004         41.0004
  22497796.4044    9069516.99849   7067155.19046                  22497796.1614
       536.0004         19.0004
  23750960.6394    4311786.85948   3359826.89545                  23750964.0034
       202.0004          5.0004
  23879277.9924         -0.97658
       106.0004          1.0004
  22244753.9894  -11809612.35349  -9202287.63046                  22244755.2214
       481.0004         16.0004
  21117114.3264  -18165448.43049 -14154875.08747                  21117117.1134
       722.0004         46.0004
 05  6 29 19 11 30.0000000  0  6G14G22G19G11G 1G25
  21184059.8824    1108429.03449    863714.48047                  21184061.1974
       684.0004         41.0004
  22508121.9764    9123780.06549   7109438.07946                  22508121.6364
       508.0004         18.0004
  23764437.9934    4382612.54148   3415015.63045                  23764443.3034
       208.0004          6.0004
  22233539.3334  -11868548.45849  -9248211.83346                  22233540.5064
       508.0004         16.0004
  20478996.5544  -16067934.99649 -12520456.15147                  20478999.3204
       873.0004         70.0004
  21106032.6694  -18223684.51149 -14200253.80047                  21106035.2184
       763.0004         47.0004
 05  6 29 19 12  0.0000000  0  6G 1G14G22G19G11G25
  20478149.5334  -16072386.22049 -12523924.61947                  20478152.1354
       873.0004         70.0004
  21194632.6284    1163987.63349    907006.88847                  21194633.2974
       703.0004         39.0004
  22518485.6634    9178240.82549   7151875.01546                  22518486.0144
       508.0004         17.0004
  23777954.4074    4453636.51448   3470358.88145                  23777960.3684
       225.0004          6.0004
  22222410.6634  -11927033.03449  -9293784.20646                  22222411.3244
       522.0004         16.0004
  21095043.2634  -18281435.91949 -14245254.85247                  21095045.2324
       784.0004         48.0004
 05  6 29 19 12 30.0000000  0  7G 1G14G22G19G20G11G25
  20477372.8384  -16076467.75949 -12527105.01947                  20477375.6234
       873.0004         72.0004
  21205249.7384    1219781.11749    950482.32847                  21205250.8334
       684.0004         39.0004
  22528887.5644    9232904.51349   7194470.06846                  22528887.0404
       508.0004         17.0004
  23791506.8184    4524860.56848   3525858.03945                  23791512.2594
       202.0004          5.0004
  25290689.4424         -0.39458
       100.0004          1.0004
  22211367.8614  -11985059.27149  -9338999.43046                  22211369.7074
       508.0004         17.0004
  21084146.6984  -18338695.67049 -14289872.79647                  21084148.8944
       784.0004         47.0004
 05  6 29 19 13  0.0000000  0  7G 1G14G22G19G20G11G25
  20476658.5714  -16080221.82749 -12530030.25147                  20476661.3094
       873.0004         72.0004
  21215903.4294    1275766.82549    994107.55547                  21215904.5504
       684.0004         39.0004
  22539320.8944    9287730.41649   7237191.52246                  22539320.4564
       522.0004         18.0004
  23805090.6824    4596240.83648   3581478.93145                  23805095.1974
       202.0004          6.0004
  25274486.6734     -85168.59648
       115.0004          1.0004
  22200406.0644  -12042666.39549  -9383888.06946                  22200407.2954
       522.0004         17.0004
  21073336.6014  -18395503.41349 -14334138.52547                  21073338.8024
       784.0004         47.0004
 05  6 29 19 13 30.0000000  0  6G14G22G19G11G 1G25
  21226599.6274    1331976.26449   1037907.11447                  21226600.5014
       684.0004         38.0004
  22549791.2014    9342751.99549   7280065.44946                  22549790.5614
       522.0004         18.0004
  23818710.0144    4667807.57248   3637245.10445                  23818713.7184
       244.0004          7.0004
  22189530.1154  -12099819.07049  -9428422.60146                  22189531.5074
       522.0004         17.0004
  20476012.2974  -16083616.37049 -12532675.33147                  20476014.9344
       873.0004         70.0004
  21062619.0484  -18451823.95749 -14378024.61947                  21062621.1224
       784.0004         47.0004
 05  6 29 19 14  0.0000000  0  6G14G22G19G11G25G 1
  21237334.3194    1388387.93949   1081864.26347                  21237335.2774
       684.0004         38.0004
  22560295.0494    9397950.22849   7323077.03946                  22560295.3114
       522.0004         18.0004
  23832359.7944    4739538.09248   3693138.91845                  23832363.2454
       238.0004          6.0004
  22178737.4244  -12156535.29049  -9472617.02346                  22178738.9694
       522.0004         18.0004
  21051991.0224  -18507674.86849 -14421544.76147                  21051993.2964
       784.0004         47.0004
  20475430.7004  -16086672.13649 -12535056.42747                  20475433.3554
       873.0004         70.0004
 05  6 29 19 14 30.0000000  0  6G14G 1G22G19G11G25
  21248105.9164    1444991.79949   1125971.16647                  21248106.7614
       684.0004         37.0004
  20474911.9464  -16089398.58249 -12537180.91347                  20474914.6174
       873.0004         70.0004
  22570831.1964    9453317.06449   7366219.99846                  22570831.2284
       522.0004         16.0004
  23846038.6904    4811421.19248   3749151.60445                  23846042.8774
       244.0004          7.0004
  22168026.7204  -12212821.39449  -9516476.28846                  22168028.3534
       522.0004         18.0004
  21041451.0594  -18563062.72049 -14464704.08047                  21041452.8864
       784.0004         46.0004
 05  6 29 19 15  0.0000000  0  6G14G22G19G11G25G 1
  21258910.7064    1501772.52149   1170215.88047                  21258911.5704
       666.0004         36.0004
  22581396.5104    9508839.10849   7409483.89646                  22581396.5844
       494.0004         16.0004
  23859742.9014    4883440.19848   3805270.19445                  23859747.3044
       244.0004          8.0004
  22157394.9794  -12268689.12949  -9560009.56046                  22157396.9684
       522.0004         19.0004
  21030996.7924  -18617999.37249 -14507511.81747                  21030999.0354
       763.0004         46.0004
  20474453.0134  -16091810.49749 -12539060.30947                  20474455.7704
       873.0004         72.0004
 05  6 29 19 15 30.0000000  0  6G 1G14G22G19G11G25
  20474064.2454  -16093853.04749 -12540651.88947                  20474067.1504
       873.0004         70.0004
  21269759.4374    1558784.02349   1214640.42747                  21269760.9054
       648.0004         36.0004
  22592001.8704    9564572.58049   7452912.53546                  22592002.1794
       481.0004         15.0004
  23873484.7904    4955647.92148   3861535.85446                  23873488.8074
       288.0004         10.0004
  22146854.4074  -12324080.90549  -9603171.95346                  22146856.2744
       522.0004         19.0004
  21020639.2264  -18672427.55149 -14549923.34647                  21020641.2824
       742.0004         46.0004
 05  6 29 19 16  0.0000000  0  6G 1G14G22G19G11G25
  20473743.9364  -16095536.74449 -12541963.84347                  20473746.4394
       873.0004         72.0004
  21280650.3764    1616015.48249   1259236.36347                  21280651.7354
       648.0004         37.0004
  22602645.9944    9620508.33449   7496498.79546                  22602646.3334
       481.0004         16.0004
  23887259.7984    5028031.99648   3917938.92046                  23887263.9264
       296.0004         10.0004
  22136402.7814  -12379004.23249  -9645969.32346                  22136404.3094
       522.0004         18.0004
  21010376.9964  -18726354.91049 -14591944.62547                  21010379.3934
       742.0004         46.0004
 05  6 29 19 16 30.0000000  0  7G 1G14G22G19G20G11G25
  20473486.9634  -16096886.33549 -12543015.45447                  20473489.7604
       873.0004         70.0004
  21291578.0504    1673441.59649   1303983.98047                  21291579.1094
       631.0004         35.0004
  22613324.7964    9676623.13549   7540224.59546                  22613325.1294
       494.0004         16.0004
  23901061.7624    5100565.90348   3974458.69445                  23901066.5894
       258.0004          8.0004
  25160714.5704         -0.31458
       100.0004          1.0004
  22126036.2224  -12433480.89449  -9688418.63846                  22126037.9204
       522.0004         19.0004
  21000206.5524  -18779803.00049 -14633592.44147                  21000208.7834
       763.0004         48.0004
 05  6 29 19 17  0.0000000  0  6G14G22G19G11G 1G25
  21302539.5114    1731045.21849   1348869.90847                  21302540.9104
       614.0004         34.0004
  22624034.6284    9732902.13149   7584078.32646                  22624034.4754
       494.0004         16.0004
  23914890.1304    5173231.19748   4031080.92045                  23914894.0114
       280.0004          8.0004
  22115752.5774  -12487524.09449  -9730530.19346                  22115753.3524
       536.0004         19.0004
  20473290.4964  -16097918.39249 -12543819.63447                  20473293.3354
       873.0004         70.0004
  20990124.2354  -18832785.61749 -14674877.55547                  20990126.4444
       763.0004         49.0004
 05  6 29 19 17 30.0000000  0  6G14G22G 1G19G11G25
  21313535.6424    1788828.50149   1393895.84047                  21313537.0484
       631.0004         34.0004
  22634775.9624    9789349.19849   7628063.02846                  22634776.0244
       481.0004         15.0004
  20473155.1584  -16098630.28949 -12544374.33947                  20473157.8204
       873.0004         70.0004
  23928743.7524    5246028.65248   4087806.06045                  23928747.2554
       288.0004          8.0004
  22105551.8144  -12541128.42249  -9772299.77146                  22105553.7424
       536.0004         19.0004
  20980131.2814  -18885297.48849 -14715795.84947                  20980133.5774
       763.0004         47.0004
 05  6 29 19 18  0.0000000  0  7G14G22G19G 1G20G11G25
  21324571.0344    1846820.81949   1439084.65147                  21324572.4634
       631.0004         34.0004
  22645555.3724    9845995.89649   7672203.27246                  22645555.9024
       468.0004         15.0004
  23942626.5904    5318986.52448   4144656.22845                  23942630.2434
       280.0004          9.0004
  20473086.3984  -16098992.08449 -12544656.24047                  20473088.9034
       873.0004         72.0004
  25111781.3304         -1.18658
       111.0004          1.0004
  22095440.4114  -12594261.11149  -9813701.83746                  22095441.6664
       508.0004         19.0004
  20970234.8494  -18937305.73549 -14756321.71847                  20970236.9164
       784.0004         49.0004
 05  6 29 19 18 30.0000000  0  7G14G22G 1G19G20G11G25
  21335640.3224    1904989.11549   1484410.59247                  21335641.6394
       631.0004         34.0004
  22656367.4404    9902811.42049   7716475.08246                  22656367.1764
       494.0004         15.0004
  20473077.8644  -16099036.28549 -12544690.66447                  20473080.4214
       873.0004         70.0004
  23956534.1754    5392070.62348   4201604.74645                  23956537.9044
       265.0004          8.0004
  25095445.8754     -85843.09148
       100.0004          1.0004
  22085413.9464  -12646951.28849  -9854759.09946                  22085415.3264
       522.0004         19.0004
  20960427.8724  -18988839.99249 -14796478.24647                  20960430.0684
       784.0004         49.0004
 05  6 29 19 19  0.0000000  0  7G14G22G19G20G 1G11G25
  21346743.7524    1963338.74649   1529877.83047                  21346745.1824
       614.0004         33.0004
  22667212.2454    9959802.87149   7760883.99046                  22667211.6794
       468.0004         14.0004
  23970466.3864    5465284.59748   4258654.46545                  23970470.6334
       258.0004          7.0004
  25079099.3464    -171750.45848
       124.0004          1.0004
  20473130.9944  -16098757.17149 -12544473.15747                  20473133.6644
       873.0004         72.0004
  22075473.1874  -12699191.21849  -9895465.50846                  22075475.2114
       536.0004         19.0004
  20950713.2504  -19039891.69149 -14836258.74947                  20950715.3324
       805.0004         54.0004
 05  6 29 19 19 30.0000000  0  7G14G22G 1G19G20G11G25
  21357881.1554    2021866.07449   1575483.53847                  21357882.1994
       614.0004         32.0004
  22678090.0724   10016968.72549   7805428.79046                  22678089.9114
       456.0004         14.0004
  20473245.1084  -16098157.54549 -12544005.90047                  20473247.8094
       873.0004         72.0004
  23984422.2324    5538623.97848   4315801.92645                  23984426.5394
       258.0004          8.0004
  25062737.2814    -257724.52748
       124.0004          1.0004
  22065617.7694  -12750980.17249  -9935820.51846                  22065619.2234
       522.0004         19.0004
  20941090.0934  -19090460.92049 -14875663.30247                  20941092.0894
       805.0004         54.0004
 05  6 29 19 20  0.0000000  0  7G14G22G19G 1G20G11G25
  21369056.2484    2080591.90049   1621243.92246                  21369057.0004
       614.0004         31.0004
  22689005.8404   10074331.73849   7850127.22346                  22689006.2844
       456.0004         15.0004
  23998405.2644    5612107.92248   4373061.99745                  23998409.3394
       208.0004          6.0004
  20473424.1074  -16097216.46749 -12543272.57847                  20473426.8144
       873.0004         72.0004
  25046370.0364    -343742.46848
       163.0004          1.0004
  22055853.2324  -12802294.10149  -9975805.37346                  22055854.8134
       536.0004         19.0004
  20931563.4844  -19140523.98749 -14914673.44347                  20931565.6304
       827.0004         55.0004
 05  6 29 19 20 30.0000000  0  7G14G22G 1G19G20G11G25
  21380267.3794    2139506.44449   1667151.35446                  21380268.4114
       614.0004         31.0004
  22699957.7474   10131883.82649   7894972.97446                  22699957.8824
       456.0004         15.0004
  20473666.3184  -16095943.23149 -12542280.42847                  20473668.9714
       873.0004         72.0004
  24012414.8314    5685725.24648   4430426.02245                  24012418.4004
       214.0004          5.0004
  25029990.9084    -429812.05948   -334917.45344
       172.0004          1.0004
  22046177.0094  -12853139.81049 -10015425.38646                  22046178.2664
       508.0004         19.0004
  20922131.6734  -19190087.73149 -14953294.50347                  20922133.9294
       805.0004         55.0004
 05  6 29 19 21  0.0000000  0  7G14G22G19G 1G20G11G25
  21391512.2094    2198598.13849   1713196.83046                  21391512.9144
       614.0004         31.0004
  22710944.0774   10189615.41549   7939958.60546                  22710944.2564
       468.0004         15.0004
  24026447.0504    5759463.51348   4487884.29045                  24026452.9484
       186.0004          4.0004
  20473969.6664  -16094348.80049 -12541038.00147                  20473972.4914
       850.0004         72.0004
  25013600.0704    -515942.43748   -402031.97544
       167.0004          1.0004
  22036589.1454  -12903525.16549 -10054686.67146                  22036590.6784
       522.0004         20.0004
  20912793.4144  -19239160.22049 -14991532.76747                  20912795.3964
       805.0004         54.0004
 05  6 29 19 21 30.0000000  0  7G14G22G 1G19G20G11G25
  21402790.4044    2257864.81649   1759378.65447                  21402791.5104
       631.0004         32.0004
  22721964.2394   10247526.92449   7985084.42746                  22721963.7104
       468.0004         15.0004
  20474333.9724  -16092434.65149 -12539546.44547                  20474336.6764
       850.0004         70.0004
  24040501.5774    5833319.36548   4545434.14545                  24040505.3494
       177.0004          4.0004
  24997195.9244    -602545.12248
       135.0004          1.0004
  22027089.6314  -12953448.68949 -10093588.09346                  22027091.1434
       551.0004         20.0004
  20903549.1064  -19287740.16449 -15029387.23047                  20903550.7824
       827.0004         54.0004
 05  6 29 19 22  0.0000000  0  6G14G22G19G11G 1G25
  21414103.6424    2317316.46149   1805704.60747                  21414104.8864
       614.0004         32.0004
  22733020.9314   10305629.50349   8030359.13346                  22733021.0774
       481.0004         15.0004
  24054579.1114    5907300.56448   4603081.70844                  24054582.3024
       181.0004          3.0004
  22017679.5354  -13002897.68049 -10132119.75646                  22017680.8564
       551.0004         20.0004
  20474761.1154  -16090190.74049 -12537797.93347                  20474763.5394
       873.0004         72.0004
  20894400.5984  -19335814.84949 -15066847.99047                  20894402.5794
       805.0004         54.0004
 05  6 29 19 22 30.0000000  0  6G14G22G 1G19G11G25
  21425451.8224    2376951.93949   1852173.80646                  21425452.7584
       614.0004         31.0004
  22744114.1964   10363924.81649   8075784.03346                  22744114.2484
       481.0004         15.0004
  20475250.6714  -16087617.40349 -12535792.72547                  20475253.0414
       873.0004         72.0004
  24068680.0084    5981405.45748   4660825.68145                  24068685.9054
       167.0004          4.0004
  22008360.5864  -13051869.48649 -10170279.57946                  22008362.2174
       551.0004         20.0004
  20885348.7904  -19383381.83149 -15103913.13447                  20885350.9224
       805.0004         54.0004
 05  6 29 19 23  0.0000000  0  7G14G22G19G 1G20G11G25
  21436836.7284    2436779.68449   1898792.82447                  21436837.6214
       614.0004         32.0004
  22755245.9674   10422422.57249   8121366.67746                  22755245.7734
       468.0004         14.0004
  24082807.4524    6055640.87948   4718671.28845                  24082810.9644
       177.0004          4.0004
  20475804.6944  -16084706.15549 -12533524.20947                  20475807.4264
       850.0004         72.0004
  24947954.2754          0.09758         1.17354                  24947959.3504
       197.0004          2.0004
  21999134.3724  -13100352.62549 -10208058.62546                  21999135.4904
       551.0004         20.0004
  20876395.9314  -19430429.81849 -15140573.86847                  20876398.1404
       805.0004         54.0004
 05  6 29 19 23 30.0000000  0  7G14G22G 1G19G20G11G25
  21448251.7424    2496765.23149   1945534.81146                  21448252.7964
       614.0004         31.0004
  22766409.9514   10481090.44149   8167081.87646                  22766410.4754
       456.0004         14.0004
  20476416.5134  -16081491.16849 -12531019.01147                  20476419.1404
       850.0004         72.0004
  24096953.1494    6129970.92848   4776590.68044                  24096959.6534
       186.0004          3.0004
  24931497.1954     -87111.70948
       154.0004          1.0004
  21989995.4984  -13148378.38949 -10245481.27546                  21989996.4344
       551.0004         21.0004
  20867535.9184  -19476990.45849 -15176854.85247                  20867537.8754
       805.0004         54.0004
 05  6 29 19 24  0.0000000  0  6G14G22G19G11G 1G25
  21459695.3564    2556902.21049   1992394.78846                  21459696.5224
       614.0004         31.0004
  22777605.5834   10539923.74549   8212925.98246                  22777606.1074
       444.0004         13.0004
  24111113.2624    6204387.85048   4834577.76945                  24111116.7914
       197.0004          4.0004
  21980942.8004  -13195949.87149 -10282549.93946                  21980944.3684
       566.0004         22.0004
  20477084.9994  -16077978.29749 -12528281.69647                  20477087.5614
       873.0004         72.0004
  20858767.3524  -19523067.34949 -15212758.88547                  20858769.6014
       784.0004         54.0004
 05  6 29 19 24 30.0000000  0  6G14G 1G22G19G11G25
  21471169.7144    2617200.99649   2039380.85246                  21471170.9604
       598.0004         31.0004
  20477812.2034  -16074156.47949 -12525303.64347                  20477814.8414
       850.0004         72.0004
  22788835.1754   10598935.02849   8258908.76446                  22788836.0514
       444.0004         14.0004
  24125292.8504    6278900.97948   4892639.75644                  24125299.5074
       202.0004          3.0004
  21971979.0994  -13243053.16649 -10319253.78346                  21971980.6984
       566.0004         22.0004
  20850094.2394  -19568646.45349 -15248275.03547                  20850096.1384
       805.0004         54.0004
 05  6 29 19 25  0.0000000  0  7G14G22G 1G19G20G11G25
  21482678.6654    2677679.79949   2086507.18946                  21482679.6224
       614.0004         30.0004
  22800102.2684   10658144.05249   8305045.64446                  22800103.2994
       432.0004         13.0004
  20478601.8074  -16070007.46449 -12522070.63147                  20478604.3284
       873.0004         72.0004
  24139494.1474    6353526.80048   4950789.60744                  24139499.2604
       225.0004          3.0004
  24882107.0694         -0.70558         0.16354                  24882112.5164
       177.0004          3.0004
  21963108.6784  -13289667.25849 -10355576.43446                  21963110.4934
       566.0004         21.0004
  20841519.2654  -19613706.95749 -15283387.07847                  20841521.3604
       805.0004         54.0004
 05  6 29 19 25 30.0000000  0  7G14G 1G22G19G20G11G25
  21494221.4754    2738338.73149   2133773.88946                  21494222.3194
       598.0004         30.0004
  20479453.7704  -16065530.59649 -12518582.14847                  20479456.2034
       873.0004         70.0004
  22811407.1984   10717553.09349   8351338.38346                  22811407.2834
       420.0004         12.0004
  24153717.4094    6428264.39648   5009026.58344                  24153723.0934
       238.0004          3.0004
  24865626.3714     -86607.59148    -67485.60444                  24865632.2104
       142.0004          2.0004
  21954332.4664  -13335788.84749 -10391515.31546                  21954333.8594
       582.0004         22.0004
  20833044.0384  -19658245.65549 -15318092.52147                  20833045.8674
       827.0004         54.0004
 05  6 29 19 26  0.0000000  0  6G14G22G 1G19G11G25
  21505799.9924    2799185.67349   2181187.09046                  21505801.5864
       582.0004         29.0004
  22822752.8154   10777171.85749   8397794.54146                  22822753.3654
       444.0004         13.0004
  20480369.4964  -16060717.61249 -12514831.75847                  20480371.9264
       850.0004         70.0004
  24167961.5714    6503120.14648   5067355.58945                  24167964.7034
       232.0004          4.0004
  21945651.9924  -13381406.40849 -10427061.44746                  21945653.3854
       598.0004         23.0004
  20824669.6974  -19702251.73049 -15352382.93847                  20824671.6304
       827.0004         55.0004
 05  6 29 19 26 30.0000000  0  7G14G 1G22G19G20G11G25
  21517409.7654    2860195.87949   2228727.50746                  21517411.2344
       566.0004         29.0004
  20481344.6724  -16055593.10949 -12510838.62747                  20481347.1074
       850.0004         70.0004
  22834133.3954   10836977.50149   8444396.31846                  22834133.8354
       432.0004         13.0004
  24182224.3224    6578067.96548   5125756.29045                  24182228.0164
       244.0004          5.0004
  24832647.7334         -0.26058        -0.39254
       118.0004          1.0004
  21937062.5464  -13426542.08149 -10462232.08246                  21937063.6214
       582.0004         23.0004
  20816393.1454  -19745746.90549 -15386275.24647                  20816394.8444
       850.0004         57.0004
 05  6 29 19 27  0.0000000  0  7G14G22G 1G19G20G11G25
  21529049.9214    2921364.15549   2276391.09746                  21529051.2244
       582.0004         30.0004
  22845549.0264   10896966.57249   8491141.02446                  22845549.1264
       444.0004         13.0004
  20482378.1144  -16050161.91649 -12506606.51247                  20482380.5414
       850.0004         70.0004
  24196502.6824    6653101.11748   5184223.52645                  24196507.1464
       304.0004          6.0004
  24816139.9984     -86739.76547
        95.0004          1.0004
  21928564.6524  -13471197.78649 -10497028.72146                  21928565.9444
       582.0004         23.0004
  20808212.9054  -19788733.69049 -15419771.40447                  20808214.5804
       850.0004         58.0004
 05  6 29 19 27 30.0000000  0  6G14G22G 1G19G11G25
  21540720.6104    2982692.71549   2324179.58546                  21540721.7904
       582.0004         29.0004
  22856999.6934   10957143.17649   8538031.85446                  22856999.4784
       420.0004         12.0004
  20483470.5814  -16044421.39149 -12502133.36347                  20483473.1224
       850.0004         70.0004
  24210797.6014    6728220.51948   5242757.99745                  24210801.1934
       312.0004          6.0004
  21920159.9884  -13515368.14049 -10531447.15646                  21920161.1824
       598.0004         23.0004
  20800130.7694  -19831206.92849 -15452867.39247                  20800132.3444
       873.0004         60.0004
 05  6 29 19 28  0.0000000  0  6G14G22G19G11G 1G25
  21552417.9474    3044163.60249   2372078.97146                  21552419.4444
       582.0004         29.0004
  22868483.7994   11017491.08249   8585056.18946                  22868483.4294
       432.0004         13.0004
  24225104.2624    6803406.67048   5301344.46745                  24225110.1554
       272.0004          5.0004
  21911844.0884  -13559068.01849 -10565498.99546                  21911844.8094
       614.0004         23.0004
  20484618.4804  -16038389.17649 -12497432.92147                  20484620.9854
       850.0004         70.0004
  20792143.1404  -19873182.00449 -15485575.21047                  20792144.7074
       873.0004         60.0004
 05  6 29 19 28 30.0000000  0  6G14G 1G22G19G11G25
  21564141.5104    3105770.94949   2420084.69246                  21564142.8094
       582.0004         29.0004
  20485820.8984  -16032070.86549 -12492509.54747                  20485823.2874
       873.0004         70.0004
  22879999.6524   11078006.14449   8632210.76746                  22879999.9714
       432.0004         12.0004
  24239423.4454    6878652.59448   5359977.50045                  24239429.5034
       244.0004          5.0004
  21903616.9214  -13602300.92749 -10599186.96546                  21903618.2184
       598.0004         24.0004
  20784249.5434  -19914661.95549 -15517897.21647                  20784251.2594
       850.0004         60.0004
 05  6 29 19 29  0.0000000  0  7G14G22G 1G19G20G11G25
  21575892.9864    3167524.46249   2468204.31146                  21575893.6494
       598.0004         29.0004
  22891548.5694   11138700.20549   8679504.82946                  22891549.9554
       398.0004         12.0004
  20487079.4744  -16025456.25349 -12487355.28947                  20487081.9344
       873.0004         70.0004
  24253754.1804    6953966.91948   5418663.81545                  24253758.8894
       232.0004          5.0004
  24750006.4354          0.14357
        85.0004          1.0004
  21895481.2344  -13645053.30349 -10632500.48946                  21895482.9274
       598.0004         24.0004
  20776452.5444  -19955634.20249 -15549823.61047                  20776454.3184
       850.0004         60.0004
 05  6 29 19 29 30.0000000  0  6G14G22G19G11G 1G25
  21587672.0604    3229423.19949   2516437.09746                  21587672.7684
       598.0004         28.0004
  22903133.0684   11199573.96349   8726938.88946                  22903133.5844
       420.0004         12.0004
  24268099.0194    7029346.89948   5477401.28945                  24268104.7104
       251.0004          7.0004
  21887437.6514  -13687323.27749 -10665438.11946                  21887438.8294
       598.0004         24.0004
  20488394.5274  -16018546.22049 -12481970.83447                  20488396.8154
       873.0004         68.0004
  20768752.9904  -19996096.77849 -15581352.85747                  20768754.7534
       850.0004         60.0004
 05  6 29 19 30  0.0000000  0  6G 1G14G22G19G11G25
  20489770.5804  -16011313.50849 -12476334.94147                  20489773.1634
       850.0004         68.0004
  21599483.5594    3291494.22849   2564804.13246                  21599484.5664
       582.0004         27.0004
  22914756.9324   11260656.28949   8774535.49246                  22914756.7074
       444.0004         12.0004
  24282461.1164    7104818.14748   5536209.89745                  24282466.6574
       258.0004          7.0004
  21879491.2894  -13729080.86549 -10697976.48746                  21879492.6054
       598.0004         24.0004
  20761155.4594  -20036020.22349 -15612462.00347                  20761157.2554
       827.0004         60.0004
 05  6 29 19 30 30.0000000  0  7G 1G14G22G19G20G11G25
  20491205.6004  -16003772.93249 -12470459.15447                  20491208.0734
       873.0004         68.0004
  21611324.9334    3353722.42849   2613293.63046                  21611325.9094
       582.0004         28.0004
  22926417.3864   11321933.60149   8822284.03446                  22926417.2754
       456.0004         12.0004
  24296837.8604    7180364.08748   5595076.70545                  24296844.1304
       258.0004          7.0004
  24700310.9754         -0.06858         0.30754
       121.0004          1.0004
  21871639.9674  -13770338.51849 -10730125.29846                  21871641.1864
       582.0004         24.0004
  20753658.6674  -20075417.12549 -15643160.85647                  20753660.3774
       827.0004         58.0004
 05  6 29 19 31  0.0000000  0  8G 1G14G22G19G20G30G11G25
  20492697.2304  -15995933.92049 -12464350.81847                  20492699.8504
       873.0004         68.0004
  21623194.8574    3416098.19749   2661898.12846                  21623195.9534
       598.0004         28.0004
  22938113.6604   11383398.21149   8870178.51646                  22938114.2094
       432.0004         12.0004
  24311225.9174    7255973.77448   5653993.18745                  24311231.1734
       225.0004          6.0004
  24683710.3544     -87853.40547
        90.0004          1.0004
  24669913.6224         -0.77657       -11.40856                  24669915.3164
        87.0004         19.0004
  21863883.1574  -13811102.89549 -10761889.73346                  21863884.6214
       598.0004         25.0004
  20746260.5574  -20114294.11749 -15673454.58147                  20746262.3284
       827.0004         60.0004
 05  6 29 19 31 30.0000000  0  7G14G 1G22G19G30G11G25
  21635093.0614    3478624.46949   2710619.90246                  21635094.6874
       582.0004         29.0004
  20494246.6884  -15987793.17549 -12458007.37247                  20494248.9454
       873.0004         68.0004
  22949846.6354   11445054.85849   8918222.64946                  22949847.1634
       444.0004         11.0004
  24325626.8014    7331648.85948   5712960.61345                  24325631.5594
       197.0004          5.0004
  24662509.5624     -38911.09347    -30343.41346                  24662511.0604
        78.0004         13.0004
  21856220.9724  -13851367.92449 -10793265.07246                  21856222.1254
       598.0004         25.0004
  20738962.2194  -20152645.81749 -15703338.99447                  20738964.2674
       805.0004         58.0004
 05  6 29 19 32  0.0000000  0  6G14G 1G22G19G11G25
  21647017.5774    3541287.73349   2759448.41646                  21647018.9934
       582.0004         28.0004
  20495850.4254  -15979363.99049 -12451439.16547                  20495852.7844
       873.0004         68.0004
  22961613.6644   11506891.69649   8966407.17046                  22961613.2904
       432.0004         12.0004
  24340036.3114    7407374.13348   5771967.14845                  24340045.2474
       158.0004          4.0004
  21848651.3944  -13891144.32649 -10824259.65746                  21848653.2154
       582.0004         25.0004
  20731761.9224  -20190483.27849 -15732822.70047                  20731764.0194
       805.0004         60.0004
 05  6 29 19 32 30.0000000  0  7G 1G14G22G19G20G11G25
  20497509.5884  -15970645.91049 -12444645.84547                  20497511.9474
       897.0004         70.0004
  21658968.2854    3604087.98049   2808383.67646                  21658969.5544
       598.0004         28.0004
  22973415.5104   11568910.53749   9014733.50546                  22973415.4284
       432.0004         11.0004
  24354454.9564    7483148.88248   5831012.22044                  24354462.3824
       124.0004          2.0004
  24633911.0024         -0.29558         1.04754                  24633914.0274
       202.0004          2.0004
  21841175.7674  -13930429.13549 -10854871.17746                  21841177.3164
       582.0004         25.0004
  20724660.1774  -20227803.26149 -15761903.17447                  20724662.3944
       805.0004         58.0004
 05  6 29 19 33  0.0000000  0  7G 1G14G22G19G20G11G25
  20499225.8164  -15961626.42149 -12437617.66447                  20499228.2934
       873.0004         70.0004
  21670947.0964    3667037.73949   2857435.42646                  21670948.6284
       582.0004         28.0004
  22985254.9944   11631125.60749   9063212.76146                  22985254.8374
       420.0004         10.0004
  24368887.8914    7558983.50148   5890103.93744
       128.0004          1.0004
  24617298.9974     -87327.78748
       197.0004          1.0004
  21833796.9034  -13969207.16849 -10885087.81446                  21833798.0144
       614.0004         25.0004
  20717659.9174  -20264591.39949 -15790569.22847                  20717661.4444
       827.0004         60.0004
 05  6 29 19 33 30.0000000  0  7G 1G14G22G19G20G11G25
  20500995.9474  -15952324.80549 -12430369.64247                  20500998.1994
       897.0004         68.0004
  21682950.6944    3730117.79249   2906588.71446                  21682952.0734
       566.0004         27.0004
  22997127.3734   11693518.53849   9111830.61646                  22997127.7494
       387.0004         10.0004
  24383325.8924    7634857.35348
       103.0004          1.0004
  24600660.6504    -175307.95348
       154.0004          1.0004
  21826510.7704  -14007494.84249 -10914922.36246                  21826512.0444
       598.0004         26.0004
  20710757.2904  -20300864.61549 -15818834.04147                  20710758.7904
       850.0004         60.0004
 05  6 29 19 34  0.0000000  0  7G14G 1G22G19G30G11G25
  21694982.4194    3793343.87249   2955855.78546                  21694983.3624
       582.0004         27.0004
  20502822.7264  -15942724.74649 -12422889.06747                  20502825.5744
       873.0004         70.0004
  23009037.5514   11756107.74449   9160601.39046                  23009038.2514
       377.0004         10.0004
  24397776.0704    7710785.12047
        85.0004          1.0004
  24626533.6324         -0.60158         3.00355                  24626534.7894
       108.0004          8.0004
  21819321.7284  -14045273.85549 -10944360.53946                  21819322.6514
       598.0004         25.0004
  20703956.1664  -20336604.03149 -15846682.90647                  20703957.9464
       850.0004         61.0004
 05  6 29 19 34 30.0000000  0  6G14G 1G22G30G11G25
  21707044.3754    3856730.52049   3005247.97746                  21707045.5104
       566.0004         26.0004
  20504709.0114  -15932811.69649 -12415164.60747                  20504711.3914
       873.0004         70.0004
  23020988.5314   11818909.22649   9209537.57246                  23020988.7714
       377.0004         10.0004
  24619559.3974     -36656.21548    -28554.84145                  24619561.6714
       131.0004          9.0004
  21812232.6244  -14082526.73049 -10973388.74046                  21812233.9514
       614.0004         26.0004
  20697259.8744  -20371792.90949 -15874102.77847                  20697261.8274
       850.0004         63.0004
 05  6 29 19 35  0.0000000  0  7G14G 1G22G20G30G11G25
  21719135.0564    3920266.83749   3054756.79046                  21719136.4994
       566.0004         27.0004
  20506652.9264  -15922596.34449 -12407204.58547                  20506655.3694
       873.0004         68.0004
  23032978.1824   11881913.91749   9258632.09446                  23032978.8254
       409.0004         11.0004
  24550748.6724         -0.07658        -0.22854                  24550753.0414
       272.0004          2.0004
  24612659.1734     -72916.23348    -56802.02345                  24612661.3504
       124.0004          9.0004
  21805242.5134  -14119261.52549 -11002013.24446                  21805244.0224
       614.0004         26.0004
  20690667.0534  -20406439.99049 -15901100.46947                  20690668.6264
       873.0004         63.0004
 05  6 29 19 35 30.0000000  0  7G 1G14G22G20G30G11G25
  20508647.7424  -15912114.19549 -12399036.66647                  20508649.9204
       897.0004         68.0004
  21731247.2474    3983917.27949   3104354.54346                  21731248.3614
       566.0004         25.0004
  23044999.9244   11945087.65549   9307858.35346                  23044999.6294
       409.0004         10.0004
  24534093.3114     -87520.64748    -68197.99844                  24534096.4584
       232.0004          2.0004
  24605827.9474    -108812.47548    -84763.22046                  24605828.7504
       124.0004         11.0004
  21798343.9444  -14155511.57549 -11030260.03346                  21798345.7584
       598.0004         27.0004
  20684170.4814  -20440578.47449 -15927701.85647                  20684171.9974
       873.0004         61.0004
 05  6 29 19 36  0.0000000  0  7G14G 1G22G20G30G11G25
  21743382.3574    4047688.52649   3154046.41146                  21743383.9024
       551.0004         26.0004
  20510694.5724  -15901358.37849 -12390655.49947                  20510696.7574
       897.0004         70.0004
  23057055.3754   12008438.62149   9357222.70645                  23057055.1454
       387.0004          9.0004
  24517429.7414    -175092.55048   -136435.78744                  24517434.1744
       214.0004          2.0004
  24599069.6964    -144334.32048   -112429.15146                  24599071.5284
       154.0004         14.0004
  21791540.3204  -14191267.05449 -11058121.43546                  21791541.6384
       614.0004         25.0004
  20677772.6544  -20474199.03549 -15953899.66547                  20677774.3864
       873.0004         63.0004
 05  6 29 19 36 30.0000000  0  7G 1G14G22G20G30G11G25
  20512794.6534  -15890321.55349 -12382055.36547                  20512796.8524
       897.0004         70.0004
  21755541.8004    4111587.56249   3203837.86146                  21755543.2084
       551.0004         25.0004
  23069145.3894   12071975.52049   9406731.94245                  23069146.4714
       367.0004          9.0004
  24500754.7414    -262706.16348   -204706.02044
       154.0004          1.0004
  24592382.5544    -179470.72448   -139794.40946                  24592383.1874
       154.0004         24.0004
  21784832.3244  -14226518.48949 -11085590.07946                  21784833.1414
       631.0004         26.0004
  20671475.4404  -20507292.44049 -15979686.70447                  20671477.1234
       897.0004         67.0004
